<?xml version="1.0" encoding="UTF-8" standalone="no" ?>
<gpx xmlns="http://www.topografix.com/GPX/1/1" xmlns:xsi="http://www.w3.org/2001/XMLSchema-instance" xsi:schemaLocation="http://www.topografix.com/GPX/1/1 http://www.topografix.com/GPX/1/1/gpx.xsd" version="1.1" creator="VisuGPX - https://www.visugpx.com">
  <metadata>
    <name>Le Pic du Malrif et ses lacs</name>
    <desc><![CDATA[Les copains randonneurs du 04
Départ des Fonts de Cervières, suivre le GR 58 jusqu'au Pic de Malrif
itinéraire partiellement balisé]]></desc>
  </metadata>
  <trk>
    <name><![CDATA[AAAAAAAAA4 14:00:52]]></name>
    <trkseg>
      <trkpt lat="44.84501" lon="6.81525">
        <ele>2175.6</ele>
        <time>2026-07-14T04:39:39Z</time>
      </trkpt>
      <trkpt lat="44.845" lon="6.81525">
        <ele>2175.6</ele>
        <time>2026-07-14T04:39:40Z</time>
      </trkpt>
      <trkpt lat="44.845" lon="6.81525">
        <ele>2051.59</ele>
        <time>2026-07-14T04:39:43Z</time>
      </trkpt>
      <trkpt lat="44.845" lon="6.81526">
        <ele>2051.59</ele>
        <time>2026-07-14T04:39:44Z</time>
      </trkpt>
      <trkpt lat="44.84504" lon="6.81531">
        <ele>2052.07</ele>
        <time>2026-07-14T04:40:13Z</time>
      </trkpt>
      <trkpt lat="44.84506" lon="6.81531">
        <ele>2052.07</ele>
        <time>2026-07-14T04:40:38Z</time>
      </trkpt>
      <trkpt lat="44.84501" lon="6.81548">
        <ele>2052.07</ele>
        <time>2026-07-14T04:40:56Z</time>
      </trkpt>
      <trkpt lat="44.84502" lon="6.81567">
        <ele>2052.07</ele>
        <time>2026-07-14T04:41:09Z</time>
      </trkpt>
      <trkpt lat="44.84507" lon="6.81581">
        <ele>2052.55</ele>
        <time>2026-07-14T04:41:26Z</time>
      </trkpt>
      <trkpt lat="44.84507" lon="6.81578">
        <ele>2052.55</ele>
        <time>2026-07-14T04:41:54Z</time>
      </trkpt>
      <trkpt lat="44.84507" lon="6.8158">
        <ele>2052.55</ele>
        <time>2026-07-14T04:42:11Z</time>
      </trkpt>
      <trkpt lat="44.84499" lon="6.81585">
        <ele>2052.55</ele>
        <time>2026-07-14T04:42:33Z</time>
      </trkpt>
      <trkpt lat="44.84495" lon="6.8159">
        <ele>2052.55</ele>
        <time>2026-07-14T04:42:39Z</time>
      </trkpt>
      <trkpt lat="44.84494" lon="6.81592">
        <ele>2052.55</ele>
        <time>2026-07-14T04:42:41Z</time>
      </trkpt>
      <trkpt lat="44.8448" lon="6.81596">
        <ele>2052.07</ele>
        <time>2026-07-14T04:43:00Z</time>
      </trkpt>
      <trkpt lat="44.84472" lon="6.816">
        <ele>2052.07</ele>
        <time>2026-07-14T04:43:24Z</time>
      </trkpt>
      <trkpt lat="44.84453" lon="6.81603">
        <ele>2052.07</ele>
        <time>2026-07-14T04:43:40Z</time>
      </trkpt>
      <trkpt lat="44.84432" lon="6.816">
        <ele>2052.55</ele>
        <time>2026-07-14T04:43:59Z</time>
      </trkpt>
      <trkpt lat="44.84417" lon="6.81615">
        <ele>2053.03</ele>
        <time>2026-07-14T04:44:16Z</time>
      </trkpt>
      <trkpt lat="44.84408" lon="6.81644">
        <ele>2054.47</ele>
        <time>2026-07-14T04:44:35Z</time>
      </trkpt>
      <trkpt lat="44.84404" lon="6.81662">
        <ele>2054.96</ele>
        <time>2026-07-14T04:44:46Z</time>
      </trkpt>
      <trkpt lat="44.84397" lon="6.8169">
        <ele>2055.92</ele>
        <time>2026-07-14T04:45:04Z</time>
      </trkpt>
      <trkpt lat="44.84393" lon="6.81707">
        <ele>2056.4</ele>
        <time>2026-07-14T04:45:15Z</time>
      </trkpt>
      <trkpt lat="44.84389" lon="6.81709">
        <ele>2056.4</ele>
        <time>2026-07-14T04:45:19Z</time>
      </trkpt>
      <trkpt lat="44.84385" lon="6.81711">
        <ele>2056.88</ele>
        <time>2026-07-14T04:45:25Z</time>
      </trkpt>
      <trkpt lat="44.84371" lon="6.81707">
        <ele>2057.36</ele>
        <time>2026-07-14T04:45:41Z</time>
      </trkpt>
      <trkpt lat="44.84368" lon="6.81705">
        <ele>2057.36</ele>
        <time>2026-07-14T04:45:44Z</time>
      </trkpt>
      <trkpt lat="44.84343" lon="6.81698">
        <ele>2058.32</ele>
        <time>2026-07-14T04:46:04Z</time>
      </trkpt>
      <trkpt lat="44.84337" lon="6.81698">
        <ele>2058.32</ele>
        <time>2026-07-14T04:46:10Z</time>
      </trkpt>
      <trkpt lat="44.84318" lon="6.81703">
        <ele>2059.28</ele>
        <time>2026-07-14T04:46:27Z</time>
      </trkpt>
      <trkpt lat="44.843" lon="6.817">
        <ele>2059.76</ele>
        <time>2026-07-14T04:46:44Z</time>
      </trkpt>
      <trkpt lat="44.84296" lon="6.81702">
        <ele>2059.76</ele>
        <time>2026-07-14T04:46:49Z</time>
      </trkpt>
      <trkpt lat="44.8429" lon="6.81711">
        <ele>2059.76</ele>
        <time>2026-07-14T04:47:06Z</time>
      </trkpt>
      <trkpt lat="44.84292" lon="6.81713">
        <ele>2059.76</ele>
        <time>2026-07-14T04:47:20Z</time>
      </trkpt>
      <trkpt lat="44.8429" lon="6.8174">
        <ele>2060.72</ele>
        <time>2026-07-14T04:47:39Z</time>
      </trkpt>
      <trkpt lat="44.84287" lon="6.81764">
        <ele>2062.17</ele>
        <time>2026-07-14T04:47:55Z</time>
      </trkpt>
      <trkpt lat="44.84286" lon="6.81792">
        <ele>2063.61</ele>
        <time>2026-07-14T04:48:12Z</time>
      </trkpt>
      <trkpt lat="44.84285" lon="6.81812">
        <ele>2064.57</ele>
        <time>2026-07-14T04:48:28Z</time>
      </trkpt>
      <trkpt lat="44.84285" lon="6.81832">
        <ele>2065.53</ele>
        <time>2026-07-14T04:48:43Z</time>
      </trkpt>
      <trkpt lat="44.84287" lon="6.81851">
        <ele>2066.01</ele>
        <time>2026-07-14T04:48:58Z</time>
      </trkpt>
      <trkpt lat="44.84285" lon="6.81873">
        <ele>2066.97</ele>
        <time>2026-07-14T04:49:16Z</time>
      </trkpt>
      <trkpt lat="44.84287" lon="6.81885">
        <ele>2067.45</ele>
        <time>2026-07-14T04:49:30Z</time>
      </trkpt>
      <trkpt lat="44.84285" lon="6.81898">
        <ele>2068.41</ele>
        <time>2026-07-14T04:49:43Z</time>
      </trkpt>
      <trkpt lat="44.84281" lon="6.81908">
        <ele>2069.86</ele>
        <time>2026-07-14T04:49:57Z</time>
      </trkpt>
      <trkpt lat="44.84274" lon="6.8191">
        <ele>2073.22</ele>
        <time>2026-07-14T04:50:14Z</time>
      </trkpt>
      <trkpt lat="44.8427" lon="6.81917">
        <ele>2075.14</ele>
        <time>2026-07-14T04:50:29Z</time>
      </trkpt>
      <trkpt lat="44.84267" lon="6.81919">
        <ele>2077.07</ele>
        <time>2026-07-14T04:50:45Z</time>
      </trkpt>
      <trkpt lat="44.8426" lon="6.81921">
        <ele>2078.99</ele>
        <time>2026-07-14T04:51:02Z</time>
      </trkpt>
      <trkpt lat="44.84257" lon="6.81933">
        <ele>2081.87</ele>
        <time>2026-07-14T04:51:16Z</time>
      </trkpt>
      <trkpt lat="44.84252" lon="6.81937">
        <ele>2083.31</ele>
        <time>2026-07-14T04:51:30Z</time>
      </trkpt>
      <trkpt lat="44.84248" lon="6.81947">
        <ele>2085.72</ele>
        <time>2026-07-14T04:51:46Z</time>
      </trkpt>
      <trkpt lat="44.84244" lon="6.81955">
        <ele>2088.6</ele>
        <time>2026-07-14T04:52:03Z</time>
      </trkpt>
      <trkpt lat="44.84243" lon="6.8197">
        <ele>2091</ele>
        <time>2026-07-14T04:52:21Z</time>
      </trkpt>
      <trkpt lat="44.84238" lon="6.81978">
        <ele>2093.41</ele>
        <time>2026-07-14T04:52:37Z</time>
      </trkpt>
      <trkpt lat="44.84233" lon="6.8199">
        <ele>2095.81</ele>
        <time>2026-07-14T04:52:55Z</time>
      </trkpt>
      <trkpt lat="44.84229" lon="6.82003">
        <ele>2098.21</ele>
        <time>2026-07-14T04:53:15Z</time>
      </trkpt>
      <trkpt lat="44.84224" lon="6.82014">
        <ele>2101.1</ele>
        <time>2026-07-14T04:53:31Z</time>
      </trkpt>
      <trkpt lat="44.84225" lon="6.82027">
        <ele>2102.54</ele>
        <time>2026-07-14T04:53:47Z</time>
      </trkpt>
      <trkpt lat="44.84224" lon="6.8203">
        <ele>2103.98</ele>
        <time>2026-07-14T04:53:53Z</time>
      </trkpt>
      <trkpt lat="44.84226" lon="6.8204">
        <ele>2105.42</ele>
        <time>2026-07-14T04:54:07Z</time>
      </trkpt>
      <trkpt lat="44.84226" lon="6.82047">
        <ele>2106.39</ele>
        <time>2026-07-14T04:54:22Z</time>
      </trkpt>
      <trkpt lat="44.84215" lon="6.82053">
        <ele>2107.35</ele>
        <time>2026-07-14T04:54:41Z</time>
      </trkpt>
      <trkpt lat="44.84208" lon="6.82061">
        <ele>2109.75</ele>
        <time>2026-07-14T04:54:56Z</time>
      </trkpt>
      <trkpt lat="44.84205" lon="6.82077">
        <ele>2110.71</ele>
        <time>2026-07-14T04:55:12Z</time>
      </trkpt>
      <trkpt lat="44.842" lon="6.8209">
        <ele>2111.67</ele>
        <time>2026-07-14T04:55:26Z</time>
      </trkpt>
      <trkpt lat="44.84201" lon="6.82098">
        <ele>2110.71</ele>
        <time>2026-07-14T04:55:37Z</time>
      </trkpt>
      <trkpt lat="44.84205" lon="6.82112">
        <ele>2111.19</ele>
        <time>2026-07-14T04:55:50Z</time>
      </trkpt>
      <trkpt lat="44.84202" lon="6.82121">
        <ele>2113.6</ele>
        <time>2026-07-14T04:56:06Z</time>
      </trkpt>
      <trkpt lat="44.84202" lon="6.82124">
        <ele>2115.04</ele>
        <time>2026-07-14T04:56:18Z</time>
      </trkpt>
      <trkpt lat="44.84196" lon="6.82123">
        <ele>2116</ele>
        <time>2026-07-14T04:56:32Z</time>
      </trkpt>
      <trkpt lat="44.84194" lon="6.82132">
        <ele>2118.88</ele>
        <time>2026-07-14T04:56:47Z</time>
      </trkpt>
      <trkpt lat="44.84193" lon="6.82142">
        <ele>2121.29</ele>
        <time>2026-07-14T04:57:03Z</time>
      </trkpt>
      <trkpt lat="44.84194" lon="6.82148">
        <ele>2124.17</ele>
        <time>2026-07-14T04:57:23Z</time>
      </trkpt>
      <trkpt lat="44.8419" lon="6.82158">
        <ele>2127.05</ele>
        <time>2026-07-14T04:57:41Z</time>
      </trkpt>
      <trkpt lat="44.84187" lon="6.82175">
        <ele>2128.98</ele>
        <time>2026-07-14T04:58:00Z</time>
      </trkpt>
      <trkpt lat="44.84185" lon="6.82184">
        <ele>2130.42</ele>
        <time>2026-07-14T04:58:16Z</time>
      </trkpt>
      <trkpt lat="44.84186" lon="6.82192">
        <ele>2130.9</ele>
        <time>2026-07-14T04:58:35Z</time>
      </trkpt>
      <trkpt lat="44.84185" lon="6.82203">
        <ele>2132.82</ele>
        <time>2026-07-14T04:58:49Z</time>
      </trkpt>
      <trkpt lat="44.84184" lon="6.82212">
        <ele>2135.71</ele>
        <time>2026-07-14T04:59:03Z</time>
      </trkpt>
      <trkpt lat="44.84185" lon="6.82221">
        <ele>2138.11</ele>
        <time>2026-07-14T04:59:20Z</time>
      </trkpt>
      <trkpt lat="44.84186" lon="6.82231">
        <ele>2140.51</ele>
        <time>2026-07-14T04:59:37Z</time>
      </trkpt>
      <trkpt lat="44.84188" lon="6.82241">
        <ele>2143.4</ele>
        <time>2026-07-14T04:59:54Z</time>
      </trkpt>
      <trkpt lat="44.84192" lon="6.82251">
        <ele>2145.32</ele>
        <time>2026-07-14T05:00:10Z</time>
      </trkpt>
      <trkpt lat="44.84194" lon="6.8226">
        <ele>2146.76</ele>
        <time>2026-07-14T05:00:25Z</time>
      </trkpt>
      <trkpt lat="44.84188" lon="6.82263">
        <ele>2148.68</ele>
        <time>2026-07-14T05:00:40Z</time>
      </trkpt>
      <trkpt lat="44.84191" lon="6.82272">
        <ele>2150.61</ele>
        <time>2026-07-14T05:00:54Z</time>
      </trkpt>
      <trkpt lat="44.84196" lon="6.82283">
        <ele>2153.49</ele>
        <time>2026-07-14T05:01:11Z</time>
      </trkpt>
      <trkpt lat="44.84202" lon="6.82299">
        <ele>2156.37</ele>
        <time>2026-07-14T05:01:31Z</time>
      </trkpt>
      <trkpt lat="44.84201" lon="6.82311">
        <ele>2158.3</ele>
        <time>2026-07-14T05:01:44Z</time>
      </trkpt>
      <trkpt lat="44.842" lon="6.82324">
        <ele>2160.7</ele>
        <time>2026-07-14T05:02:01Z</time>
      </trkpt>
      <trkpt lat="44.84201" lon="6.8234">
        <ele>2163.1</ele>
        <time>2026-07-14T05:02:18Z</time>
      </trkpt>
      <trkpt lat="44.84199" lon="6.82351">
        <ele>2165.99</ele>
        <time>2026-07-14T05:02:34Z</time>
      </trkpt>
      <trkpt lat="44.84197" lon="6.82358">
        <ele>2167.43</ele>
        <time>2026-07-14T05:02:47Z</time>
      </trkpt>
      <trkpt lat="44.84198" lon="6.82364">
        <ele>2168.39</ele>
        <time>2026-07-14T05:03:07Z</time>
      </trkpt>
      <trkpt lat="44.84201" lon="6.82369">
        <ele>2169.83</ele>
        <time>2026-07-14T05:03:23Z</time>
      </trkpt>
      <trkpt lat="44.84203" lon="6.82364">
        <ele>2168.87</ele>
        <time>2026-07-14T05:04:02Z</time>
      </trkpt>
      <trkpt lat="44.84203" lon="6.82365">
        <ele>2168.87</ele>
        <time>2026-07-14T05:04:25Z</time>
      </trkpt>
      <trkpt lat="44.84196" lon="6.82371">
        <ele>2169.83</ele>
        <time>2026-07-14T05:04:41Z</time>
      </trkpt>
      <trkpt lat="44.84193" lon="6.82384">
        <ele>2172.24</ele>
        <time>2026-07-14T05:04:57Z</time>
      </trkpt>
      <trkpt lat="44.84192" lon="6.82398">
        <ele>2175.6</ele>
        <time>2026-07-14T05:05:13Z</time>
      </trkpt>
      <trkpt lat="44.84194" lon="6.82412">
        <ele>2178</ele>
        <time>2026-07-14T05:05:29Z</time>
      </trkpt>
      <trkpt lat="44.84197" lon="6.82423">
        <ele>2180.89</ele>
        <time>2026-07-14T05:05:45Z</time>
      </trkpt>
      <trkpt lat="44.84196" lon="6.82435">
        <ele>2182.81</ele>
        <time>2026-07-14T05:06:01Z</time>
      </trkpt>
      <trkpt lat="44.84187" lon="6.82439">
        <ele>2184.73</ele>
        <time>2026-07-14T05:06:18Z</time>
      </trkpt>
      <trkpt lat="44.84189" lon="6.8245">
        <ele>2187.62</ele>
        <time>2026-07-14T05:06:31Z</time>
      </trkpt>
      <trkpt lat="44.84194" lon="6.82461">
        <ele>2189.54</ele>
        <time>2026-07-14T05:06:48Z</time>
      </trkpt>
      <trkpt lat="44.84198" lon="6.82471">
        <ele>2192.42</ele>
        <time>2026-07-14T05:07:04Z</time>
      </trkpt>
      <trkpt lat="44.84199" lon="6.82476">
        <ele>2193.87</ele>
        <time>2026-07-14T05:07:17Z</time>
      </trkpt>
      <trkpt lat="44.84203" lon="6.82491">
        <ele>2196.75</ele>
        <time>2026-07-14T05:07:35Z</time>
      </trkpt>
      <trkpt lat="44.84205" lon="6.82504">
        <ele>2199.15</ele>
        <time>2026-07-14T05:07:53Z</time>
      </trkpt>
      <trkpt lat="44.84204" lon="6.82507">
        <ele>2199.63</ele>
        <time>2026-07-14T05:08:10Z</time>
      </trkpt>
      <trkpt lat="44.84205" lon="6.82506">
        <ele>2199.63</ele>
        <time>2026-07-14T05:08:30Z</time>
      </trkpt>
      <trkpt lat="44.84205" lon="6.82507">
        <ele>2200.11</ele>
        <time>2026-07-14T05:08:53Z</time>
      </trkpt>
      <trkpt lat="44.84208" lon="6.82522">
        <ele>2201.56</ele>
        <time>2026-07-14T05:09:10Z</time>
      </trkpt>
      <trkpt lat="44.8421" lon="6.82535">
        <ele>2204.44</ele>
        <time>2026-07-14T05:09:27Z</time>
      </trkpt>
      <trkpt lat="44.8421" lon="6.82551">
        <ele>2207.32</ele>
        <time>2026-07-14T05:09:47Z</time>
      </trkpt>
      <trkpt lat="44.8421" lon="6.82565">
        <ele>2208.77</ele>
        <time>2026-07-14T05:10:03Z</time>
      </trkpt>
      <trkpt lat="44.8421" lon="6.82583">
        <ele>2211.17</ele>
        <time>2026-07-14T05:10:21Z</time>
      </trkpt>
      <trkpt lat="44.84207" lon="6.826">
        <ele>2213.09</ele>
        <time>2026-07-14T05:10:38Z</time>
      </trkpt>
      <trkpt lat="44.84212" lon="6.8262">
        <ele>2214.53</ele>
        <time>2026-07-14T05:10:57Z</time>
      </trkpt>
      <trkpt lat="44.84218" lon="6.82646">
        <ele>2217.9</ele>
        <time>2026-07-14T05:11:19Z</time>
      </trkpt>
      <trkpt lat="44.84225" lon="6.82658">
        <ele>2220.3</ele>
        <time>2026-07-14T05:11:35Z</time>
      </trkpt>
      <trkpt lat="44.84227" lon="6.82678">
        <ele>2223.67</ele>
        <time>2026-07-14T05:11:55Z</time>
      </trkpt>
      <trkpt lat="44.84223" lon="6.82692">
        <ele>2224.63</ele>
        <time>2026-07-14T05:12:10Z</time>
      </trkpt>
      <trkpt lat="44.84222" lon="6.82714">
        <ele>2226.55</ele>
        <time>2026-07-14T05:12:28Z</time>
      </trkpt>
      <trkpt lat="44.84219" lon="6.82731">
        <ele>2228.47</ele>
        <time>2026-07-14T05:12:44Z</time>
      </trkpt>
      <trkpt lat="44.84215" lon="6.82749">
        <ele>2230.88</ele>
        <time>2026-07-14T05:13:01Z</time>
      </trkpt>
      <trkpt lat="44.84214" lon="6.82759">
        <ele>2231.36</ele>
        <time>2026-07-14T05:13:17Z</time>
      </trkpt>
      <trkpt lat="44.84214" lon="6.82764">
        <ele>2232.32</ele>
        <time>2026-07-14T05:13:36Z</time>
      </trkpt>
      <trkpt lat="44.8421" lon="6.82768">
        <ele>2232.32</ele>
        <time>2026-07-14T05:13:45Z</time>
      </trkpt>
      <trkpt lat="44.84208" lon="6.82773">
        <ele>2232.32</ele>
        <time>2026-07-14T05:13:49Z</time>
      </trkpt>
      <trkpt lat="44.84206" lon="6.82788">
        <ele>2233.76</ele>
        <time>2026-07-14T05:14:05Z</time>
      </trkpt>
      <trkpt lat="44.84204" lon="6.82787">
        <ele>2233.76</ele>
        <time>2026-07-14T05:14:31Z</time>
      </trkpt>
      <trkpt lat="44.84196" lon="6.82807">
        <ele>2235.68</ele>
        <time>2026-07-14T05:14:51Z</time>
      </trkpt>
      <trkpt lat="44.84196" lon="6.82808">
        <ele>2235.68</ele>
        <time>2026-07-14T05:14:52Z</time>
      </trkpt>
      <trkpt lat="44.84195" lon="6.82829">
        <ele>2237.61</ele>
        <time>2026-07-14T05:15:11Z</time>
      </trkpt>
      <trkpt lat="44.84194" lon="6.8285">
        <ele>2239.05</ele>
        <time>2026-07-14T05:15:28Z</time>
      </trkpt>
      <trkpt lat="44.8419" lon="6.82866">
        <ele>2240.49</ele>
        <time>2026-07-14T05:15:44Z</time>
      </trkpt>
      <trkpt lat="44.84182" lon="6.82883">
        <ele>2243.37</ele>
        <time>2026-07-14T05:16:01Z</time>
      </trkpt>
      <trkpt lat="44.84179" lon="6.82891">
        <ele>2244.33</ele>
        <time>2026-07-14T05:16:09Z</time>
      </trkpt>
      <trkpt lat="44.8417" lon="6.82904">
        <ele>2246.26</ele>
        <time>2026-07-14T05:16:24Z</time>
      </trkpt>
      <trkpt lat="44.84166" lon="6.82916">
        <ele>2246.74</ele>
        <time>2026-07-14T05:16:39Z</time>
      </trkpt>
      <trkpt lat="44.84166" lon="6.82937">
        <ele>2247.7</ele>
        <time>2026-07-14T05:16:56Z</time>
      </trkpt>
      <trkpt lat="44.84167" lon="6.82954">
        <ele>2248.66</ele>
        <time>2026-07-14T05:17:10Z</time>
      </trkpt>
      <trkpt lat="44.84168" lon="6.82976">
        <ele>2250.1</ele>
        <time>2026-07-14T05:17:28Z</time>
      </trkpt>
      <trkpt lat="44.84165" lon="6.82997">
        <ele>2252.51</ele>
        <time>2026-07-14T05:17:45Z</time>
      </trkpt>
      <trkpt lat="44.84165" lon="6.83015">
        <ele>2253.47</ele>
        <time>2026-07-14T05:18:00Z</time>
      </trkpt>
      <trkpt lat="44.84164" lon="6.83034">
        <ele>2255.39</ele>
        <time>2026-07-14T05:18:16Z</time>
      </trkpt>
      <trkpt lat="44.84161" lon="6.83055">
        <ele>2257.31</ele>
        <time>2026-07-14T05:18:32Z</time>
      </trkpt>
      <trkpt lat="44.84157" lon="6.83076">
        <ele>2258.75</ele>
        <time>2026-07-14T05:18:49Z</time>
      </trkpt>
      <trkpt lat="44.84153" lon="6.83096">
        <ele>2261.16</ele>
        <time>2026-07-14T05:19:07Z</time>
      </trkpt>
      <trkpt lat="44.84155" lon="6.83113">
        <ele>2263.08</ele>
        <time>2026-07-14T05:19:22Z</time>
      </trkpt>
      <trkpt lat="44.84156" lon="6.83119">
        <ele>2263.56</ele>
        <time>2026-07-14T05:19:37Z</time>
      </trkpt>
      <trkpt lat="44.84155" lon="6.83122">
        <ele>2264.04</ele>
        <time>2026-07-14T05:20:03Z</time>
      </trkpt>
      <trkpt lat="44.84152" lon="6.83135">
        <ele>2264.52</ele>
        <time>2026-07-14T05:20:22Z</time>
      </trkpt>
      <trkpt lat="44.84148" lon="6.83154">
        <ele>2266.93</ele>
        <time>2026-07-14T05:20:39Z</time>
      </trkpt>
      <trkpt lat="44.8415" lon="6.83177">
        <ele>2267.41</ele>
        <time>2026-07-14T05:20:58Z</time>
      </trkpt>
      <trkpt lat="44.84151" lon="6.83179">
        <ele>2267.41</ele>
        <time>2026-07-14T05:21:22Z</time>
      </trkpt>
      <trkpt lat="44.84144" lon="6.8319">
        <ele>2268.37</ele>
        <time>2026-07-14T05:21:42Z</time>
      </trkpt>
      <trkpt lat="44.84137" lon="6.83211">
        <ele>2269.81</ele>
        <time>2026-07-14T05:22:00Z</time>
      </trkpt>
      <trkpt lat="44.84139" lon="6.83226">
        <ele>2269.81</ele>
        <time>2026-07-14T05:22:11Z</time>
      </trkpt>
      <trkpt lat="44.84132" lon="6.83253">
        <ele>2270.29</ele>
        <time>2026-07-14T05:22:31Z</time>
      </trkpt>
      <trkpt lat="44.84127" lon="6.83259">
        <ele>2270.77</ele>
        <time>2026-07-14T05:22:55Z</time>
      </trkpt>
      <trkpt lat="44.84116" lon="6.83282">
        <ele>2271.73</ele>
        <time>2026-07-14T05:23:13Z</time>
      </trkpt>
      <trkpt lat="44.84108" lon="6.833">
        <ele>2273.17</ele>
        <time>2026-07-14T05:23:28Z</time>
      </trkpt>
      <trkpt lat="44.84108" lon="6.83306">
        <ele>2273.17</ele>
        <time>2026-07-14T05:23:43Z</time>
      </trkpt>
      <trkpt lat="44.84113" lon="6.83306">
        <ele>2274.14</ele>
        <time>2026-07-14T05:24:08Z</time>
      </trkpt>
      <trkpt lat="44.8411" lon="6.83308">
        <ele>2274.14</ele>
        <time>2026-07-14T05:24:27Z</time>
      </trkpt>
      <trkpt lat="44.84111" lon="6.83316">
        <ele>2274.14</ele>
        <time>2026-07-14T05:24:32Z</time>
      </trkpt>
      <trkpt lat="44.84109" lon="6.83344">
        <ele>2275.1</ele>
        <time>2026-07-14T05:24:51Z</time>
      </trkpt>
      <trkpt lat="44.84108" lon="6.83365">
        <ele>2275.58</ele>
        <time>2026-07-14T05:25:05Z</time>
      </trkpt>
      <trkpt lat="44.84109" lon="6.83387">
        <ele>2277.02</ele>
        <time>2026-07-14T05:25:20Z</time>
      </trkpt>
      <trkpt lat="44.84112" lon="6.83407">
        <ele>2277.5</ele>
        <time>2026-07-14T05:25:33Z</time>
      </trkpt>
      <trkpt lat="44.84113" lon="6.8343">
        <ele>2278.94</ele>
        <time>2026-07-14T05:25:48Z</time>
      </trkpt>
      <trkpt lat="44.84115" lon="6.8345">
        <ele>2278.94</ele>
        <time>2026-07-14T05:26:01Z</time>
      </trkpt>
      <trkpt lat="44.84121" lon="6.83479">
        <ele>2279.9</ele>
        <time>2026-07-14T05:26:19Z</time>
      </trkpt>
      <trkpt lat="44.84125" lon="6.83485">
        <ele>2280.38</ele>
        <time>2026-07-14T05:26:24Z</time>
      </trkpt>
      <trkpt lat="44.8413" lon="6.83515">
        <ele>2282.79</ele>
        <time>2026-07-14T05:26:47Z</time>
      </trkpt>
      <trkpt lat="44.84132" lon="6.83535">
        <ele>2284.23</ele>
        <time>2026-07-14T05:27:04Z</time>
      </trkpt>
      <trkpt lat="44.84132" lon="6.83554">
        <ele>2286.15</ele>
        <time>2026-07-14T05:27:20Z</time>
      </trkpt>
      <trkpt lat="44.84132" lon="6.83579">
        <ele>2287.11</ele>
        <time>2026-07-14T05:27:38Z</time>
      </trkpt>
      <trkpt lat="44.84127" lon="6.83592">
        <ele>2288.56</ele>
        <time>2026-07-14T05:27:53Z</time>
      </trkpt>
      <trkpt lat="44.84127" lon="6.83604">
        <ele>2289.52</ele>
        <time>2026-07-14T05:28:10Z</time>
      </trkpt>
      <trkpt lat="44.84128" lon="6.83619">
        <ele>2290.48</ele>
        <time>2026-07-14T05:28:27Z</time>
      </trkpt>
      <trkpt lat="44.84131" lon="6.83631">
        <ele>2292.88</ele>
        <time>2026-07-14T05:28:43Z</time>
      </trkpt>
      <trkpt lat="44.84133" lon="6.83638">
        <ele>2292.88</ele>
        <time>2026-07-14T05:29:15Z</time>
      </trkpt>
      <trkpt lat="44.84129" lon="6.83654">
        <ele>2295.77</ele>
        <time>2026-07-14T05:29:29Z</time>
      </trkpt>
      <trkpt lat="44.84131" lon="6.83674">
        <ele>2297.21</ele>
        <time>2026-07-14T05:29:45Z</time>
      </trkpt>
      <trkpt lat="44.84131" lon="6.83688">
        <ele>2298.65</ele>
        <time>2026-07-14T05:29:56Z</time>
      </trkpt>
      <trkpt lat="44.84124" lon="6.83709">
        <ele>2300.09</ele>
        <time>2026-07-14T05:30:12Z</time>
      </trkpt>
      <trkpt lat="44.84118" lon="6.83732">
        <ele>2301.05</ele>
        <time>2026-07-14T05:30:28Z</time>
      </trkpt>
      <trkpt lat="44.84115" lon="6.83758">
        <ele>2302.98</ele>
        <time>2026-07-14T05:30:45Z</time>
      </trkpt>
      <trkpt lat="44.84114" lon="6.83765">
        <ele>2303.46</ele>
        <time>2026-07-14T05:30:50Z</time>
      </trkpt>
      <trkpt lat="44.84113" lon="6.83785">
        <ele>2304.42</ele>
        <time>2026-07-14T05:31:05Z</time>
      </trkpt>
      <trkpt lat="44.8411" lon="6.83801">
        <ele>2304.9</ele>
        <time>2026-07-14T05:31:17Z</time>
      </trkpt>
      <trkpt lat="44.84104" lon="6.83825">
        <ele>2306.34</ele>
        <time>2026-07-14T05:31:35Z</time>
      </trkpt>
      <trkpt lat="44.84095" lon="6.83844">
        <ele>2308.26</ele>
        <time>2026-07-14T05:31:53Z</time>
      </trkpt>
      <trkpt lat="44.8409" lon="6.83856">
        <ele>2309.22</ele>
        <time>2026-07-14T05:32:10Z</time>
      </trkpt>
      <trkpt lat="44.84089" lon="6.8386">
        <ele>2309.22</ele>
        <time>2026-07-14T05:32:27Z</time>
      </trkpt>
      <trkpt lat="44.84086" lon="6.83867">
        <ele>2310.19</ele>
        <time>2026-07-14T05:32:44Z</time>
      </trkpt>
      <trkpt lat="44.84076" lon="6.83879">
        <ele>2311.15</ele>
        <time>2026-07-14T05:33:01Z</time>
      </trkpt>
      <trkpt lat="44.84067" lon="6.83895">
        <ele>2312.59</ele>
        <time>2026-07-14T05:33:18Z</time>
      </trkpt>
      <trkpt lat="44.84056" lon="6.83917">
        <ele>2313.55</ele>
        <time>2026-07-14T05:33:37Z</time>
      </trkpt>
      <trkpt lat="44.84049" lon="6.83936">
        <ele>2314.51</ele>
        <time>2026-07-14T05:33:53Z</time>
      </trkpt>
      <trkpt lat="44.8404" lon="6.83952">
        <ele>2315.47</ele>
        <time>2026-07-14T05:34:09Z</time>
      </trkpt>
      <trkpt lat="44.84032" lon="6.83963">
        <ele>2316.43</ele>
        <time>2026-07-14T05:34:21Z</time>
      </trkpt>
      <trkpt lat="44.84025" lon="6.83985">
        <ele>2317.88</ele>
        <time>2026-07-14T05:34:38Z</time>
      </trkpt>
      <trkpt lat="44.84021" lon="6.84006">
        <ele>2318.84</ele>
        <time>2026-07-14T05:34:54Z</time>
      </trkpt>
      <trkpt lat="44.84017" lon="6.84016">
        <ele>2319.32</ele>
        <time>2026-07-14T05:35:03Z</time>
      </trkpt>
      <trkpt lat="44.8401" lon="6.84032">
        <ele>2321.72</ele>
        <time>2026-07-14T05:35:17Z</time>
      </trkpt>
      <trkpt lat="44.84004" lon="6.84056">
        <ele>2322.68</ele>
        <time>2026-07-14T05:35:35Z</time>
      </trkpt>
      <trkpt lat="44.83998" lon="6.84075">
        <ele>2323.64</ele>
        <time>2026-07-14T05:35:53Z</time>
      </trkpt>
      <trkpt lat="44.83992" lon="6.84091">
        <ele>2325.57</ele>
        <time>2026-07-14T05:36:10Z</time>
      </trkpt>
      <trkpt lat="44.83992" lon="6.84091">
        <ele>2325.57</ele>
        <time>2026-07-14T05:36:31Z</time>
      </trkpt>
      <trkpt lat="44.83988" lon="6.84098">
        <ele>2326.05</ele>
        <time>2026-07-14T05:36:39Z</time>
      </trkpt>
      <trkpt lat="44.83979" lon="6.84116">
        <ele>2327.49</ele>
        <time>2026-07-14T05:36:54Z</time>
      </trkpt>
      <trkpt lat="44.8397" lon="6.84135">
        <ele>2328.45</ele>
        <time>2026-07-14T05:37:11Z</time>
      </trkpt>
      <trkpt lat="44.83973" lon="6.84153">
        <ele>2329.89</ele>
        <time>2026-07-14T05:37:26Z</time>
      </trkpt>
      <trkpt lat="44.8397" lon="6.84166">
        <ele>2331.81</ele>
        <time>2026-07-14T05:37:40Z</time>
      </trkpt>
      <trkpt lat="44.83967" lon="6.84178">
        <ele>2333.26</ele>
        <time>2026-07-14T05:37:56Z</time>
      </trkpt>
      <trkpt lat="44.83971" lon="6.84192">
        <ele>2333.74</ele>
        <time>2026-07-14T05:38:10Z</time>
      </trkpt>
      <trkpt lat="44.83971" lon="6.84193">
        <ele>2333.74</ele>
        <time>2026-07-14T05:38:12Z</time>
      </trkpt>
      <trkpt lat="44.83968" lon="6.84214">
        <ele>2334.7</ele>
        <time>2026-07-14T05:38:30Z</time>
      </trkpt>
      <trkpt lat="44.83966" lon="6.84222">
        <ele>2335.66</ele>
        <time>2026-07-14T05:38:48Z</time>
      </trkpt>
      <trkpt lat="44.83965" lon="6.84237">
        <ele>2336.62</ele>
        <time>2026-07-14T05:39:07Z</time>
      </trkpt>
      <trkpt lat="44.8396" lon="6.84253">
        <ele>2338.54</ele>
        <time>2026-07-14T05:39:23Z</time>
      </trkpt>
      <trkpt lat="44.83957" lon="6.8427">
        <ele>2339.51</ele>
        <time>2026-07-14T05:39:38Z</time>
      </trkpt>
      <trkpt lat="44.8395" lon="6.8429">
        <ele>2341.43</ele>
        <time>2026-07-14T05:39:54Z</time>
      </trkpt>
      <trkpt lat="44.83948" lon="6.84312">
        <ele>2342.87</ele>
        <time>2026-07-14T05:40:12Z</time>
      </trkpt>
      <trkpt lat="44.83947" lon="6.84321">
        <ele>2343.35</ele>
        <time>2026-07-14T05:40:18Z</time>
      </trkpt>
      <trkpt lat="44.83943" lon="6.84338">
        <ele>2344.31</ele>
        <time>2026-07-14T05:40:32Z</time>
      </trkpt>
      <trkpt lat="44.83943" lon="6.84347">
        <ele>2345.27</ele>
        <time>2026-07-14T05:40:38Z</time>
      </trkpt>
      <trkpt lat="44.83939" lon="6.84368">
        <ele>2346.72</ele>
        <time>2026-07-14T05:40:53Z</time>
      </trkpt>
      <trkpt lat="44.83937" lon="6.84387">
        <ele>2347.68</ele>
        <time>2026-07-14T05:41:08Z</time>
      </trkpt>
      <trkpt lat="44.83929" lon="6.84405">
        <ele>2349.12</ele>
        <time>2026-07-14T05:41:24Z</time>
      </trkpt>
      <trkpt lat="44.83918" lon="6.84422">
        <ele>2350.56</ele>
        <time>2026-07-14T05:41:42Z</time>
      </trkpt>
      <trkpt lat="44.83912" lon="6.8443">
        <ele>2352</ele>
        <time>2026-07-14T05:41:52Z</time>
      </trkpt>
      <trkpt lat="44.839" lon="6.84446">
        <ele>2353.44</ele>
        <time>2026-07-14T05:42:11Z</time>
      </trkpt>
      <trkpt lat="44.83889" lon="6.8446">
        <ele>2354.89</ele>
        <time>2026-07-14T05:42:28Z</time>
      </trkpt>
      <trkpt lat="44.83877" lon="6.84478">
        <ele>2356.33</ele>
        <time>2026-07-14T05:42:47Z</time>
      </trkpt>
      <trkpt lat="44.83861" lon="6.84492">
        <ele>2358.73</ele>
        <time>2026-07-14T05:43:06Z</time>
      </trkpt>
      <trkpt lat="44.83859" lon="6.84494">
        <ele>2359.21</ele>
        <time>2026-07-14T05:43:09Z</time>
      </trkpt>
      <trkpt lat="44.83848" lon="6.84507">
        <ele>2361.62</ele>
        <time>2026-07-14T05:43:26Z</time>
      </trkpt>
      <trkpt lat="44.83838" lon="6.84523">
        <ele>2363.54</ele>
        <time>2026-07-14T05:43:42Z</time>
      </trkpt>
      <trkpt lat="44.83829" lon="6.84537">
        <ele>2365.94</ele>
        <time>2026-07-14T05:43:59Z</time>
      </trkpt>
      <trkpt lat="44.83818" lon="6.84552">
        <ele>2368.35</ele>
        <time>2026-07-14T05:44:18Z</time>
      </trkpt>
      <trkpt lat="44.8381" lon="6.84567">
        <ele>2370.27</ele>
        <time>2026-07-14T05:44:36Z</time>
      </trkpt>
      <trkpt lat="44.838" lon="6.84579">
        <ele>2371.71</ele>
        <time>2026-07-14T05:44:53Z</time>
      </trkpt>
      <trkpt lat="44.83791" lon="6.84592">
        <ele>2374.11</ele>
        <time>2026-07-14T05:45:10Z</time>
      </trkpt>
      <trkpt lat="44.83782" lon="6.84609">
        <ele>2375.55</ele>
        <time>2026-07-14T05:45:29Z</time>
      </trkpt>
      <trkpt lat="44.83775" lon="6.84627">
        <ele>2377.48</ele>
        <time>2026-07-14T05:45:48Z</time>
      </trkpt>
      <trkpt lat="44.83766" lon="6.84637">
        <ele>2378.92</ele>
        <time>2026-07-14T05:46:05Z</time>
      </trkpt>
      <trkpt lat="44.83761" lon="6.84641">
        <ele>2379.4</ele>
        <time>2026-07-14T05:46:34Z</time>
      </trkpt>
      <trkpt lat="44.83759" lon="6.84641">
        <ele>2379.88</ele>
        <time>2026-07-14T05:46:37Z</time>
      </trkpt>
      <trkpt lat="44.83749" lon="6.84641">
        <ele>2382.76</ele>
        <time>2026-07-14T05:46:50Z</time>
      </trkpt>
      <trkpt lat="44.83739" lon="6.84655">
        <ele>2384.21</ele>
        <time>2026-07-14T05:47:05Z</time>
      </trkpt>
      <trkpt lat="44.83734" lon="6.84669">
        <ele>2384.69</ele>
        <time>2026-07-14T05:47:16Z</time>
      </trkpt>
      <trkpt lat="44.8373" lon="6.84675">
        <ele>2385.65</ele>
        <time>2026-07-14T05:47:23Z</time>
      </trkpt>
      <trkpt lat="44.83722" lon="6.84689">
        <ele>2387.09</ele>
        <time>2026-07-14T05:47:39Z</time>
      </trkpt>
      <trkpt lat="44.83719" lon="6.84696">
        <ele>2388.05</ele>
        <time>2026-07-14T05:47:47Z</time>
      </trkpt>
      <trkpt lat="44.83711" lon="6.84714">
        <ele>2389.49</ele>
        <time>2026-07-14T05:48:04Z</time>
      </trkpt>
      <trkpt lat="44.83706" lon="6.84726">
        <ele>2390.94</ele>
        <time>2026-07-14T05:48:20Z</time>
      </trkpt>
      <trkpt lat="44.83698" lon="6.84743">
        <ele>2392.38</ele>
        <time>2026-07-14T05:48:38Z</time>
      </trkpt>
      <trkpt lat="44.83693" lon="6.84753">
        <ele>2394.3</ele>
        <time>2026-07-14T05:48:54Z</time>
      </trkpt>
      <trkpt lat="44.83692" lon="6.84754">
        <ele>2394.3</ele>
        <time>2026-07-14T05:48:55Z</time>
      </trkpt>
      <trkpt lat="44.83686" lon="6.84765">
        <ele>2395.26</ele>
        <time>2026-07-14T05:49:12Z</time>
      </trkpt>
      <trkpt lat="44.8369" lon="6.84764">
        <ele>2395.74</ele>
        <time>2026-07-14T05:49:32Z</time>
      </trkpt>
      <trkpt lat="44.83691" lon="6.84762">
        <ele>2395.74</ele>
        <time>2026-07-14T05:49:57Z</time>
      </trkpt>
      <trkpt lat="44.8369" lon="6.8476">
        <ele>2396.22</ele>
        <time>2026-07-14T05:50:28Z</time>
      </trkpt>
      <trkpt lat="44.83684" lon="6.84762">
        <ele>2396.22</ele>
        <time>2026-07-14T05:50:54Z</time>
      </trkpt>
      <trkpt lat="44.83684" lon="6.84764">
        <ele>2396.22</ele>
        <time>2026-07-14T05:51:33Z</time>
      </trkpt>
      <trkpt lat="44.83688" lon="6.84766">
        <ele>2396.22</ele>
        <time>2026-07-14T05:51:57Z</time>
      </trkpt>
      <trkpt lat="44.83689" lon="6.84764">
        <ele>2396.7</ele>
        <time>2026-07-14T05:52:17Z</time>
      </trkpt>
      <trkpt lat="44.8369" lon="6.84767">
        <ele>2396.7</ele>
        <time>2026-07-14T05:52:46Z</time>
      </trkpt>
      <trkpt lat="44.83687" lon="6.84764">
        <ele>2396.7</ele>
        <time>2026-07-14T05:53:16Z</time>
      </trkpt>
      <trkpt lat="44.83685" lon="6.84767">
        <ele>2396.7</ele>
        <time>2026-07-14T05:53:39Z</time>
      </trkpt>
      <trkpt lat="44.83678" lon="6.84785">
        <ele>2397.67</ele>
        <time>2026-07-14T05:53:55Z</time>
      </trkpt>
      <trkpt lat="44.83672" lon="6.84804">
        <ele>2399.11</ele>
        <time>2026-07-14T05:54:10Z</time>
      </trkpt>
      <trkpt lat="44.83666" lon="6.84819">
        <ele>2400.07</ele>
        <time>2026-07-14T05:54:24Z</time>
      </trkpt>
      <trkpt lat="44.83662" lon="6.84833">
        <ele>2401.51</ele>
        <time>2026-07-14T05:54:38Z</time>
      </trkpt>
      <trkpt lat="44.83654" lon="6.84851">
        <ele>2402.95</ele>
        <time>2026-07-14T05:54:54Z</time>
      </trkpt>
      <trkpt lat="44.83648" lon="6.84869">
        <ele>2404.39</ele>
        <time>2026-07-14T05:55:08Z</time>
      </trkpt>
      <trkpt lat="44.83642" lon="6.84883">
        <ele>2406.8</ele>
        <time>2026-07-14T05:55:25Z</time>
      </trkpt>
      <trkpt lat="44.83635" lon="6.84897">
        <ele>2408.24</ele>
        <time>2026-07-14T05:55:41Z</time>
      </trkpt>
      <trkpt lat="44.83628" lon="6.8491">
        <ele>2409.68</ele>
        <time>2026-07-14T05:55:58Z</time>
      </trkpt>
      <trkpt lat="44.8362" lon="6.84931">
        <ele>2411.12</ele>
        <time>2026-07-14T05:56:16Z</time>
      </trkpt>
      <trkpt lat="44.83615" lon="6.84946">
        <ele>2412.09</ele>
        <time>2026-07-14T05:56:30Z</time>
      </trkpt>
      <trkpt lat="44.83604" lon="6.84963">
        <ele>2413.53</ele>
        <time>2026-07-14T05:56:47Z</time>
      </trkpt>
      <trkpt lat="44.836" lon="6.84971">
        <ele>2413.53</ele>
        <time>2026-07-14T05:56:54Z</time>
      </trkpt>
      <trkpt lat="44.836" lon="6.85">
        <ele>2414.49</ele>
        <time>2026-07-14T05:57:12Z</time>
      </trkpt>
      <trkpt lat="44.83602" lon="6.85021">
        <ele>2416.41</ele>
        <time>2026-07-14T05:57:30Z</time>
      </trkpt>
      <trkpt lat="44.83605" lon="6.85027">
        <ele>2417.37</ele>
        <time>2026-07-14T05:57:47Z</time>
      </trkpt>
      <trkpt lat="44.83605" lon="6.85031">
        <ele>2417.85</ele>
        <time>2026-07-14T05:58:12Z</time>
      </trkpt>
      <trkpt lat="44.83611" lon="6.85044">
        <ele>2420.26</ele>
        <time>2026-07-14T05:58:29Z</time>
      </trkpt>
      <trkpt lat="44.83609" lon="6.85051">
        <ele>2422.18</ele>
        <time>2026-07-14T05:58:43Z</time>
      </trkpt>
      <trkpt lat="44.83614" lon="6.85067">
        <ele>2425.54</ele>
        <time>2026-07-14T05:59:01Z</time>
      </trkpt>
      <trkpt lat="44.83609" lon="6.85081">
        <ele>2427.95</ele>
        <time>2026-07-14T05:59:16Z</time>
      </trkpt>
      <trkpt lat="44.83608" lon="6.851">
        <ele>2430.35</ele>
        <time>2026-07-14T05:59:33Z</time>
      </trkpt>
      <trkpt lat="44.83613" lon="6.85118">
        <ele>2431.79</ele>
        <time>2026-07-14T05:59:49Z</time>
      </trkpt>
      <trkpt lat="44.83613" lon="6.85135">
        <ele>2433.71</ele>
        <time>2026-07-14T06:00:05Z</time>
      </trkpt>
      <trkpt lat="44.83613" lon="6.85146">
        <ele>2434.68</ele>
        <time>2026-07-14T06:00:21Z</time>
      </trkpt>
      <trkpt lat="44.83613" lon="6.85155">
        <ele>2434.68</ele>
        <time>2026-07-14T06:00:44Z</time>
      </trkpt>
      <trkpt lat="44.83607" lon="6.85166">
        <ele>2437.56</ele>
        <time>2026-07-14T06:00:58Z</time>
      </trkpt>
      <trkpt lat="44.83608" lon="6.8518">
        <ele>2438.04</ele>
        <time>2026-07-14T06:01:13Z</time>
      </trkpt>
      <trkpt lat="44.83613" lon="6.85185">
        <ele>2438.04</ele>
        <time>2026-07-14T06:01:25Z</time>
      </trkpt>
      <trkpt lat="44.83619" lon="6.85183">
        <ele>2435.64</ele>
        <time>2026-07-14T06:01:41Z</time>
      </trkpt>
      <trkpt lat="44.83618" lon="6.85176">
        <ele>2435.64</ele>
        <time>2026-07-14T06:02:03Z</time>
      </trkpt>
      <trkpt lat="44.83618" lon="6.8518">
        <ele>2435.16</ele>
        <time>2026-07-14T06:02:31Z</time>
      </trkpt>
      <trkpt lat="44.83618" lon="6.85184">
        <ele>2436.6</ele>
        <time>2026-07-14T06:02:36Z</time>
      </trkpt>
      <trkpt lat="44.83608" lon="6.85188">
        <ele>2438.04</ele>
        <time>2026-07-14T06:02:54Z</time>
      </trkpt>
      <trkpt lat="44.836" lon="6.85196">
        <ele>2441.41</ele>
        <time>2026-07-14T06:03:08Z</time>
      </trkpt>
      <trkpt lat="44.83596" lon="6.85206">
        <ele>2442.37</ele>
        <time>2026-07-14T06:03:21Z</time>
      </trkpt>
      <trkpt lat="44.83601" lon="6.85223">
        <ele>2443.33</ele>
        <time>2026-07-14T06:03:37Z</time>
      </trkpt>
      <trkpt lat="44.836" lon="6.85237">
        <ele>2445.73</ele>
        <time>2026-07-14T06:03:51Z</time>
      </trkpt>
      <trkpt lat="44.83598" lon="6.85254">
        <ele>2448.13</ele>
        <time>2026-07-14T06:04:06Z</time>
      </trkpt>
      <trkpt lat="44.83598" lon="6.85268">
        <ele>2450.06</ele>
        <time>2026-07-14T06:04:22Z</time>
      </trkpt>
      <trkpt lat="44.83591" lon="6.85278">
        <ele>2453.42</ele>
        <time>2026-07-14T06:04:39Z</time>
      </trkpt>
      <trkpt lat="44.83591" lon="6.85293">
        <ele>2455.82</ele>
        <time>2026-07-14T06:04:55Z</time>
      </trkpt>
      <trkpt lat="44.83591" lon="6.85314">
        <ele>2457.75</ele>
        <time>2026-07-14T06:05:14Z</time>
      </trkpt>
      <trkpt lat="44.83589" lon="6.85327">
        <ele>2458.71</ele>
        <time>2026-07-14T06:05:30Z</time>
      </trkpt>
      <trkpt lat="44.83587" lon="6.85338">
        <ele>2460.63</ele>
        <time>2026-07-14T06:05:46Z</time>
      </trkpt>
      <trkpt lat="44.83582" lon="6.85349">
        <ele>2463.04</ele>
        <time>2026-07-14T06:06:02Z</time>
      </trkpt>
      <trkpt lat="44.83576" lon="6.85359">
        <ele>2464.96</ele>
        <time>2026-07-14T06:06:18Z</time>
      </trkpt>
      <trkpt lat="44.83571" lon="6.85373">
        <ele>2466.88</ele>
        <time>2026-07-14T06:06:34Z</time>
      </trkpt>
      <trkpt lat="44.83566" lon="6.85386">
        <ele>2468.8</ele>
        <time>2026-07-14T06:06:50Z</time>
      </trkpt>
      <trkpt lat="44.83562" lon="6.854">
        <ele>2469.28</ele>
        <time>2026-07-14T06:07:05Z</time>
      </trkpt>
      <trkpt lat="44.83563" lon="6.85423">
        <ele>2470.73</ele>
        <time>2026-07-14T06:07:24Z</time>
      </trkpt>
      <trkpt lat="44.83558" lon="6.85435">
        <ele>2472.17</ele>
        <time>2026-07-14T06:07:40Z</time>
      </trkpt>
      <trkpt lat="44.83555" lon="6.85443">
        <ele>2473.13</ele>
        <time>2026-07-14T06:07:54Z</time>
      </trkpt>
      <trkpt lat="44.83551" lon="6.85455">
        <ele>2474.09</ele>
        <time>2026-07-14T06:08:08Z</time>
      </trkpt>
      <trkpt lat="44.83545" lon="6.85466">
        <ele>2475.05</ele>
        <time>2026-07-14T06:08:21Z</time>
      </trkpt>
      <trkpt lat="44.83544" lon="6.85484">
        <ele>2476.97</ele>
        <time>2026-07-14T06:08:37Z</time>
      </trkpt>
      <trkpt lat="44.83541" lon="6.85499">
        <ele>2478.42</ele>
        <time>2026-07-14T06:08:52Z</time>
      </trkpt>
      <trkpt lat="44.83538" lon="6.8551">
        <ele>2479.38</ele>
        <time>2026-07-14T06:09:07Z</time>
      </trkpt>
      <trkpt lat="44.83532" lon="6.85522">
        <ele>2480.82</ele>
        <time>2026-07-14T06:09:21Z</time>
      </trkpt>
      <trkpt lat="44.83532" lon="6.85535">
        <ele>2481.78</ele>
        <time>2026-07-14T06:09:35Z</time>
      </trkpt>
      <trkpt lat="44.83529" lon="6.85549">
        <ele>2481.78</ele>
        <time>2026-07-14T06:09:51Z</time>
      </trkpt>
      <trkpt lat="44.83521" lon="6.85563">
        <ele>2482.74</ele>
        <time>2026-07-14T06:10:05Z</time>
      </trkpt>
      <trkpt lat="44.83518" lon="6.85581">
        <ele>2482.74</ele>
        <time>2026-07-14T06:10:20Z</time>
      </trkpt>
      <trkpt lat="44.83507" lon="6.85594">
        <ele>2483.7</ele>
        <time>2026-07-14T06:10:34Z</time>
      </trkpt>
      <trkpt lat="44.83497" lon="6.85602">
        <ele>2484.66</ele>
        <time>2026-07-14T06:10:49Z</time>
      </trkpt>
      <trkpt lat="44.83483" lon="6.85608">
        <ele>2485.15</ele>
        <time>2026-07-14T06:11:05Z</time>
      </trkpt>
      <trkpt lat="44.83482" lon="6.85609">
        <ele>2485.15</ele>
        <time>2026-07-14T06:11:07Z</time>
      </trkpt>
      <trkpt lat="44.83466" lon="6.8561">
        <ele>2486.59</ele>
        <time>2026-07-14T06:11:25Z</time>
      </trkpt>
      <trkpt lat="44.83466" lon="6.8561">
        <ele>2486.59</ele>
        <time>2026-07-14T06:11:39Z</time>
      </trkpt>
      <trkpt lat="44.83468" lon="6.85612">
        <ele>2486.59</ele>
        <time>2026-07-14T06:12:09Z</time>
      </trkpt>
      <trkpt lat="44.83467" lon="6.85612">
        <ele>2486.59</ele>
        <time>2026-07-14T06:12:40Z</time>
      </trkpt>
      <trkpt lat="44.83467" lon="6.85612">
        <ele>2487.07</ele>
        <time>2026-07-14T06:13:11Z</time>
      </trkpt>
      <trkpt lat="44.83468" lon="6.85613">
        <ele>2487.07</ele>
        <time>2026-07-14T06:13:49Z</time>
      </trkpt>
      <trkpt lat="44.83467" lon="6.85614">
        <ele>2486.11</ele>
        <time>2026-07-14T06:14:29Z</time>
      </trkpt>
      <trkpt lat="44.83468" lon="6.85613">
        <ele>2486.11</ele>
        <time>2026-07-14T06:15:02Z</time>
      </trkpt>
      <trkpt lat="44.83467" lon="6.85613">
        <ele>2486.11</ele>
        <time>2026-07-14T06:15:37Z</time>
      </trkpt>
      <trkpt lat="44.83465" lon="6.85613">
        <ele>2486.11</ele>
        <time>2026-07-14T06:16:01Z</time>
      </trkpt>
      <trkpt lat="44.83468" lon="6.85614">
        <ele>2486.59</ele>
        <time>2026-07-14T06:16:36Z</time>
      </trkpt>
      <trkpt lat="44.83465" lon="6.85611">
        <ele>2486.59</ele>
        <time>2026-07-14T06:17:12Z</time>
      </trkpt>
      <trkpt lat="44.83467" lon="6.85614">
        <ele>2486.59</ele>
        <time>2026-07-14T06:17:48Z</time>
      </trkpt>
      <trkpt lat="44.83468" lon="6.85613">
        <ele>2487.55</ele>
        <time>2026-07-14T06:18:03Z</time>
      </trkpt>
      <trkpt lat="44.83466" lon="6.85609">
        <ele>2487.55</ele>
        <time>2026-07-14T06:18:19Z</time>
      </trkpt>
      <trkpt lat="44.83466" lon="6.85614">
        <ele>2488.51</ele>
        <time>2026-07-14T06:18:42Z</time>
      </trkpt>
      <trkpt lat="44.83463" lon="6.85619">
        <ele>2488.51</ele>
        <time>2026-07-14T06:19:00Z</time>
      </trkpt>
      <trkpt lat="44.83461" lon="6.85622">
        <ele>2488.51</ele>
        <time>2026-07-14T06:19:05Z</time>
      </trkpt>
      <trkpt lat="44.83452" lon="6.85636">
        <ele>2488.51</ele>
        <time>2026-07-14T06:19:20Z</time>
      </trkpt>
      <trkpt lat="44.8344" lon="6.85657">
        <ele>2488.99</ele>
        <time>2026-07-14T06:19:39Z</time>
      </trkpt>
      <trkpt lat="44.83436" lon="6.85673">
        <ele>2490.43</ele>
        <time>2026-07-14T06:19:53Z</time>
      </trkpt>
      <trkpt lat="44.83436" lon="6.85694">
        <ele>2491.39</ele>
        <time>2026-07-14T06:20:09Z</time>
      </trkpt>
      <trkpt lat="44.83435" lon="6.85703">
        <ele>2491.87</ele>
        <time>2026-07-14T06:20:15Z</time>
      </trkpt>
      <trkpt lat="44.83436" lon="6.8573">
        <ele>2492.84</ele>
        <time>2026-07-14T06:20:34Z</time>
      </trkpt>
      <trkpt lat="44.83435" lon="6.85738">
        <ele>2493.32</ele>
        <time>2026-07-14T06:20:41Z</time>
      </trkpt>
      <trkpt lat="44.8342" lon="6.85758">
        <ele>2494.28</ele>
        <time>2026-07-14T06:21:00Z</time>
      </trkpt>
      <trkpt lat="44.83412" lon="6.85782">
        <ele>2495.24</ele>
        <time>2026-07-14T06:21:18Z</time>
      </trkpt>
      <trkpt lat="44.83408" lon="6.85805">
        <ele>2497.16</ele>
        <time>2026-07-14T06:21:37Z</time>
      </trkpt>
      <trkpt lat="44.83407" lon="6.85822">
        <ele>2499.08</ele>
        <time>2026-07-14T06:21:54Z</time>
      </trkpt>
      <trkpt lat="44.83405" lon="6.85832">
        <ele>2500.53</ele>
        <time>2026-07-14T06:22:03Z</time>
      </trkpt>
      <trkpt lat="44.8341" lon="6.85852">
        <ele>2502.93</ele>
        <time>2026-07-14T06:22:22Z</time>
      </trkpt>
      <trkpt lat="44.83408" lon="6.85871">
        <ele>2504.37</ele>
        <time>2026-07-14T06:22:39Z</time>
      </trkpt>
      <trkpt lat="44.83402" lon="6.85886">
        <ele>2506.29</ele>
        <time>2026-07-14T06:22:55Z</time>
      </trkpt>
      <trkpt lat="44.83398" lon="6.85903">
        <ele>2508.22</ele>
        <time>2026-07-14T06:23:13Z</time>
      </trkpt>
      <trkpt lat="44.83396" lon="6.85914">
        <ele>2509.66</ele>
        <time>2026-07-14T06:23:28Z</time>
      </trkpt>
      <trkpt lat="44.83397" lon="6.85927">
        <ele>2512.54</ele>
        <time>2026-07-14T06:23:45Z</time>
      </trkpt>
      <trkpt lat="44.83394" lon="6.85933">
        <ele>2513.5</ele>
        <time>2026-07-14T06:23:51Z</time>
      </trkpt>
      <trkpt lat="44.83386" lon="6.85948">
        <ele>2515.43</ele>
        <time>2026-07-14T06:24:08Z</time>
      </trkpt>
      <trkpt lat="44.83383" lon="6.85963">
        <ele>2518.31</ele>
        <time>2026-07-14T06:24:26Z</time>
      </trkpt>
      <trkpt lat="44.83378" lon="6.85973">
        <ele>2520.23</ele>
        <time>2026-07-14T06:24:44Z</time>
      </trkpt>
      <trkpt lat="44.83375" lon="6.85984">
        <ele>2523.12</ele>
        <time>2026-07-14T06:25:01Z</time>
      </trkpt>
      <trkpt lat="44.83371" lon="6.85991">
        <ele>2524.56</ele>
        <time>2026-07-14T06:25:15Z</time>
      </trkpt>
      <trkpt lat="44.83362" lon="6.85996">
        <ele>2527.44</ele>
        <time>2026-07-14T06:25:32Z</time>
      </trkpt>
      <trkpt lat="44.83357" lon="6.86007">
        <ele>2530.33</ele>
        <time>2026-07-14T06:25:50Z</time>
      </trkpt>
      <trkpt lat="44.83351" lon="6.86014">
        <ele>2532.73</ele>
        <time>2026-07-14T06:26:07Z</time>
      </trkpt>
      <trkpt lat="44.83349" lon="6.86025">
        <ele>2536.1</ele>
        <time>2026-07-14T06:26:26Z</time>
      </trkpt>
      <trkpt lat="44.8335" lon="6.86032">
        <ele>2538.02</ele>
        <time>2026-07-14T06:26:43Z</time>
      </trkpt>
      <trkpt lat="44.83346" lon="6.86041">
        <ele>2540.42</ele>
        <time>2026-07-14T06:27:02Z</time>
      </trkpt>
      <trkpt lat="44.83349" lon="6.86043">
        <ele>2540.9</ele>
        <time>2026-07-14T06:27:26Z</time>
      </trkpt>
      <trkpt lat="44.83348" lon="6.86046">
        <ele>2541.38</ele>
        <time>2026-07-14T06:27:54Z</time>
      </trkpt>
      <trkpt lat="44.83342" lon="6.86058">
        <ele>2544.27</ele>
        <time>2026-07-14T06:28:09Z</time>
      </trkpt>
      <trkpt lat="44.83333" lon="6.86069">
        <ele>2546.67</ele>
        <time>2026-07-14T06:28:23Z</time>
      </trkpt>
      <trkpt lat="44.83335" lon="6.86077">
        <ele>2549.07</ele>
        <time>2026-07-14T06:28:39Z</time>
      </trkpt>
      <trkpt lat="44.83344" lon="6.86083">
        <ele>2552.44</ele>
        <time>2026-07-14T06:28:55Z</time>
      </trkpt>
      <trkpt lat="44.83345" lon="6.86092">
        <ele>2554.84</ele>
        <time>2026-07-14T06:29:12Z</time>
      </trkpt>
      <trkpt lat="44.83339" lon="6.86104">
        <ele>2557.24</ele>
        <time>2026-07-14T06:29:29Z</time>
      </trkpt>
      <trkpt lat="44.83338" lon="6.86113">
        <ele>2560.13</ele>
        <time>2026-07-14T06:29:44Z</time>
      </trkpt>
      <trkpt lat="44.83338" lon="6.86117">
        <ele>2561.09</ele>
        <time>2026-07-14T06:30:00Z</time>
      </trkpt>
      <trkpt lat="44.83336" lon="6.86128">
        <ele>2563.01</ele>
        <time>2026-07-14T06:30:13Z</time>
      </trkpt>
      <trkpt lat="44.83335" lon="6.86139">
        <ele>2564.93</ele>
        <time>2026-07-14T06:30:28Z</time>
      </trkpt>
      <trkpt lat="44.8334" lon="6.86148">
        <ele>2568.3</ele>
        <time>2026-07-14T06:30:47Z</time>
      </trkpt>
      <trkpt lat="44.83344" lon="6.86163">
        <ele>2571.18</ele>
        <time>2026-07-14T06:31:07Z</time>
      </trkpt>
      <trkpt lat="44.83346" lon="6.86174">
        <ele>2573.11</ele>
        <time>2026-07-14T06:31:23Z</time>
      </trkpt>
      <trkpt lat="44.83348" lon="6.86187">
        <ele>2575.03</ele>
        <time>2026-07-14T06:31:40Z</time>
      </trkpt>
      <trkpt lat="44.83348" lon="6.86202">
        <ele>2577.43</ele>
        <time>2026-07-14T06:31:57Z</time>
      </trkpt>
      <trkpt lat="44.83345" lon="6.8622">
        <ele>2579.35</ele>
        <time>2026-07-14T06:32:14Z</time>
      </trkpt>
      <trkpt lat="44.83342" lon="6.86238">
        <ele>2581.76</ele>
        <time>2026-07-14T06:32:31Z</time>
      </trkpt>
      <trkpt lat="44.83343" lon="6.86253">
        <ele>2583.2</ele>
        <time>2026-07-14T06:32:47Z</time>
      </trkpt>
      <trkpt lat="44.83334" lon="6.86264">
        <ele>2585.12</ele>
        <time>2026-07-14T06:33:04Z</time>
      </trkpt>
      <trkpt lat="44.83323" lon="6.86281">
        <ele>2587.53</ele>
        <time>2026-07-14T06:33:27Z</time>
      </trkpt>
      <trkpt lat="44.83316" lon="6.86289">
        <ele>2589.93</ele>
        <time>2026-07-14T06:33:44Z</time>
      </trkpt>
      <trkpt lat="44.83307" lon="6.86291">
        <ele>2591.85</ele>
        <time>2026-07-14T06:34:00Z</time>
      </trkpt>
      <trkpt lat="44.83299" lon="6.8629">
        <ele>2592.81</ele>
        <time>2026-07-14T06:34:14Z</time>
      </trkpt>
      <trkpt lat="44.83291" lon="6.86293">
        <ele>2594.74</ele>
        <time>2026-07-14T06:34:31Z</time>
      </trkpt>
      <trkpt lat="44.83286" lon="6.86295">
        <ele>2596.18</ele>
        <time>2026-07-14T06:34:48Z</time>
      </trkpt>
      <trkpt lat="44.83283" lon="6.86301">
        <ele>2597.62</ele>
        <time>2026-07-14T06:35:03Z</time>
      </trkpt>
      <trkpt lat="44.83273" lon="6.86297">
        <ele>2599.54</ele>
        <time>2026-07-14T06:35:21Z</time>
      </trkpt>
      <trkpt lat="44.83263" lon="6.86289">
        <ele>2601.95</ele>
        <time>2026-07-14T06:35:37Z</time>
      </trkpt>
      <trkpt lat="44.83256" lon="6.86291">
        <ele>2603.87</ele>
        <time>2026-07-14T06:35:51Z</time>
      </trkpt>
      <trkpt lat="44.83252" lon="6.86295">
        <ele>2606.27</ele>
        <time>2026-07-14T06:36:09Z</time>
      </trkpt>
      <trkpt lat="44.83254" lon="6.86294">
        <ele>2606.75</ele>
        <time>2026-07-14T06:36:32Z</time>
      </trkpt>
      <trkpt lat="44.83256" lon="6.86295">
        <ele>2607.23</ele>
        <time>2026-07-14T06:37:02Z</time>
      </trkpt>
      <trkpt lat="44.83254" lon="6.86296">
        <ele>2607.23</ele>
        <time>2026-07-14T06:37:17Z</time>
      </trkpt>
      <trkpt lat="44.83253" lon="6.86303">
        <ele>2607.71</ele>
        <time>2026-07-14T06:37:35Z</time>
      </trkpt>
      <trkpt lat="44.83256" lon="6.86316">
        <ele>2609.16</ele>
        <time>2026-07-14T06:37:59Z</time>
      </trkpt>
      <trkpt lat="44.83257" lon="6.86331">
        <ele>2612.04</ele>
        <time>2026-07-14T06:38:18Z</time>
      </trkpt>
      <trkpt lat="44.8326" lon="6.86343">
        <ele>2613.96</ele>
        <time>2026-07-14T06:38:34Z</time>
      </trkpt>
      <trkpt lat="44.83269" lon="6.86349">
        <ele>2616.37</ele>
        <time>2026-07-14T06:38:50Z</time>
      </trkpt>
      <trkpt lat="44.83277" lon="6.86357">
        <ele>2618.29</ele>
        <time>2026-07-14T06:39:09Z</time>
      </trkpt>
      <trkpt lat="44.8328" lon="6.86367">
        <ele>2620.69</ele>
        <time>2026-07-14T06:39:26Z</time>
      </trkpt>
      <trkpt lat="44.83276" lon="6.86375">
        <ele>2623.09</ele>
        <time>2026-07-14T06:39:45Z</time>
      </trkpt>
      <trkpt lat="44.83267" lon="6.86387">
        <ele>2625.98</ele>
        <time>2026-07-14T06:40:04Z</time>
      </trkpt>
      <trkpt lat="44.83266" lon="6.86399">
        <ele>2628.38</ele>
        <time>2026-07-14T06:40:23Z</time>
      </trkpt>
      <trkpt lat="44.83271" lon="6.86407">
        <ele>2630.79</ele>
        <time>2026-07-14T06:40:40Z</time>
      </trkpt>
      <trkpt lat="44.83269" lon="6.86418">
        <ele>2634.15</ele>
        <time>2026-07-14T06:40:58Z</time>
      </trkpt>
      <trkpt lat="44.83266" lon="6.8643">
        <ele>2636.55</ele>
        <time>2026-07-14T06:41:16Z</time>
      </trkpt>
      <trkpt lat="44.83263" lon="6.86439">
        <ele>2638.96</ele>
        <time>2026-07-14T06:41:31Z</time>
      </trkpt>
      <trkpt lat="44.83259" lon="6.86453">
        <ele>2641.36</ele>
        <time>2026-07-14T06:41:50Z</time>
      </trkpt>
      <trkpt lat="44.83257" lon="6.86466">
        <ele>2644.24</ele>
        <time>2026-07-14T06:42:07Z</time>
      </trkpt>
      <trkpt lat="44.83255" lon="6.86478">
        <ele>2647.61</ele>
        <time>2026-07-14T06:42:23Z</time>
      </trkpt>
      <trkpt lat="44.83259" lon="6.86487">
        <ele>2650.49</ele>
        <time>2026-07-14T06:42:41Z</time>
      </trkpt>
      <trkpt lat="44.83263" lon="6.86497">
        <ele>2652.42</ele>
        <time>2026-07-14T06:42:56Z</time>
      </trkpt>
      <trkpt lat="44.83263" lon="6.86497">
        <ele>2652.9</ele>
        <time>2026-07-14T06:43:12Z</time>
      </trkpt>
      <trkpt lat="44.83263" lon="6.86504">
        <ele>2653.38</ele>
        <time>2026-07-14T06:43:24Z</time>
      </trkpt>
      <trkpt lat="44.83265" lon="6.86503">
        <ele>2653.38</ele>
        <time>2026-07-14T06:43:45Z</time>
      </trkpt>
      <trkpt lat="44.83262" lon="6.86513">
        <ele>2654.34</ele>
        <time>2026-07-14T06:44:02Z</time>
      </trkpt>
      <trkpt lat="44.83257" lon="6.86522">
        <ele>2655.3</ele>
        <time>2026-07-14T06:44:20Z</time>
      </trkpt>
      <trkpt lat="44.83247" lon="6.86525">
        <ele>2656.26</ele>
        <time>2026-07-14T06:44:35Z</time>
      </trkpt>
      <trkpt lat="44.83236" lon="6.86529">
        <ele>2658.66</ele>
        <time>2026-07-14T06:44:52Z</time>
      </trkpt>
      <trkpt lat="44.83235" lon="6.86537">
        <ele>2659.62</ele>
        <time>2026-07-14T06:45:10Z</time>
      </trkpt>
      <trkpt lat="44.83234" lon="6.86533">
        <ele>2660.11</ele>
        <time>2026-07-14T06:45:36Z</time>
      </trkpt>
      <trkpt lat="44.83222" lon="6.86531">
        <ele>2662.51</ele>
        <time>2026-07-14T06:45:52Z</time>
      </trkpt>
      <trkpt lat="44.83213" lon="6.86543">
        <ele>2665.87</ele>
        <time>2026-07-14T06:46:10Z</time>
      </trkpt>
      <trkpt lat="44.83209" lon="6.8655">
        <ele>2668.28</ele>
        <time>2026-07-14T06:46:25Z</time>
      </trkpt>
      <trkpt lat="44.83203" lon="6.86558">
        <ele>2671.16</ele>
        <time>2026-07-14T06:46:41Z</time>
      </trkpt>
      <trkpt lat="44.83198" lon="6.86565">
        <ele>2673.56</ele>
        <time>2026-07-14T06:46:55Z</time>
      </trkpt>
      <trkpt lat="44.83196" lon="6.86573">
        <ele>2675.49</ele>
        <time>2026-07-14T06:47:09Z</time>
      </trkpt>
      <trkpt lat="44.83194" lon="6.86583">
        <ele>2678.37</ele>
        <time>2026-07-14T06:47:26Z</time>
      </trkpt>
      <trkpt lat="44.83187" lon="6.86585">
        <ele>2681.25</ele>
        <time>2026-07-14T06:47:43Z</time>
      </trkpt>
      <trkpt lat="44.83184" lon="6.86593">
        <ele>2683.18</ele>
        <time>2026-07-14T06:48:00Z</time>
      </trkpt>
      <trkpt lat="44.83178" lon="6.86596">
        <ele>2685.58</ele>
        <time>2026-07-14T06:48:17Z</time>
      </trkpt>
      <trkpt lat="44.83177" lon="6.86603">
        <ele>2687.98</ele>
        <time>2026-07-14T06:48:36Z</time>
      </trkpt>
      <trkpt lat="44.83174" lon="6.86606">
        <ele>2690.87</ele>
        <time>2026-07-14T06:48:55Z</time>
      </trkpt>
      <trkpt lat="44.83179" lon="6.86618">
        <ele>2692.31</ele>
        <time>2026-07-14T06:49:09Z</time>
      </trkpt>
      <trkpt lat="44.83174" lon="6.86617">
        <ele>2694.71</ele>
        <time>2026-07-14T06:49:26Z</time>
      </trkpt>
      <trkpt lat="44.8317" lon="6.86622">
        <ele>2697.12</ele>
        <time>2026-07-14T06:49:42Z</time>
      </trkpt>
      <trkpt lat="44.83169" lon="6.86628">
        <ele>2699.04</ele>
        <time>2026-07-14T06:49:57Z</time>
      </trkpt>
      <trkpt lat="44.83169" lon="6.86638">
        <ele>2701.44</ele>
        <time>2026-07-14T06:50:14Z</time>
      </trkpt>
      <trkpt lat="44.83165" lon="6.8664">
        <ele>2703.85</ele>
        <time>2026-07-14T06:50:31Z</time>
      </trkpt>
      <trkpt lat="44.83163" lon="6.86647">
        <ele>2705.77</ele>
        <time>2026-07-14T06:50:47Z</time>
      </trkpt>
      <trkpt lat="44.83162" lon="6.86655">
        <ele>2708.17</ele>
        <time>2026-07-14T06:51:06Z</time>
      </trkpt>
      <trkpt lat="44.83161" lon="6.86663">
        <ele>2710.57</ele>
        <time>2026-07-14T06:51:23Z</time>
      </trkpt>
      <trkpt lat="44.83157" lon="6.86661">
        <ele>2712.5</ele>
        <time>2026-07-14T06:51:40Z</time>
      </trkpt>
      <trkpt lat="44.83152" lon="6.86667">
        <ele>2714.9</ele>
        <time>2026-07-14T06:51:55Z</time>
      </trkpt>
      <trkpt lat="44.83146" lon="6.86666">
        <ele>2716.82</ele>
        <time>2026-07-14T06:52:11Z</time>
      </trkpt>
      <trkpt lat="44.8314" lon="6.86665">
        <ele>2719.71</ele>
        <time>2026-07-14T06:52:30Z</time>
      </trkpt>
      <trkpt lat="44.83139" lon="6.8667">
        <ele>2721.15</ele>
        <time>2026-07-14T06:52:50Z</time>
      </trkpt>
      <trkpt lat="44.83136" lon="6.86673">
        <ele>2723.07</ele>
        <time>2026-07-14T06:53:04Z</time>
      </trkpt>
      <trkpt lat="44.83133" lon="6.8668">
        <ele>2724.99</ele>
        <time>2026-07-14T06:53:21Z</time>
      </trkpt>
      <trkpt lat="44.83131" lon="6.86679">
        <ele>2725.96</ele>
        <time>2026-07-14T06:53:41Z</time>
      </trkpt>
      <trkpt lat="44.83131" lon="6.86682">
        <ele>2726.44</ele>
        <time>2026-07-14T06:54:06Z</time>
      </trkpt>
      <trkpt lat="44.83127" lon="6.86685">
        <ele>2728.36</ele>
        <time>2026-07-14T06:54:21Z</time>
      </trkpt>
      <trkpt lat="44.83122" lon="6.86683">
        <ele>2731.24</ele>
        <time>2026-07-14T06:54:39Z</time>
      </trkpt>
      <trkpt lat="44.83118" lon="6.86689">
        <ele>2734.13</ele>
        <time>2026-07-14T06:54:55Z</time>
      </trkpt>
      <trkpt lat="44.83119" lon="6.86696">
        <ele>2734.61</ele>
        <time>2026-07-14T06:55:16Z</time>
      </trkpt>
      <trkpt lat="44.83117" lon="6.86698">
        <ele>2735.57</ele>
        <time>2026-07-14T06:55:38Z</time>
      </trkpt>
      <trkpt lat="44.83111" lon="6.86693">
        <ele>2737.97</ele>
        <time>2026-07-14T06:55:56Z</time>
      </trkpt>
      <trkpt lat="44.83104" lon="6.86687">
        <ele>2741.34</ele>
        <time>2026-07-14T06:56:17Z</time>
      </trkpt>
      <trkpt lat="44.83103" lon="6.86699">
        <ele>2743.74</ele>
        <time>2026-07-14T06:56:33Z</time>
      </trkpt>
      <trkpt lat="44.83098" lon="6.86701">
        <ele>2745.66</ele>
        <time>2026-07-14T06:56:48Z</time>
      </trkpt>
      <trkpt lat="44.831" lon="6.86712">
        <ele>2747.1</ele>
        <time>2026-07-14T06:57:05Z</time>
      </trkpt>
      <trkpt lat="44.83098" lon="6.86718">
        <ele>2749.51</ele>
        <time>2026-07-14T06:57:24Z</time>
      </trkpt>
      <trkpt lat="44.83093" lon="6.86717">
        <ele>2751.91</ele>
        <time>2026-07-14T06:57:41Z</time>
      </trkpt>
      <trkpt lat="44.83087" lon="6.86716">
        <ele>2754.8</ele>
        <time>2026-07-14T06:57:58Z</time>
      </trkpt>
      <trkpt lat="44.83083" lon="6.86727">
        <ele>2757.68</ele>
        <time>2026-07-14T06:58:18Z</time>
      </trkpt>
      <trkpt lat="44.8308" lon="6.86734">
        <ele>2759.6</ele>
        <time>2026-07-14T06:58:36Z</time>
      </trkpt>
      <trkpt lat="44.83078" lon="6.86737">
        <ele>2761.52</ele>
        <time>2026-07-14T06:58:52Z</time>
      </trkpt>
      <trkpt lat="44.83074" lon="6.86743">
        <ele>2763.93</ele>
        <time>2026-07-14T06:59:09Z</time>
      </trkpt>
      <trkpt lat="44.83072" lon="6.86748">
        <ele>2766.33</ele>
        <time>2026-07-14T06:59:27Z</time>
      </trkpt>
      <trkpt lat="44.83071" lon="6.86757">
        <ele>2768.25</ele>
        <time>2026-07-14T06:59:43Z</time>
      </trkpt>
      <trkpt lat="44.8307" lon="6.86769">
        <ele>2771.14</ele>
        <time>2026-07-14T06:59:59Z</time>
      </trkpt>
      <trkpt lat="44.83071" lon="6.86779">
        <ele>2773.54</ele>
        <time>2026-07-14T07:00:19Z</time>
      </trkpt>
      <trkpt lat="44.83067" lon="6.86782">
        <ele>2776.42</ele>
        <time>2026-07-14T07:00:36Z</time>
      </trkpt>
      <trkpt lat="44.83066" lon="6.86788">
        <ele>2778.35</ele>
        <time>2026-07-14T07:00:53Z</time>
      </trkpt>
      <trkpt lat="44.83067" lon="6.86795">
        <ele>2780.27</ele>
        <time>2026-07-14T07:01:09Z</time>
      </trkpt>
      <trkpt lat="44.83068" lon="6.86799">
        <ele>2781.71</ele>
        <time>2026-07-14T07:01:27Z</time>
      </trkpt>
      <trkpt lat="44.83066" lon="6.86802">
        <ele>2783.63</ele>
        <time>2026-07-14T07:01:45Z</time>
      </trkpt>
      <trkpt lat="44.83066" lon="6.86808">
        <ele>2785.56</ele>
        <time>2026-07-14T07:01:59Z</time>
      </trkpt>
      <trkpt lat="44.83067" lon="6.86817">
        <ele>2788.44</ele>
        <time>2026-07-14T07:02:17Z</time>
      </trkpt>
      <trkpt lat="44.83067" lon="6.86822">
        <ele>2790.36</ele>
        <time>2026-07-14T07:02:33Z</time>
      </trkpt>
      <trkpt lat="44.83069" lon="6.8683">
        <ele>2792.77</ele>
        <time>2026-07-14T07:02:52Z</time>
      </trkpt>
      <trkpt lat="44.83069" lon="6.86835">
        <ele>2793.25</ele>
        <time>2026-07-14T07:03:09Z</time>
      </trkpt>
      <trkpt lat="44.8307" lon="6.86841">
        <ele>2794.69</ele>
        <time>2026-07-14T07:03:29Z</time>
      </trkpt>
      <trkpt lat="44.83069" lon="6.86841">
        <ele>2796.61</ele>
        <time>2026-07-14T07:03:46Z</time>
      </trkpt>
      <trkpt lat="44.83068" lon="6.86848">
        <ele>2799.02</ele>
        <time>2026-07-14T07:04:02Z</time>
      </trkpt>
      <trkpt lat="44.83068" lon="6.86855">
        <ele>2801.9</ele>
        <time>2026-07-14T07:04:20Z</time>
      </trkpt>
      <trkpt lat="44.83066" lon="6.86861">
        <ele>2803.82</ele>
        <time>2026-07-14T07:04:36Z</time>
      </trkpt>
      <trkpt lat="44.83067" lon="6.86869">
        <ele>2806.23</ele>
        <time>2026-07-14T07:04:54Z</time>
      </trkpt>
      <trkpt lat="44.83065" lon="6.86872">
        <ele>2806.71</ele>
        <time>2026-07-14T07:05:09Z</time>
      </trkpt>
      <trkpt lat="44.83067" lon="6.86874">
        <ele>2807.19</ele>
        <time>2026-07-14T07:05:45Z</time>
      </trkpt>
      <trkpt lat="44.83065" lon="6.86871">
        <ele>2807.67</ele>
        <time>2026-07-14T07:06:13Z</time>
      </trkpt>
      <trkpt lat="44.83066" lon="6.86877">
        <ele>2810.55</ele>
        <time>2026-07-14T07:06:29Z</time>
      </trkpt>
      <trkpt lat="44.83066" lon="6.86885">
        <ele>2813.44</ele>
        <time>2026-07-14T07:06:46Z</time>
      </trkpt>
      <trkpt lat="44.83066" lon="6.86893">
        <ele>2815.36</ele>
        <time>2026-07-14T07:07:02Z</time>
      </trkpt>
      <trkpt lat="44.83061" lon="6.8689">
        <ele>2817.28</ele>
        <time>2026-07-14T07:07:20Z</time>
      </trkpt>
      <trkpt lat="44.83056" lon="6.86887">
        <ele>2819.2</ele>
        <time>2026-07-14T07:07:35Z</time>
      </trkpt>
      <trkpt lat="44.83048" lon="6.86886">
        <ele>2822.09</ele>
        <time>2026-07-14T07:07:52Z</time>
      </trkpt>
      <trkpt lat="44.8304" lon="6.86881">
        <ele>2823.53</ele>
        <time>2026-07-14T07:08:10Z</time>
      </trkpt>
      <trkpt lat="44.83034" lon="6.8688">
        <ele>2825.45</ele>
        <time>2026-07-14T07:08:26Z</time>
      </trkpt>
      <trkpt lat="44.83034" lon="6.86876">
        <ele>2825.45</ele>
        <time>2026-07-14T07:08:45Z</time>
      </trkpt>
      <trkpt lat="44.83031" lon="6.86874">
        <ele>2825.93</ele>
        <time>2026-07-14T07:09:03Z</time>
      </trkpt>
      <trkpt lat="44.83021" lon="6.86855">
        <ele>2826.89</ele>
        <time>2026-07-14T07:09:20Z</time>
      </trkpt>
      <trkpt lat="44.83021" lon="6.86849">
        <ele>2826.89</ele>
        <time>2026-07-14T07:09:39Z</time>
      </trkpt>
      <trkpt lat="44.83023" lon="6.86851">
        <ele>2826.89</ele>
        <time>2026-07-14T07:09:47Z</time>
      </trkpt>
      <trkpt lat="44.83033" lon="6.86875">
        <ele>2827.37</ele>
        <time>2026-07-14T07:10:05Z</time>
      </trkpt>
      <trkpt lat="44.83033" lon="6.86879">
        <ele>2827.37</ele>
        <time>2026-07-14T07:10:21Z</time>
      </trkpt>
      <trkpt lat="44.83032" lon="6.86879">
        <ele>2827.37</ele>
        <time>2026-07-14T07:10:45Z</time>
      </trkpt>
      <trkpt lat="44.83033" lon="6.86878">
        <ele>2826.41</ele>
        <time>2026-07-14T07:11:20Z</time>
      </trkpt>
      <trkpt lat="44.83033" lon="6.86875">
        <ele>2826.89</ele>
        <time>2026-07-14T07:11:52Z</time>
      </trkpt>
      <trkpt lat="44.83035" lon="6.86878">
        <ele>2826.89</ele>
        <time>2026-07-14T07:12:25Z</time>
      </trkpt>
      <trkpt lat="44.83038" lon="6.86885">
        <ele>2826.89</ele>
        <time>2026-07-14T07:12:44Z</time>
      </trkpt>
      <trkpt lat="44.83039" lon="6.86885">
        <ele>2826.89</ele>
        <time>2026-07-14T07:12:59Z</time>
      </trkpt>
      <trkpt lat="44.83037" lon="6.86884">
        <ele>2827.37</ele>
        <time>2026-07-14T07:13:35Z</time>
      </trkpt>
      <trkpt lat="44.83037" lon="6.86885">
        <ele>2827.37</ele>
        <time>2026-07-14T07:14:03Z</time>
      </trkpt>
      <trkpt lat="44.83037" lon="6.86884">
        <ele>2827.37</ele>
        <time>2026-07-14T07:14:35Z</time>
      </trkpt>
      <trkpt lat="44.83038" lon="6.86885">
        <ele>2827.37</ele>
        <time>2026-07-14T07:15:09Z</time>
      </trkpt>
      <trkpt lat="44.83038" lon="6.86885">
        <ele>2827.37</ele>
        <time>2026-07-14T07:15:40Z</time>
      </trkpt>
      <trkpt lat="44.83037" lon="6.86885">
        <ele>2827.85</ele>
        <time>2026-07-14T07:16:06Z</time>
      </trkpt>
      <trkpt lat="44.83038" lon="6.86884">
        <ele>2827.85</ele>
        <time>2026-07-14T07:16:39Z</time>
      </trkpt>
      <trkpt lat="44.83037" lon="6.86885">
        <ele>2827.85</ele>
        <time>2026-07-14T07:17:16Z</time>
      </trkpt>
      <trkpt lat="44.83038" lon="6.86886">
        <ele>2828.34</ele>
        <time>2026-07-14T07:17:48Z</time>
      </trkpt>
      <trkpt lat="44.83037" lon="6.86884">
        <ele>2828.34</ele>
        <time>2026-07-14T07:18:24Z</time>
      </trkpt>
      <trkpt lat="44.83037" lon="6.86885">
        <ele>2828.34</ele>
        <time>2026-07-14T07:19:07Z</time>
      </trkpt>
      <trkpt lat="44.83038" lon="6.86885">
        <ele>2828.34</ele>
        <time>2026-07-14T07:19:36Z</time>
      </trkpt>
      <trkpt lat="44.83037" lon="6.86884">
        <ele>2828.82</ele>
        <time>2026-07-14T07:20:11Z</time>
      </trkpt>
      <trkpt lat="44.83036" lon="6.86885">
        <ele>2828.82</ele>
        <time>2026-07-14T07:20:47Z</time>
      </trkpt>
      <trkpt lat="44.83038" lon="6.86886">
        <ele>2828.82</ele>
        <time>2026-07-14T07:21:21Z</time>
      </trkpt>
      <trkpt lat="44.83037" lon="6.86884">
        <ele>2829.3</ele>
        <time>2026-07-14T07:22:00Z</time>
      </trkpt>
      <trkpt lat="44.83037" lon="6.86883">
        <ele>2829.3</ele>
        <time>2026-07-14T07:22:27Z</time>
      </trkpt>
      <trkpt lat="44.83037" lon="6.86884">
        <ele>2829.3</ele>
        <time>2026-07-14T07:22:59Z</time>
      </trkpt>
      <trkpt lat="44.83039" lon="6.86883">
        <ele>2829.3</ele>
        <time>2026-07-14T07:23:28Z</time>
      </trkpt>
      <trkpt lat="44.83039" lon="6.86884">
        <ele>2829.3</ele>
        <time>2026-07-14T07:24:00Z</time>
      </trkpt>
      <trkpt lat="44.8304" lon="6.86885">
        <ele>2830.74</ele>
        <time>2026-07-14T07:24:20Z</time>
      </trkpt>
      <trkpt lat="44.8304" lon="6.86887">
        <ele>2830.74</ele>
        <time>2026-07-14T07:24:43Z</time>
      </trkpt>
      <trkpt lat="44.83037" lon="6.86887">
        <ele>2830.74</ele>
        <time>2026-07-14T07:25:12Z</time>
      </trkpt>
      <trkpt lat="44.83037" lon="6.86885">
        <ele>2830.26</ele>
        <time>2026-07-14T07:25:31Z</time>
      </trkpt>
      <trkpt lat="44.83041" lon="6.86899">
        <ele>2831.22</ele>
        <time>2026-07-14T07:25:46Z</time>
      </trkpt>
      <trkpt lat="44.83042" lon="6.86907">
        <ele>2831.7</ele>
        <time>2026-07-14T07:26:06Z</time>
      </trkpt>
      <trkpt lat="44.83048" lon="6.86915">
        <ele>2833.62</ele>
        <time>2026-07-14T07:26:21Z</time>
      </trkpt>
      <trkpt lat="44.83054" lon="6.86923">
        <ele>2835.06</ele>
        <time>2026-07-14T07:26:36Z</time>
      </trkpt>
      <trkpt lat="44.83063" lon="6.86938">
        <ele>2835.55</ele>
        <time>2026-07-14T07:26:52Z</time>
      </trkpt>
      <trkpt lat="44.83065" lon="6.86951">
        <ele>2838.43</ele>
        <time>2026-07-14T07:27:09Z</time>
      </trkpt>
      <trkpt lat="44.83067" lon="6.86961">
        <ele>2841.79</ele>
        <time>2026-07-14T07:27:25Z</time>
      </trkpt>
      <trkpt lat="44.83067" lon="6.86971">
        <ele>2845.16</ele>
        <time>2026-07-14T07:27:45Z</time>
      </trkpt>
      <trkpt lat="44.83069" lon="6.86979">
        <ele>2847.08</ele>
        <time>2026-07-14T07:27:59Z</time>
      </trkpt>
      <trkpt lat="44.83071" lon="6.86989">
        <ele>2849</ele>
        <time>2026-07-14T07:28:14Z</time>
      </trkpt>
      <trkpt lat="44.83075" lon="6.86999">
        <ele>2851.89</ele>
        <time>2026-07-14T07:28:32Z</time>
      </trkpt>
      <trkpt lat="44.83076" lon="6.86999">
        <ele>2852.37</ele>
        <time>2026-07-14T07:29:02Z</time>
      </trkpt>
      <trkpt lat="44.83074" lon="6.87003">
        <ele>2852.85</ele>
        <time>2026-07-14T07:29:30Z</time>
      </trkpt>
      <trkpt lat="44.83071" lon="6.87005">
        <ele>2855.73</ele>
        <time>2026-07-14T07:29:47Z</time>
      </trkpt>
      <trkpt lat="44.83067" lon="6.87008">
        <ele>2858.14</ele>
        <time>2026-07-14T07:30:05Z</time>
      </trkpt>
      <trkpt lat="44.83066" lon="6.87011">
        <ele>2858.14</ele>
        <time>2026-07-14T07:30:25Z</time>
      </trkpt>
      <trkpt lat="44.83071" lon="6.8702">
        <ele>2861.5</ele>
        <time>2026-07-14T07:30:41Z</time>
      </trkpt>
      <trkpt lat="44.8307" lon="6.87025">
        <ele>2863.42</ele>
        <time>2026-07-14T07:30:58Z</time>
      </trkpt>
      <trkpt lat="44.83072" lon="6.87034">
        <ele>2866.31</ele>
        <time>2026-07-14T07:31:16Z</time>
      </trkpt>
      <trkpt lat="44.83074" lon="6.87038">
        <ele>2867.27</ele>
        <time>2026-07-14T07:31:32Z</time>
      </trkpt>
      <trkpt lat="44.83077" lon="6.87043">
        <ele>2867.27</ele>
        <time>2026-07-14T07:31:48Z</time>
      </trkpt>
      <trkpt lat="44.83081" lon="6.8705">
        <ele>2868.71</ele>
        <time>2026-07-14T07:32:05Z</time>
      </trkpt>
      <trkpt lat="44.83083" lon="6.87055">
        <ele>2869.19</ele>
        <time>2026-07-14T07:32:25Z</time>
      </trkpt>
      <trkpt lat="44.83086" lon="6.87058">
        <ele>2870.15</ele>
        <time>2026-07-14T07:32:41Z</time>
      </trkpt>
      <trkpt lat="44.83091" lon="6.87063">
        <ele>2870.15</ele>
        <time>2026-07-14T07:32:58Z</time>
      </trkpt>
      <trkpt lat="44.83096" lon="6.87066">
        <ele>2870.63</ele>
        <time>2026-07-14T07:33:13Z</time>
      </trkpt>
      <trkpt lat="44.831" lon="6.87076">
        <ele>2873.04</ele>
        <time>2026-07-14T07:33:28Z</time>
      </trkpt>
      <trkpt lat="44.83098" lon="6.87078">
        <ele>2874.48</ele>
        <time>2026-07-14T07:33:44Z</time>
      </trkpt>
      <trkpt lat="44.83099" lon="6.87083">
        <ele>2875.44</ele>
        <time>2026-07-14T07:34:14Z</time>
      </trkpt>
      <trkpt lat="44.83098" lon="6.87085">
        <ele>2878.32</ele>
        <time>2026-07-14T07:34:33Z</time>
      </trkpt>
      <trkpt lat="44.83099" lon="6.87091">
        <ele>2879.29</ele>
        <time>2026-07-14T07:34:51Z</time>
      </trkpt>
      <trkpt lat="44.83098" lon="6.87092">
        <ele>2881.69</ele>
        <time>2026-07-14T07:35:05Z</time>
      </trkpt>
      <trkpt lat="44.83099" lon="6.87101">
        <ele>2883.61</ele>
        <time>2026-07-14T07:35:20Z</time>
      </trkpt>
      <trkpt lat="44.83101" lon="6.87109">
        <ele>2885.53</ele>
        <time>2026-07-14T07:35:42Z</time>
      </trkpt>
      <trkpt lat="44.83104" lon="6.87112">
        <ele>2887.46</ele>
        <time>2026-07-14T07:35:57Z</time>
      </trkpt>
      <trkpt lat="44.83111" lon="6.87121">
        <ele>2888.42</ele>
        <time>2026-07-14T07:36:13Z</time>
      </trkpt>
      <trkpt lat="44.83109" lon="6.87124">
        <ele>2889.38</ele>
        <time>2026-07-14T07:36:33Z</time>
      </trkpt>
      <trkpt lat="44.83105" lon="6.87124">
        <ele>2891.78</ele>
        <time>2026-07-14T07:36:58Z</time>
      </trkpt>
      <trkpt lat="44.83094" lon="6.87118">
        <ele>2893.71</ele>
        <time>2026-07-14T07:37:17Z</time>
      </trkpt>
      <trkpt lat="44.83094" lon="6.87124">
        <ele>2896.59</ele>
        <time>2026-07-14T07:37:31Z</time>
      </trkpt>
      <trkpt lat="44.83084" lon="6.87127">
        <ele>2898.03</ele>
        <time>2026-07-14T07:37:46Z</time>
      </trkpt>
      <trkpt lat="44.8308" lon="6.87128">
        <ele>2898.03</ele>
        <time>2026-07-14T07:38:02Z</time>
      </trkpt>
      <trkpt lat="44.8308" lon="6.87128">
        <ele>2898.03</ele>
        <time>2026-07-14T07:38:05Z</time>
      </trkpt>
      <trkpt lat="44.83089" lon="6.87141">
        <ele>2900.92</ele>
        <time>2026-07-14T07:38:21Z</time>
      </trkpt>
      <trkpt lat="44.83091" lon="6.87141">
        <ele>2901.4</ele>
        <time>2026-07-14T07:38:37Z</time>
      </trkpt>
      <trkpt lat="44.83091" lon="6.8714">
        <ele>2901.88</ele>
        <time>2026-07-14T07:38:54Z</time>
      </trkpt>
      <trkpt lat="44.83091" lon="6.87141">
        <ele>2901.4</ele>
        <time>2026-07-14T07:39:21Z</time>
      </trkpt>
      <trkpt lat="44.83092" lon="6.87138">
        <ele>2901.4</ele>
        <time>2026-07-14T07:39:39Z</time>
      </trkpt>
      <trkpt lat="44.8309" lon="6.87136">
        <ele>2901.4</ele>
        <time>2026-07-14T07:39:59Z</time>
      </trkpt>
      <trkpt lat="44.83088" lon="6.87139">
        <ele>2901.4</ele>
        <time>2026-07-14T07:40:16Z</time>
      </trkpt>
      <trkpt lat="44.83088" lon="6.87139">
        <ele>2901.4</ele>
        <time>2026-07-14T07:40:37Z</time>
      </trkpt>
      <trkpt lat="44.83091" lon="6.8714">
        <ele>2901.4</ele>
        <time>2026-07-14T07:40:53Z</time>
      </trkpt>
      <trkpt lat="44.83091" lon="6.8714">
        <ele>2901.4</ele>
        <time>2026-07-14T07:41:14Z</time>
      </trkpt>
      <trkpt lat="44.83091" lon="6.87141">
        <ele>2901.4</ele>
        <time>2026-07-14T07:41:36Z</time>
      </trkpt>
      <trkpt lat="44.83091" lon="6.87141">
        <ele>2901.4</ele>
        <time>2026-07-14T07:41:55Z</time>
      </trkpt>
      <trkpt lat="44.83086" lon="6.87139">
        <ele>2901.4</ele>
        <time>2026-07-14T07:42:10Z</time>
      </trkpt>
      <trkpt lat="44.83085" lon="6.87139">
        <ele>2901.88</ele>
        <time>2026-07-14T07:42:29Z</time>
      </trkpt>
      <trkpt lat="44.83087" lon="6.87144">
        <ele>2900.92</ele>
        <time>2026-07-14T07:42:53Z</time>
      </trkpt>
      <trkpt lat="44.83088" lon="6.8715">
        <ele>2899.47</ele>
        <time>2026-07-14T07:43:11Z</time>
      </trkpt>
      <trkpt lat="44.83084" lon="6.87161">
        <ele>2896.11</ele>
        <time>2026-07-14T07:43:28Z</time>
      </trkpt>
      <trkpt lat="44.83078" lon="6.87166">
        <ele>2892.74</ele>
        <time>2026-07-14T07:43:40Z</time>
      </trkpt>
      <trkpt lat="44.83073" lon="6.87172">
        <ele>2889.86</ele>
        <time>2026-07-14T07:43:53Z</time>
      </trkpt>
      <trkpt lat="44.83062" lon="6.87177">
        <ele>2886.02</ele>
        <time>2026-07-14T07:44:07Z</time>
      </trkpt>
      <trkpt lat="44.83055" lon="6.87183">
        <ele>2884.57</ele>
        <time>2026-07-14T07:44:23Z</time>
      </trkpt>
      <trkpt lat="44.83053" lon="6.87182">
        <ele>2884.09</ele>
        <time>2026-07-14T07:44:52Z</time>
      </trkpt>
      <trkpt lat="44.83048" lon="6.87185">
        <ele>2881.21</ele>
        <time>2026-07-14T07:45:06Z</time>
      </trkpt>
      <trkpt lat="44.83041" lon="6.8719">
        <ele>2878.32</ele>
        <time>2026-07-14T07:45:19Z</time>
      </trkpt>
      <trkpt lat="44.83033" lon="6.87196">
        <ele>2874.96</ele>
        <time>2026-07-14T07:45:34Z</time>
      </trkpt>
      <trkpt lat="44.83028" lon="6.872">
        <ele>2871.6</ele>
        <time>2026-07-14T07:45:50Z</time>
      </trkpt>
      <trkpt lat="44.83018" lon="6.87198">
        <ele>2868.71</ele>
        <time>2026-07-14T07:46:06Z</time>
      </trkpt>
      <trkpt lat="44.83008" lon="6.87197">
        <ele>2866.31</ele>
        <time>2026-07-14T07:46:22Z</time>
      </trkpt>
      <trkpt lat="44.83004" lon="6.872">
        <ele>2863.42</ele>
        <time>2026-07-14T07:46:33Z</time>
      </trkpt>
      <trkpt lat="44.82998" lon="6.872">
        <ele>2860.06</ele>
        <time>2026-07-14T07:46:46Z</time>
      </trkpt>
      <trkpt lat="44.82991" lon="6.87198">
        <ele>2858.14</ele>
        <time>2026-07-14T07:47:02Z</time>
      </trkpt>
      <trkpt lat="44.82981" lon="6.872">
        <ele>2855.25</ele>
        <time>2026-07-14T07:47:17Z</time>
      </trkpt>
      <trkpt lat="44.82974" lon="6.87201">
        <ele>2852.37</ele>
        <time>2026-07-14T07:47:35Z</time>
      </trkpt>
      <trkpt lat="44.82973" lon="6.87201">
        <ele>2851.89</ele>
        <time>2026-07-14T07:47:55Z</time>
      </trkpt>
      <trkpt lat="44.82973" lon="6.872">
        <ele>2851.41</ele>
        <time>2026-07-14T07:48:35Z</time>
      </trkpt>
      <trkpt lat="44.82974" lon="6.87201">
        <ele>2851.89</ele>
        <time>2026-07-14T07:49:18Z</time>
      </trkpt>
      <trkpt lat="44.82968" lon="6.87202">
        <ele>2849.97</ele>
        <time>2026-07-14T07:49:45Z</time>
      </trkpt>
      <trkpt lat="44.8296" lon="6.87199">
        <ele>2847.08</ele>
        <time>2026-07-14T07:50:02Z</time>
      </trkpt>
      <trkpt lat="44.82954" lon="6.87202">
        <ele>2844.2</ele>
        <time>2026-07-14T07:50:18Z</time>
      </trkpt>
      <trkpt lat="44.82947" lon="6.87204">
        <ele>2841.79</ele>
        <time>2026-07-14T07:50:33Z</time>
      </trkpt>
      <trkpt lat="44.82936" lon="6.87207">
        <ele>2838.91</ele>
        <time>2026-07-14T07:50:49Z</time>
      </trkpt>
      <trkpt lat="44.82927" lon="6.87211">
        <ele>2835.06</ele>
        <time>2026-07-14T07:51:02Z</time>
      </trkpt>
      <trkpt lat="44.82925" lon="6.87211">
        <ele>2834.58</ele>
        <time>2026-07-14T07:51:04Z</time>
      </trkpt>
      <trkpt lat="44.82913" lon="6.87211">
        <ele>2832.66</ele>
        <time>2026-07-14T07:51:21Z</time>
      </trkpt>
      <trkpt lat="44.82912" lon="6.87211">
        <ele>2832.66</ele>
        <time>2026-07-14T07:51:26Z</time>
      </trkpt>
      <trkpt lat="44.82898" lon="6.8721">
        <ele>2830.26</ele>
        <time>2026-07-14T07:51:46Z</time>
      </trkpt>
      <trkpt lat="44.829" lon="6.87209">
        <ele>2830.26</ele>
        <time>2026-07-14T07:52:26Z</time>
      </trkpt>
      <trkpt lat="44.82899" lon="6.87208">
        <ele>2831.7</ele>
        <time>2026-07-14T07:52:40Z</time>
      </trkpt>
      <trkpt lat="44.829" lon="6.8721">
        <ele>2830.74</ele>
        <time>2026-07-14T07:53:14Z</time>
      </trkpt>
      <trkpt lat="44.82894" lon="6.8721">
        <ele>2828.82</ele>
        <time>2026-07-14T07:53:25Z</time>
      </trkpt>
      <trkpt lat="44.82877" lon="6.87211">
        <ele>2825.45</ele>
        <time>2026-07-14T07:53:39Z</time>
      </trkpt>
      <trkpt lat="44.8286" lon="6.87209">
        <ele>2822.09</ele>
        <time>2026-07-14T07:53:53Z</time>
      </trkpt>
      <trkpt lat="44.82847" lon="6.8721">
        <ele>2818.72</ele>
        <time>2026-07-14T07:54:03Z</time>
      </trkpt>
      <trkpt lat="44.82846" lon="6.8721">
        <ele>2818.72</ele>
        <time>2026-07-14T07:54:04Z</time>
      </trkpt>
      <trkpt lat="44.82831" lon="6.87206">
        <ele>2815.36</ele>
        <time>2026-07-14T07:54:17Z</time>
      </trkpt>
      <trkpt lat="44.8282" lon="6.87208">
        <ele>2812.47</ele>
        <time>2026-07-14T07:54:30Z</time>
      </trkpt>
      <trkpt lat="44.82811" lon="6.8721">
        <ele>2809.11</ele>
        <time>2026-07-14T07:54:40Z</time>
      </trkpt>
      <trkpt lat="44.82795" lon="6.87207">
        <ele>2806.23</ele>
        <time>2026-07-14T07:54:59Z</time>
      </trkpt>
      <trkpt lat="44.82788" lon="6.8721">
        <ele>2804.3</ele>
        <time>2026-07-14T07:55:16Z</time>
      </trkpt>
      <trkpt lat="44.82782" lon="6.87208">
        <ele>2802.86</ele>
        <time>2026-07-14T07:55:32Z</time>
      </trkpt>
      <trkpt lat="44.82782" lon="6.87213">
        <ele>2802.38</ele>
        <time>2026-07-14T07:56:00Z</time>
      </trkpt>
      <trkpt lat="44.82773" lon="6.87212">
        <ele>2799.5</ele>
        <time>2026-07-14T07:56:13Z</time>
      </trkpt>
      <trkpt lat="44.82768" lon="6.87214">
        <ele>2797.57</ele>
        <time>2026-07-14T07:56:21Z</time>
      </trkpt>
      <trkpt lat="44.82757" lon="6.87218">
        <ele>2793.73</ele>
        <time>2026-07-14T07:56:35Z</time>
      </trkpt>
      <trkpt lat="44.82746" lon="6.87219">
        <ele>2790.84</ele>
        <time>2026-07-14T07:56:48Z</time>
      </trkpt>
      <trkpt lat="44.82738" lon="6.87221">
        <ele>2787.96</ele>
        <time>2026-07-14T07:57:04Z</time>
      </trkpt>
      <trkpt lat="44.8273" lon="6.87224">
        <ele>2784.6</ele>
        <time>2026-07-14T07:57:16Z</time>
      </trkpt>
      <trkpt lat="44.82727" lon="6.87225">
        <ele>2784.12</ele>
        <time>2026-07-14T07:57:19Z</time>
      </trkpt>
      <trkpt lat="44.82712" lon="6.8722">
        <ele>2780.75</ele>
        <time>2026-07-14T07:57:35Z</time>
      </trkpt>
      <trkpt lat="44.82706" lon="6.87221">
        <ele>2778.35</ele>
        <time>2026-07-14T07:57:50Z</time>
      </trkpt>
      <trkpt lat="44.82701" lon="6.87223">
        <ele>2774.98</ele>
        <time>2026-07-14T07:58:00Z</time>
      </trkpt>
      <trkpt lat="44.82693" lon="6.87228">
        <ele>2772.1</ele>
        <time>2026-07-14T07:58:15Z</time>
      </trkpt>
      <trkpt lat="44.82685" lon="6.87228">
        <ele>2769.7</ele>
        <time>2026-07-14T07:58:31Z</time>
      </trkpt>
      <trkpt lat="44.82677" lon="6.87228">
        <ele>2766.81</ele>
        <time>2026-07-14T07:58:46Z</time>
      </trkpt>
      <trkpt lat="44.8267" lon="6.87228">
        <ele>2763.45</ele>
        <time>2026-07-14T07:59:00Z</time>
      </trkpt>
      <trkpt lat="44.82661" lon="6.8723">
        <ele>2760.56</ele>
        <time>2026-07-14T07:59:16Z</time>
      </trkpt>
      <trkpt lat="44.82651" lon="6.87229">
        <ele>2757.2</ele>
        <time>2026-07-14T07:59:27Z</time>
      </trkpt>
      <trkpt lat="44.82649" lon="6.8723">
        <ele>2757.2</ele>
        <time>2026-07-14T07:59:29Z</time>
      </trkpt>
      <trkpt lat="44.82645" lon="6.87228">
        <ele>2756.24</ele>
        <time>2026-07-14T07:59:33Z</time>
      </trkpt>
      <trkpt lat="44.82638" lon="6.87225">
        <ele>2755.28</ele>
        <time>2026-07-14T07:59:41Z</time>
      </trkpt>
      <trkpt lat="44.8262" lon="6.87219">
        <ele>2751.43</ele>
        <time>2026-07-14T08:00:00Z</time>
      </trkpt>
      <trkpt lat="44.82605" lon="6.87217">
        <ele>2748.07</ele>
        <time>2026-07-14T08:00:17Z</time>
      </trkpt>
      <trkpt lat="44.82587" lon="6.87217">
        <ele>2746.14</ele>
        <time>2026-07-14T08:00:37Z</time>
      </trkpt>
      <trkpt lat="44.82569" lon="6.87215">
        <ele>2743.74</ele>
        <time>2026-07-14T08:00:55Z</time>
      </trkpt>
      <trkpt lat="44.82552" lon="6.87206">
        <ele>2742.78</ele>
        <time>2026-07-14T08:01:12Z</time>
      </trkpt>
      <trkpt lat="44.82541" lon="6.87205">
        <ele>2739.89</ele>
        <time>2026-07-14T08:01:30Z</time>
      </trkpt>
      <trkpt lat="44.82534" lon="6.87203">
        <ele>2737.49</ele>
        <time>2026-07-14T08:01:44Z</time>
      </trkpt>
      <trkpt lat="44.82525" lon="6.87203">
        <ele>2734.61</ele>
        <time>2026-07-14T08:02:01Z</time>
      </trkpt>
      <trkpt lat="44.82517" lon="6.87202">
        <ele>2732.2</ele>
        <time>2026-07-14T08:02:16Z</time>
      </trkpt>
      <trkpt lat="44.82514" lon="6.87197">
        <ele>2731.24</ele>
        <time>2026-07-14T08:02:33Z</time>
      </trkpt>
      <trkpt lat="44.82511" lon="6.87202">
        <ele>2730.28</ele>
        <time>2026-07-14T08:03:01Z</time>
      </trkpt>
      <trkpt lat="44.82511" lon="6.87213">
        <ele>2727.4</ele>
        <time>2026-07-14T08:03:15Z</time>
      </trkpt>
      <trkpt lat="44.82506" lon="6.87216">
        <ele>2724.03</ele>
        <time>2026-07-14T08:03:28Z</time>
      </trkpt>
      <trkpt lat="44.82499" lon="6.87215">
        <ele>2721.15</ele>
        <time>2026-07-14T08:03:47Z</time>
      </trkpt>
      <trkpt lat="44.82496" lon="6.8722">
        <ele>2718.27</ele>
        <time>2026-07-14T08:04:02Z</time>
      </trkpt>
      <trkpt lat="44.8249" lon="6.87227">
        <ele>2715.38</ele>
        <time>2026-07-14T08:04:17Z</time>
      </trkpt>
      <trkpt lat="44.82488" lon="6.87234">
        <ele>2712.98</ele>
        <time>2026-07-14T08:04:29Z</time>
      </trkpt>
      <trkpt lat="44.82487" lon="6.87234">
        <ele>2712.02</ele>
        <time>2026-07-14T08:04:44Z</time>
      </trkpt>
      <trkpt lat="44.82484" lon="6.8724">
        <ele>2710.09</ele>
        <time>2026-07-14T08:05:00Z</time>
      </trkpt>
      <trkpt lat="44.8248" lon="6.87242">
        <ele>2708.17</ele>
        <time>2026-07-14T08:05:20Z</time>
      </trkpt>
      <trkpt lat="44.82476" lon="6.87239">
        <ele>2706.25</ele>
        <time>2026-07-14T08:05:35Z</time>
      </trkpt>
      <trkpt lat="44.82476" lon="6.87254">
        <ele>2703.36</ele>
        <time>2026-07-14T08:05:47Z</time>
      </trkpt>
      <trkpt lat="44.8247" lon="6.87247">
        <ele>2700</ele>
        <time>2026-07-14T08:05:59Z</time>
      </trkpt>
      <trkpt lat="44.82467" lon="6.8726">
        <ele>2698.08</ele>
        <time>2026-07-14T08:06:12Z</time>
      </trkpt>
      <trkpt lat="44.82463" lon="6.87259">
        <ele>2696.15</ele>
        <time>2026-07-14T08:06:30Z</time>
      </trkpt>
      <trkpt lat="44.82458" lon="6.87254">
        <ele>2694.23</ele>
        <time>2026-07-14T08:06:40Z</time>
      </trkpt>
      <trkpt lat="44.82451" lon="6.87246">
        <ele>2690.39</ele>
        <time>2026-07-14T08:06:55Z</time>
      </trkpt>
      <trkpt lat="44.82444" lon="6.87239">
        <ele>2687.5</ele>
        <time>2026-07-14T08:07:12Z</time>
      </trkpt>
      <trkpt lat="44.82438" lon="6.87231">
        <ele>2685.1</ele>
        <time>2026-07-14T08:07:28Z</time>
      </trkpt>
      <trkpt lat="44.82436" lon="6.87229">
        <ele>2683.18</ele>
        <time>2026-07-14T08:07:43Z</time>
      </trkpt>
      <trkpt lat="44.82433" lon="6.87233">
        <ele>2681.73</ele>
        <time>2026-07-14T08:08:05Z</time>
      </trkpt>
      <trkpt lat="44.8243" lon="6.8723">
        <ele>2680.77</ele>
        <time>2026-07-14T08:08:23Z</time>
      </trkpt>
      <trkpt lat="44.8243" lon="6.8723">
        <ele>2680.29</ele>
        <time>2026-07-14T08:08:48Z</time>
      </trkpt>
      <trkpt lat="44.82431" lon="6.87229">
        <ele>2679.81</ele>
        <time>2026-07-14T08:09:10Z</time>
      </trkpt>
      <trkpt lat="44.82429" lon="6.87227">
        <ele>2679.81</ele>
        <time>2026-07-14T08:09:29Z</time>
      </trkpt>
      <trkpt lat="44.82428" lon="6.8723">
        <ele>2678.85</ele>
        <time>2026-07-14T08:09:55Z</time>
      </trkpt>
      <trkpt lat="44.82423" lon="6.87226">
        <ele>2676.45</ele>
        <time>2026-07-14T08:10:09Z</time>
      </trkpt>
      <trkpt lat="44.82417" lon="6.87226">
        <ele>2673.56</ele>
        <time>2026-07-14T08:10:24Z</time>
      </trkpt>
      <trkpt lat="44.82409" lon="6.8722">
        <ele>2670.68</ele>
        <time>2026-07-14T08:10:39Z</time>
      </trkpt>
      <trkpt lat="44.82402" lon="6.87218">
        <ele>2667.8</ele>
        <time>2026-07-14T08:10:55Z</time>
      </trkpt>
      <trkpt lat="44.82399" lon="6.87219">
        <ele>2665.39</ele>
        <time>2026-07-14T08:11:11Z</time>
      </trkpt>
      <trkpt lat="44.8239" lon="6.8722">
        <ele>2662.03</ele>
        <time>2026-07-14T08:11:29Z</time>
      </trkpt>
      <trkpt lat="44.82385" lon="6.87218">
        <ele>2659.14</ele>
        <time>2026-07-14T08:11:45Z</time>
      </trkpt>
      <trkpt lat="44.82379" lon="6.8722">
        <ele>2656.26</ele>
        <time>2026-07-14T08:12:00Z</time>
      </trkpt>
      <trkpt lat="44.82366" lon="6.87215">
        <ele>2653.38</ele>
        <time>2026-07-14T08:12:18Z</time>
      </trkpt>
      <trkpt lat="44.82371" lon="6.87215">
        <ele>2652.42</ele>
        <time>2026-07-14T08:12:34Z</time>
      </trkpt>
      <trkpt lat="44.82367" lon="6.87215">
        <ele>2651.45</ele>
        <time>2026-07-14T08:13:03Z</time>
      </trkpt>
      <trkpt lat="44.82362" lon="6.87214">
        <ele>2649.05</ele>
        <time>2026-07-14T08:13:19Z</time>
      </trkpt>
      <trkpt lat="44.82353" lon="6.87212">
        <ele>2646.17</ele>
        <time>2026-07-14T08:13:34Z</time>
      </trkpt>
      <trkpt lat="44.82346" lon="6.8721">
        <ele>2643.28</ele>
        <time>2026-07-14T08:13:51Z</time>
      </trkpt>
      <trkpt lat="44.82338" lon="6.87208">
        <ele>2641.84</ele>
        <time>2026-07-14T08:14:05Z</time>
      </trkpt>
      <trkpt lat="44.82332" lon="6.87206">
        <ele>2640.4</ele>
        <time>2026-07-14T08:14:20Z</time>
      </trkpt>
      <trkpt lat="44.82334" lon="6.87206">
        <ele>2639.92</ele>
        <time>2026-07-14T08:14:27Z</time>
      </trkpt>
      <trkpt lat="44.82326" lon="6.87207">
        <ele>2638.96</ele>
        <time>2026-07-14T08:14:41Z</time>
      </trkpt>
      <trkpt lat="44.82315" lon="6.87206">
        <ele>2635.59</ele>
        <time>2026-07-14T08:14:51Z</time>
      </trkpt>
      <trkpt lat="44.82301" lon="6.87203">
        <ele>2633.19</ele>
        <time>2026-07-14T08:15:07Z</time>
      </trkpt>
      <trkpt lat="44.82296" lon="6.87198">
        <ele>2631.75</ele>
        <time>2026-07-14T08:15:23Z</time>
      </trkpt>
      <trkpt lat="44.82283" lon="6.87198">
        <ele>2628.38</ele>
        <time>2026-07-14T08:15:38Z</time>
      </trkpt>
      <trkpt lat="44.82282" lon="6.87198">
        <ele>2628.38</ele>
        <time>2026-07-14T08:15:39Z</time>
      </trkpt>
      <trkpt lat="44.82266" lon="6.87196">
        <ele>2625.5</ele>
        <time>2026-07-14T08:15:56Z</time>
      </trkpt>
      <trkpt lat="44.82263" lon="6.87192">
        <ele>2624.06</ele>
        <time>2026-07-14T08:16:12Z</time>
      </trkpt>
      <trkpt lat="44.82253" lon="6.87192">
        <ele>2624.06</ele>
        <time>2026-07-14T08:16:27Z</time>
      </trkpt>
      <trkpt lat="44.82246" lon="6.87189">
        <ele>2623.58</ele>
        <time>2026-07-14T08:16:34Z</time>
      </trkpt>
      <trkpt lat="44.82243" lon="6.87189">
        <ele>2623.58</ele>
        <time>2026-07-14T08:16:37Z</time>
      </trkpt>
      <trkpt lat="44.82235" lon="6.8719">
        <ele>2622.61</ele>
        <time>2026-07-14T08:16:45Z</time>
      </trkpt>
      <trkpt lat="44.82219" lon="6.87187">
        <ele>2622.13</ele>
        <time>2026-07-14T08:17:01Z</time>
      </trkpt>
      <trkpt lat="44.82201" lon="6.87183">
        <ele>2619.73</ele>
        <time>2026-07-14T08:17:21Z</time>
      </trkpt>
      <trkpt lat="44.82197" lon="6.87188">
        <ele>2617.33</ele>
        <time>2026-07-14T08:17:34Z</time>
      </trkpt>
      <trkpt lat="44.82187" lon="6.87182">
        <ele>2613.96</ele>
        <time>2026-07-14T08:17:47Z</time>
      </trkpt>
      <trkpt lat="44.82181" lon="6.87173">
        <ele>2611.56</ele>
        <time>2026-07-14T08:18:00Z</time>
      </trkpt>
      <trkpt lat="44.82178" lon="6.8717">
        <ele>2609.64</ele>
        <time>2026-07-14T08:18:07Z</time>
      </trkpt>
      <trkpt lat="44.8217" lon="6.87166">
        <ele>2606.75</ele>
        <time>2026-07-14T08:18:21Z</time>
      </trkpt>
      <trkpt lat="44.82167" lon="6.87166">
        <ele>2606.27</ele>
        <time>2026-07-14T08:18:25Z</time>
      </trkpt>
      <trkpt lat="44.82164" lon="6.87164">
        <ele>2604.35</ele>
        <time>2026-07-14T08:18:31Z</time>
      </trkpt>
      <trkpt lat="44.8216" lon="6.87159">
        <ele>2602.91</ele>
        <time>2026-07-14T08:18:48Z</time>
      </trkpt>
      <trkpt lat="44.82157" lon="6.87147">
        <ele>2599.54</ele>
        <time>2026-07-14T08:19:00Z</time>
      </trkpt>
      <trkpt lat="44.82157" lon="6.87146">
        <ele>2599.54</ele>
        <time>2026-07-14T08:19:01Z</time>
      </trkpt>
      <trkpt lat="44.82158" lon="6.87135">
        <ele>2598.1</ele>
        <time>2026-07-14T08:19:18Z</time>
      </trkpt>
      <trkpt lat="44.82152" lon="6.87138">
        <ele>2598.1</ele>
        <time>2026-07-14T08:19:26Z</time>
      </trkpt>
      <trkpt lat="44.82136" lon="6.87138">
        <ele>2597.14</ele>
        <time>2026-07-14T08:19:44Z</time>
      </trkpt>
      <trkpt lat="44.82128" lon="6.87131">
        <ele>2597.14</ele>
        <time>2026-07-14T08:19:58Z</time>
      </trkpt>
      <trkpt lat="44.82115" lon="6.87117">
        <ele>2597.14</ele>
        <time>2026-07-14T08:20:14Z</time>
      </trkpt>
      <trkpt lat="44.82114" lon="6.87114">
        <ele>2597.14</ele>
        <time>2026-07-14T08:20:17Z</time>
      </trkpt>
      <trkpt lat="44.82111" lon="6.87108">
        <ele>2595.7</ele>
        <time>2026-07-14T08:20:35Z</time>
      </trkpt>
      <trkpt lat="44.82111" lon="6.87108">
        <ele>2597.14</ele>
        <time>2026-07-14T08:20:37Z</time>
      </trkpt>
      <trkpt lat="44.82111" lon="6.87108">
        <ele>2596.66</ele>
        <time>2026-07-14T08:20:55Z</time>
      </trkpt>
      <trkpt lat="44.82107" lon="6.87108">
        <ele>2596.66</ele>
        <time>2026-07-14T08:21:20Z</time>
      </trkpt>
      <trkpt lat="44.82107" lon="6.87107">
        <ele>2596.18</ele>
        <time>2026-07-14T08:21:34Z</time>
      </trkpt>
      <trkpt lat="44.82098" lon="6.87085">
        <ele>2596.18</ele>
        <time>2026-07-14T08:21:51Z</time>
      </trkpt>
      <trkpt lat="44.82093" lon="6.87074">
        <ele>2596.18</ele>
        <time>2026-07-14T08:22:05Z</time>
      </trkpt>
      <trkpt lat="44.8209" lon="6.87071">
        <ele>2597.62</ele>
        <time>2026-07-14T08:22:11Z</time>
      </trkpt>
      <trkpt lat="44.82084" lon="6.87075">
        <ele>2600.5</ele>
        <time>2026-07-14T08:22:24Z</time>
      </trkpt>
      <trkpt lat="44.82084" lon="6.87075">
        <ele>2600.98</ele>
        <time>2026-07-14T08:22:41Z</time>
      </trkpt>
      <trkpt lat="44.82084" lon="6.87077">
        <ele>2600.98</ele>
        <time>2026-07-14T08:22:56Z</time>
      </trkpt>
      <trkpt lat="44.82083" lon="6.87078">
        <ele>2600.5</ele>
        <time>2026-07-14T08:23:34Z</time>
      </trkpt>
      <trkpt lat="44.82084" lon="6.87078">
        <ele>2599.54</ele>
        <time>2026-07-14T08:23:43Z</time>
      </trkpt>
      <trkpt lat="44.82085" lon="6.87077">
        <ele>2599.06</ele>
        <time>2026-07-14T08:24:13Z</time>
      </trkpt>
      <trkpt lat="44.82085" lon="6.87079">
        <ele>2599.06</ele>
        <time>2026-07-14T08:24:53Z</time>
      </trkpt>
      <trkpt lat="44.82084" lon="6.87079">
        <ele>2599.06</ele>
        <time>2026-07-14T08:25:27Z</time>
      </trkpt>
      <trkpt lat="44.82085" lon="6.87077">
        <ele>2599.06</ele>
        <time>2026-07-14T08:26:00Z</time>
      </trkpt>
      <trkpt lat="44.82086" lon="6.87078">
        <ele>2598.58</ele>
        <time>2026-07-14T08:26:38Z</time>
      </trkpt>
      <trkpt lat="44.82085" lon="6.87079">
        <ele>2598.58</ele>
        <time>2026-07-14T08:27:09Z</time>
      </trkpt>
      <trkpt lat="44.82085" lon="6.87077">
        <ele>2598.58</ele>
        <time>2026-07-14T08:27:49Z</time>
      </trkpt>
      <trkpt lat="44.82086" lon="6.87078">
        <ele>2598.58</ele>
        <time>2026-07-14T08:28:19Z</time>
      </trkpt>
      <trkpt lat="44.82085" lon="6.87077">
        <ele>2598.58</ele>
        <time>2026-07-14T08:28:47Z</time>
      </trkpt>
      <trkpt lat="44.82085" lon="6.87078">
        <ele>2598.1</ele>
        <time>2026-07-14T08:29:24Z</time>
      </trkpt>
      <trkpt lat="44.82085" lon="6.87078">
        <ele>2599.54</ele>
        <time>2026-07-14T08:29:55Z</time>
      </trkpt>
      <trkpt lat="44.82085" lon="6.87078">
        <ele>2599.06</ele>
        <time>2026-07-14T08:30:28Z</time>
      </trkpt>
      <trkpt lat="44.82085" lon="6.87079">
        <ele>2599.06</ele>
        <time>2026-07-14T08:31:05Z</time>
      </trkpt>
      <trkpt lat="44.82085" lon="6.87078">
        <ele>2599.06</ele>
        <time>2026-07-14T08:31:35Z</time>
      </trkpt>
      <trkpt lat="44.82084" lon="6.87078">
        <ele>2599.06</ele>
        <time>2026-07-14T08:32:06Z</time>
      </trkpt>
      <trkpt lat="44.82084" lon="6.87079">
        <ele>2598.58</ele>
        <time>2026-07-14T08:32:36Z</time>
      </trkpt>
      <trkpt lat="44.82084" lon="6.87079">
        <ele>2598.58</ele>
        <time>2026-07-14T08:33:24Z</time>
      </trkpt>
      <trkpt lat="44.82083" lon="6.87079">
        <ele>2598.58</ele>
        <time>2026-07-14T08:33:57Z</time>
      </trkpt>
      <trkpt lat="44.82084" lon="6.8708">
        <ele>2599.06</ele>
        <time>2026-07-14T08:34:30Z</time>
      </trkpt>
      <trkpt lat="44.82084" lon="6.87079">
        <ele>2598.58</ele>
        <time>2026-07-14T08:35:03Z</time>
      </trkpt>
      <trkpt lat="44.82084" lon="6.8708">
        <ele>2599.06</ele>
        <time>2026-07-14T08:35:25Z</time>
      </trkpt>
      <trkpt lat="44.82081" lon="6.87078">
        <ele>2600.02</ele>
        <time>2026-07-14T08:35:45Z</time>
      </trkpt>
      <trkpt lat="44.82081" lon="6.87075">
        <ele>2599.54</ele>
        <time>2026-07-14T08:36:03Z</time>
      </trkpt>
      <trkpt lat="44.8208" lon="6.87071">
        <ele>2598.58</ele>
        <time>2026-07-14T08:36:19Z</time>
      </trkpt>
      <trkpt lat="44.82069" lon="6.87064">
        <ele>2600.02</ele>
        <time>2026-07-14T08:36:36Z</time>
      </trkpt>
      <trkpt lat="44.82065" lon="6.87053">
        <ele>2601.46</ele>
        <time>2026-07-14T08:36:53Z</time>
      </trkpt>
      <trkpt lat="44.82061" lon="6.87048">
        <ele>2603.87</ele>
        <time>2026-07-14T08:37:07Z</time>
      </trkpt>
      <trkpt lat="44.82062" lon="6.87039">
        <ele>2605.79</ele>
        <time>2026-07-14T08:37:24Z</time>
      </trkpt>
      <trkpt lat="44.82056" lon="6.87028">
        <ele>2607.23</ele>
        <time>2026-07-14T08:37:41Z</time>
      </trkpt>
      <trkpt lat="44.82052" lon="6.8702">
        <ele>2608.19</ele>
        <time>2026-07-14T08:37:57Z</time>
      </trkpt>
      <trkpt lat="44.82052" lon="6.87004">
        <ele>2611.08</ele>
        <time>2026-07-14T08:38:15Z</time>
      </trkpt>
      <trkpt lat="44.82045" lon="6.8699">
        <ele>2613.48</ele>
        <time>2026-07-14T08:38:33Z</time>
      </trkpt>
      <trkpt lat="44.82037" lon="6.86977">
        <ele>2614.44</ele>
        <time>2026-07-14T08:38:50Z</time>
      </trkpt>
      <trkpt lat="44.82029" lon="6.86962">
        <ele>2615.4</ele>
        <time>2026-07-14T08:39:07Z</time>
      </trkpt>
      <trkpt lat="44.82021" lon="6.86944">
        <ele>2614.92</ele>
        <time>2026-07-14T08:39:23Z</time>
      </trkpt>
      <trkpt lat="44.82016" lon="6.86933">
        <ele>2614.92</ele>
        <time>2026-07-14T08:39:38Z</time>
      </trkpt>
      <trkpt lat="44.82011" lon="6.8692">
        <ele>2614.92</ele>
        <time>2026-07-14T08:39:54Z</time>
      </trkpt>
      <trkpt lat="44.82011" lon="6.86919">
        <ele>2615.88</ele>
        <time>2026-07-14T08:40:09Z</time>
      </trkpt>
      <trkpt lat="44.82008" lon="6.86923">
        <ele>2615.88</ele>
        <time>2026-07-14T08:40:40Z</time>
      </trkpt>
      <trkpt lat="44.82004" lon="6.86916">
        <ele>2615.88</ele>
        <time>2026-07-14T08:40:59Z</time>
      </trkpt>
      <trkpt lat="44.82001" lon="6.86911">
        <ele>2615.88</ele>
        <time>2026-07-14T08:41:06Z</time>
      </trkpt>
      <trkpt lat="44.81993" lon="6.86903">
        <ele>2618.29</ele>
        <time>2026-07-14T08:41:21Z</time>
      </trkpt>
      <trkpt lat="44.81984" lon="6.86901">
        <ele>2621.17</ele>
        <time>2026-07-14T08:41:36Z</time>
      </trkpt>
      <trkpt lat="44.81976" lon="6.86899">
        <ele>2623.09</ele>
        <time>2026-07-14T08:41:51Z</time>
      </trkpt>
      <trkpt lat="44.8197" lon="6.86898">
        <ele>2625.5</ele>
        <time>2026-07-14T08:42:06Z</time>
      </trkpt>
      <trkpt lat="44.81965" lon="6.86894">
        <ele>2626.94</ele>
        <time>2026-07-14T08:42:23Z</time>
      </trkpt>
      <trkpt lat="44.81956" lon="6.86891">
        <ele>2629.82</ele>
        <time>2026-07-14T08:42:39Z</time>
      </trkpt>
      <trkpt lat="44.81948" lon="6.86886">
        <ele>2632.23</ele>
        <time>2026-07-14T08:42:54Z</time>
      </trkpt>
      <trkpt lat="44.81947" lon="6.86884">
        <ele>2632.71</ele>
        <time>2026-07-14T08:43:09Z</time>
      </trkpt>
      <trkpt lat="44.81946" lon="6.86885">
        <ele>2632.71</ele>
        <time>2026-07-14T08:43:30Z</time>
      </trkpt>
      <trkpt lat="44.81947" lon="6.8688">
        <ele>2633.19</ele>
        <time>2026-07-14T08:44:07Z</time>
      </trkpt>
      <trkpt lat="44.81944" lon="6.86878">
        <ele>2633.19</ele>
        <time>2026-07-14T08:44:39Z</time>
      </trkpt>
      <trkpt lat="44.81942" lon="6.86866">
        <ele>2635.59</ele>
        <time>2026-07-14T08:44:57Z</time>
      </trkpt>
      <trkpt lat="44.81937" lon="6.86863">
        <ele>2637.51</ele>
        <time>2026-07-14T08:45:11Z</time>
      </trkpt>
      <trkpt lat="44.81931" lon="6.86857">
        <ele>2640.88</ele>
        <time>2026-07-14T08:45:30Z</time>
      </trkpt>
      <trkpt lat="44.81925" lon="6.8686">
        <ele>2642.8</ele>
        <time>2026-07-14T08:45:46Z</time>
      </trkpt>
      <trkpt lat="44.81924" lon="6.86848">
        <ele>2644.72</ele>
        <time>2026-07-14T08:46:03Z</time>
      </trkpt>
      <trkpt lat="44.81921" lon="6.86841">
        <ele>2647.61</ele>
        <time>2026-07-14T08:46:15Z</time>
      </trkpt>
      <trkpt lat="44.81919" lon="6.86831">
        <ele>2649.53</ele>
        <time>2026-07-14T08:46:30Z</time>
      </trkpt>
      <trkpt lat="44.81919" lon="6.86818">
        <ele>2651.93</ele>
        <time>2026-07-14T08:46:47Z</time>
      </trkpt>
      <trkpt lat="44.81918" lon="6.86805">
        <ele>2653.86</ele>
        <time>2026-07-14T08:47:05Z</time>
      </trkpt>
      <trkpt lat="44.81917" lon="6.86796">
        <ele>2656.74</ele>
        <time>2026-07-14T08:47:24Z</time>
      </trkpt>
      <trkpt lat="44.8192" lon="6.86786">
        <ele>2658.18</ele>
        <time>2026-07-14T08:47:42Z</time>
      </trkpt>
      <trkpt lat="44.81924" lon="6.86779">
        <ele>2660.11</ele>
        <time>2026-07-14T08:48:06Z</time>
      </trkpt>
      <trkpt lat="44.81929" lon="6.86772">
        <ele>2662.51</ele>
        <time>2026-07-14T08:48:21Z</time>
      </trkpt>
      <trkpt lat="44.81928" lon="6.86774">
        <ele>2662.51</ele>
        <time>2026-07-14T08:48:38Z</time>
      </trkpt>
      <trkpt lat="44.8193" lon="6.86763">
        <ele>2665.87</ele>
        <time>2026-07-14T08:48:55Z</time>
      </trkpt>
      <trkpt lat="44.81936" lon="6.86757">
        <ele>2668.76</ele>
        <time>2026-07-14T08:49:12Z</time>
      </trkpt>
      <trkpt lat="44.8194" lon="6.86748">
        <ele>2670.2</ele>
        <time>2026-07-14T08:49:29Z</time>
      </trkpt>
      <trkpt lat="44.8194" lon="6.86734">
        <ele>2673.08</ele>
        <time>2026-07-14T08:49:47Z</time>
      </trkpt>
      <trkpt lat="44.81939" lon="6.86719">
        <ele>2675.01</ele>
        <time>2026-07-14T08:50:03Z</time>
      </trkpt>
      <trkpt lat="44.81939" lon="6.86701">
        <ele>2675.97</ele>
        <time>2026-07-14T08:50:20Z</time>
      </trkpt>
      <trkpt lat="44.81938" lon="6.86684">
        <ele>2677.41</ele>
        <time>2026-07-14T08:50:36Z</time>
      </trkpt>
      <trkpt lat="44.81936" lon="6.86667">
        <ele>2679.33</ele>
        <time>2026-07-14T08:50:53Z</time>
      </trkpt>
      <trkpt lat="44.81935" lon="6.8665">
        <ele>2680.77</ele>
        <time>2026-07-14T08:51:09Z</time>
      </trkpt>
      <trkpt lat="44.81936" lon="6.86629">
        <ele>2682.22</ele>
        <time>2026-07-14T08:51:27Z</time>
      </trkpt>
      <trkpt lat="44.8194" lon="6.86607">
        <ele>2683.18</ele>
        <time>2026-07-14T08:51:46Z</time>
      </trkpt>
      <trkpt lat="44.81945" lon="6.86593">
        <ele>2683.66</ele>
        <time>2026-07-14T08:52:01Z</time>
      </trkpt>
      <trkpt lat="44.81956" lon="6.86584">
        <ele>2684.14</ele>
        <time>2026-07-14T08:52:19Z</time>
      </trkpt>
      <trkpt lat="44.81965" lon="6.86585">
        <ele>2685.58</ele>
        <time>2026-07-14T08:52:34Z</time>
      </trkpt>
      <trkpt lat="44.81967" lon="6.86584">
        <ele>2685.58</ele>
        <time>2026-07-14T08:53:08Z</time>
      </trkpt>
      <trkpt lat="44.81963" lon="6.86575">
        <ele>2683.18</ele>
        <time>2026-07-14T08:53:27Z</time>
      </trkpt>
      <trkpt lat="44.81959" lon="6.86561">
        <ele>2681.73</ele>
        <time>2026-07-14T08:53:41Z</time>
      </trkpt>
      <trkpt lat="44.81959" lon="6.8656">
        <ele>2681.73</ele>
        <time>2026-07-14T08:53:57Z</time>
      </trkpt>
      <trkpt lat="44.81958" lon="6.86561">
        <ele>2681.73</ele>
        <time>2026-07-14T08:54:23Z</time>
      </trkpt>
      <trkpt lat="44.81961" lon="6.86565">
        <ele>2680.77</ele>
        <time>2026-07-14T08:54:39Z</time>
      </trkpt>
      <trkpt lat="44.81978" lon="6.86566">
        <ele>2681.25</ele>
        <time>2026-07-14T08:54:57Z</time>
      </trkpt>
      <trkpt lat="44.81979" lon="6.86565">
        <ele>2682.22</ele>
        <time>2026-07-14T08:55:02Z</time>
      </trkpt>
      <trkpt lat="44.81996" lon="6.86557">
        <ele>2682.22</ele>
        <time>2026-07-14T08:55:20Z</time>
      </trkpt>
      <trkpt lat="44.82003" lon="6.86548">
        <ele>2682.7</ele>
        <time>2026-07-14T08:55:40Z</time>
      </trkpt>
      <trkpt lat="44.82005" lon="6.86548">
        <ele>2682.7</ele>
        <time>2026-07-14T08:56:00Z</time>
      </trkpt>
      <trkpt lat="44.82009" lon="6.86541">
        <ele>2682.7</ele>
        <time>2026-07-14T08:56:19Z</time>
      </trkpt>
      <trkpt lat="44.8202" lon="6.86525">
        <ele>2683.18</ele>
        <time>2026-07-14T08:56:37Z</time>
      </trkpt>
      <trkpt lat="44.82027" lon="6.86513">
        <ele>2685.58</ele>
        <time>2026-07-14T08:56:53Z</time>
      </trkpt>
      <trkpt lat="44.82029" lon="6.86509">
        <ele>2685.58</ele>
        <time>2026-07-14T08:56:57Z</time>
      </trkpt>
      <trkpt lat="44.82035" lon="6.86495">
        <ele>2687.5</ele>
        <time>2026-07-14T08:57:12Z</time>
      </trkpt>
      <trkpt lat="44.82038" lon="6.86487">
        <ele>2688.94</ele>
        <time>2026-07-14T08:57:29Z</time>
      </trkpt>
      <trkpt lat="44.82045" lon="6.86476">
        <ele>2691.35</ele>
        <time>2026-07-14T08:57:46Z</time>
      </trkpt>
      <trkpt lat="44.82046" lon="6.86467">
        <ele>2693.27</ele>
        <time>2026-07-14T08:58:01Z</time>
      </trkpt>
      <trkpt lat="44.82045" lon="6.86465">
        <ele>2693.75</ele>
        <time>2026-07-14T08:58:22Z</time>
      </trkpt>
      <trkpt lat="44.82043" lon="6.8646">
        <ele>2693.75</ele>
        <time>2026-07-14T08:58:57Z</time>
      </trkpt>
      <trkpt lat="44.8205" lon="6.86451">
        <ele>2696.64</ele>
        <time>2026-07-14T08:59:14Z</time>
      </trkpt>
      <trkpt lat="44.82056" lon="6.86436">
        <ele>2699.52</ele>
        <time>2026-07-14T08:59:32Z</time>
      </trkpt>
      <trkpt lat="44.82062" lon="6.8642">
        <ele>2700</ele>
        <time>2026-07-14T08:59:48Z</time>
      </trkpt>
      <trkpt lat="44.82068" lon="6.86409">
        <ele>2700</ele>
        <time>2026-07-14T08:59:58Z</time>
      </trkpt>
      <trkpt lat="44.82077" lon="6.86395">
        <ele>2700</ele>
        <time>2026-07-14T09:00:15Z</time>
      </trkpt>
      <trkpt lat="44.82082" lon="6.86385">
        <ele>2701.92</ele>
        <time>2026-07-14T09:00:30Z</time>
      </trkpt>
      <trkpt lat="44.82082" lon="6.86371">
        <ele>2704.81</ele>
        <time>2026-07-14T09:00:47Z</time>
      </trkpt>
      <trkpt lat="44.82084" lon="6.86359">
        <ele>2707.69</ele>
        <time>2026-07-14T09:01:04Z</time>
      </trkpt>
      <trkpt lat="44.8209" lon="6.86348">
        <ele>2708.65</ele>
        <time>2026-07-14T09:01:19Z</time>
      </trkpt>
      <trkpt lat="44.82091" lon="6.86332">
        <ele>2708.65</ele>
        <time>2026-07-14T09:01:33Z</time>
      </trkpt>
      <trkpt lat="44.82092" lon="6.86318">
        <ele>2708.65</ele>
        <time>2026-07-14T09:01:47Z</time>
      </trkpt>
      <trkpt lat="44.82104" lon="6.86308">
        <ele>2711.54</ele>
        <time>2026-07-14T09:02:05Z</time>
      </trkpt>
      <trkpt lat="44.82113" lon="6.86298">
        <ele>2713.94</ele>
        <time>2026-07-14T09:02:22Z</time>
      </trkpt>
      <trkpt lat="44.82122" lon="6.86288">
        <ele>2715.38</ele>
        <time>2026-07-14T09:02:36Z</time>
      </trkpt>
      <trkpt lat="44.82126" lon="6.86279">
        <ele>2718.75</ele>
        <time>2026-07-14T09:02:53Z</time>
      </trkpt>
      <trkpt lat="44.82128" lon="6.8627">
        <ele>2721.15</ele>
        <time>2026-07-14T09:03:09Z</time>
      </trkpt>
      <trkpt lat="44.82131" lon="6.86266">
        <ele>2723.55</ele>
        <time>2026-07-14T09:03:26Z</time>
      </trkpt>
      <trkpt lat="44.82135" lon="6.8626">
        <ele>2724.99</ele>
        <time>2026-07-14T09:03:43Z</time>
      </trkpt>
      <trkpt lat="44.82143" lon="6.86255">
        <ele>2727.4</ele>
        <time>2026-07-14T09:03:59Z</time>
      </trkpt>
      <trkpt lat="44.82142" lon="6.86253">
        <ele>2727.88</ele>
        <time>2026-07-14T09:04:16Z</time>
      </trkpt>
      <trkpt lat="44.82141" lon="6.86252">
        <ele>2727.88</ele>
        <time>2026-07-14T09:04:37Z</time>
      </trkpt>
      <trkpt lat="44.82138" lon="6.86262">
        <ele>2729.32</ele>
        <time>2026-07-14T09:04:54Z</time>
      </trkpt>
      <trkpt lat="44.82137" lon="6.86261">
        <ele>2729.8</ele>
        <time>2026-07-14T09:05:22Z</time>
      </trkpt>
      <trkpt lat="44.82139" lon="6.86256">
        <ele>2728.36</ele>
        <time>2026-07-14T09:05:33Z</time>
      </trkpt>
      <trkpt lat="44.82148" lon="6.86244">
        <ele>2727.4</ele>
        <time>2026-07-14T09:05:49Z</time>
      </trkpt>
      <trkpt lat="44.82156" lon="6.8623">
        <ele>2728.84</ele>
        <time>2026-07-14T09:06:04Z</time>
      </trkpt>
      <trkpt lat="44.8216" lon="6.86216">
        <ele>2731.72</ele>
        <time>2026-07-14T09:06:20Z</time>
      </trkpt>
      <trkpt lat="44.82161" lon="6.86207">
        <ele>2734.61</ele>
        <time>2026-07-14T09:06:35Z</time>
      </trkpt>
      <trkpt lat="44.82164" lon="6.86203">
        <ele>2735.57</ele>
        <time>2026-07-14T09:06:51Z</time>
      </trkpt>
      <trkpt lat="44.82167" lon="6.86204">
        <ele>2736.05</ele>
        <time>2026-07-14T09:07:11Z</time>
      </trkpt>
      <trkpt lat="44.82171" lon="6.86202">
        <ele>2734.61</ele>
        <time>2026-07-14T09:07:38Z</time>
      </trkpt>
      <trkpt lat="44.82178" lon="6.86183">
        <ele>2733.65</ele>
        <time>2026-07-14T09:07:53Z</time>
      </trkpt>
      <trkpt lat="44.82187" lon="6.86179">
        <ele>2733.65</ele>
        <time>2026-07-14T09:08:07Z</time>
      </trkpt>
      <trkpt lat="44.82192" lon="6.86178">
        <ele>2733.65</ele>
        <time>2026-07-14T09:08:13Z</time>
      </trkpt>
      <trkpt lat="44.82207" lon="6.86174">
        <ele>2733.65</ele>
        <time>2026-07-14T09:08:30Z</time>
      </trkpt>
      <trkpt lat="44.82214" lon="6.86162">
        <ele>2735.09</ele>
        <time>2026-07-14T09:08:43Z</time>
      </trkpt>
      <trkpt lat="44.82215" lon="6.86164">
        <ele>2735.09</ele>
        <time>2026-07-14T09:08:58Z</time>
      </trkpt>
      <trkpt lat="44.82213" lon="6.86164">
        <ele>2733.65</ele>
        <time>2026-07-14T09:09:16Z</time>
      </trkpt>
      <trkpt lat="44.82216" lon="6.86158">
        <ele>2734.13</ele>
        <time>2026-07-14T09:09:35Z</time>
      </trkpt>
      <trkpt lat="44.82222" lon="6.86154">
        <ele>2734.13</ele>
        <time>2026-07-14T09:09:43Z</time>
      </trkpt>
      <trkpt lat="44.82229" lon="6.86149">
        <ele>2733.65</ele>
        <time>2026-07-14T09:09:56Z</time>
      </trkpt>
      <trkpt lat="44.82236" lon="6.86148">
        <ele>2733.65</ele>
        <time>2026-07-14T09:10:11Z</time>
      </trkpt>
      <trkpt lat="44.82248" lon="6.86142">
        <ele>2733.65</ele>
        <time>2026-07-14T09:10:26Z</time>
      </trkpt>
      <trkpt lat="44.82258" lon="6.86135">
        <ele>2734.61</ele>
        <time>2026-07-14T09:10:40Z</time>
      </trkpt>
      <trkpt lat="44.82262" lon="6.86132">
        <ele>2735.09</ele>
        <time>2026-07-14T09:11:01Z</time>
      </trkpt>
      <trkpt lat="44.82268" lon="6.86127">
        <ele>2735.09</ele>
        <time>2026-07-14T09:11:27Z</time>
      </trkpt>
      <trkpt lat="44.82278" lon="6.86125">
        <ele>2736.05</ele>
        <time>2026-07-14T09:11:40Z</time>
      </trkpt>
      <trkpt lat="44.82283" lon="6.86119">
        <ele>2738.45</ele>
        <time>2026-07-14T09:11:53Z</time>
      </trkpt>
      <trkpt lat="44.82294" lon="6.86113">
        <ele>2740.86</ele>
        <time>2026-07-14T09:12:08Z</time>
      </trkpt>
      <trkpt lat="44.823" lon="6.86111">
        <ele>2743.26</ele>
        <time>2026-07-14T09:12:22Z</time>
      </trkpt>
      <trkpt lat="44.82306" lon="6.86108">
        <ele>2745.18</ele>
        <time>2026-07-14T09:12:34Z</time>
      </trkpt>
      <trkpt lat="44.82313" lon="6.86109">
        <ele>2746.14</ele>
        <time>2026-07-14T09:12:48Z</time>
      </trkpt>
      <trkpt lat="44.82311" lon="6.86115">
        <ele>2746.14</ele>
        <time>2026-07-14T09:13:19Z</time>
      </trkpt>
      <trkpt lat="44.82319" lon="6.8611">
        <ele>2747.59</ele>
        <time>2026-07-14T09:13:32Z</time>
      </trkpt>
      <trkpt lat="44.8233" lon="6.86109">
        <ele>2749.03</ele>
        <time>2026-07-14T09:13:46Z</time>
      </trkpt>
      <trkpt lat="44.82336" lon="6.86108">
        <ele>2752.39</ele>
        <time>2026-07-14T09:14:02Z</time>
      </trkpt>
      <trkpt lat="44.82342" lon="6.86108">
        <ele>2755.28</ele>
        <time>2026-07-14T09:14:17Z</time>
      </trkpt>
      <trkpt lat="44.82347" lon="6.86108">
        <ele>2757.68</ele>
        <time>2026-07-14T09:14:34Z</time>
      </trkpt>
      <trkpt lat="44.82352" lon="6.86107">
        <ele>2760.08</ele>
        <time>2026-07-14T09:14:49Z</time>
      </trkpt>
      <trkpt lat="44.82357" lon="6.8611">
        <ele>2762.97</ele>
        <time>2026-07-14T09:15:09Z</time>
      </trkpt>
      <trkpt lat="44.82362" lon="6.8611">
        <ele>2765.85</ele>
        <time>2026-07-14T09:15:24Z</time>
      </trkpt>
      <trkpt lat="44.82363" lon="6.86114">
        <ele>2766.81</ele>
        <time>2026-07-14T09:15:41Z</time>
      </trkpt>
      <trkpt lat="44.8236" lon="6.86117">
        <ele>2766.81</ele>
        <time>2026-07-14T09:16:07Z</time>
      </trkpt>
      <trkpt lat="44.82367" lon="6.86114">
        <ele>2768.73</ele>
        <time>2026-07-14T09:16:22Z</time>
      </trkpt>
      <trkpt lat="44.82376" lon="6.86123">
        <ele>2772.1</ele>
        <time>2026-07-14T09:16:40Z</time>
      </trkpt>
      <trkpt lat="44.82383" lon="6.86126">
        <ele>2774.98</ele>
        <time>2026-07-14T09:16:56Z</time>
      </trkpt>
      <trkpt lat="44.82382" lon="6.86128">
        <ele>2775.94</ele>
        <time>2026-07-14T09:17:10Z</time>
      </trkpt>
      <trkpt lat="44.82384" lon="6.86124">
        <ele>2777.39</ele>
        <time>2026-07-14T09:17:27Z</time>
      </trkpt>
      <trkpt lat="44.8239" lon="6.86122">
        <ele>2780.27</ele>
        <time>2026-07-14T09:17:44Z</time>
      </trkpt>
      <trkpt lat="44.8239" lon="6.8612">
        <ele>2780.27</ele>
        <time>2026-07-14T09:18:08Z</time>
      </trkpt>
      <trkpt lat="44.82395" lon="6.86113">
        <ele>2782.19</ele>
        <time>2026-07-14T09:18:24Z</time>
      </trkpt>
      <trkpt lat="44.82401" lon="6.86108">
        <ele>2784.6</ele>
        <time>2026-07-14T09:18:40Z</time>
      </trkpt>
      <trkpt lat="44.82405" lon="6.86105">
        <ele>2787.48</ele>
        <time>2026-07-14T09:18:54Z</time>
      </trkpt>
      <trkpt lat="44.82403" lon="6.86107">
        <ele>2787.48</ele>
        <time>2026-07-14T09:19:15Z</time>
      </trkpt>
      <trkpt lat="44.82411" lon="6.86102">
        <ele>2789.4</ele>
        <time>2026-07-14T09:19:29Z</time>
      </trkpt>
      <trkpt lat="44.82418" lon="6.86097">
        <ele>2792.29</ele>
        <time>2026-07-14T09:19:45Z</time>
      </trkpt>
      <trkpt lat="44.82427" lon="6.86093">
        <ele>2794.21</ele>
        <time>2026-07-14T09:19:59Z</time>
      </trkpt>
      <trkpt lat="44.82434" lon="6.8609">
        <ele>2796.13</ele>
        <time>2026-07-14T09:20:16Z</time>
      </trkpt>
      <trkpt lat="44.82442" lon="6.86086">
        <ele>2797.57</ele>
        <time>2026-07-14T09:20:34Z</time>
      </trkpt>
      <trkpt lat="44.82442" lon="6.86087">
        <ele>2798.05</ele>
        <time>2026-07-14T09:20:46Z</time>
      </trkpt>
      <trkpt lat="44.82443" lon="6.86088">
        <ele>2798.05</ele>
        <time>2026-07-14T09:21:09Z</time>
      </trkpt>
      <trkpt lat="44.82454" lon="6.86082">
        <ele>2800.46</ele>
        <time>2026-07-14T09:21:24Z</time>
      </trkpt>
      <trkpt lat="44.82458" lon="6.86081">
        <ele>2802.38</ele>
        <time>2026-07-14T09:21:39Z</time>
      </trkpt>
      <trkpt lat="44.82456" lon="6.86081">
        <ele>2802.38</ele>
        <time>2026-07-14T09:21:59Z</time>
      </trkpt>
      <trkpt lat="44.82464" lon="6.86081">
        <ele>2803.82</ele>
        <time>2026-07-14T09:22:12Z</time>
      </trkpt>
      <trkpt lat="44.8247" lon="6.8608">
        <ele>2804.78</ele>
        <time>2026-07-14T09:22:24Z</time>
      </trkpt>
      <trkpt lat="44.82476" lon="6.86088">
        <ele>2808.15</ele>
        <time>2026-07-14T09:22:38Z</time>
      </trkpt>
      <trkpt lat="44.8248" lon="6.86094">
        <ele>2810.55</ele>
        <time>2026-07-14T09:22:55Z</time>
      </trkpt>
      <trkpt lat="44.82482" lon="6.86099">
        <ele>2811.51</ele>
        <time>2026-07-14T09:23:11Z</time>
      </trkpt>
      <trkpt lat="44.82478" lon="6.8611">
        <ele>2814.4</ele>
        <time>2026-07-14T09:23:28Z</time>
      </trkpt>
      <trkpt lat="44.82471" lon="6.86115">
        <ele>2814.88</ele>
        <time>2026-07-14T09:23:44Z</time>
      </trkpt>
      <trkpt lat="44.82474" lon="6.86117">
        <ele>2815.84</ele>
        <time>2026-07-14T09:24:05Z</time>
      </trkpt>
      <trkpt lat="44.82482" lon="6.86131">
        <ele>2816.8</ele>
        <time>2026-07-14T09:24:20Z</time>
      </trkpt>
      <trkpt lat="44.82482" lon="6.8614">
        <ele>2817.76</ele>
        <time>2026-07-14T09:24:29Z</time>
      </trkpt>
      <trkpt lat="44.82479" lon="6.86156">
        <ele>2818.72</ele>
        <time>2026-07-14T09:24:44Z</time>
      </trkpt>
      <trkpt lat="44.82473" lon="6.86164">
        <ele>2822.09</ele>
        <time>2026-07-14T09:25:00Z</time>
      </trkpt>
      <trkpt lat="44.82476" lon="6.86178">
        <ele>2824.49</ele>
        <time>2026-07-14T09:25:16Z</time>
      </trkpt>
      <trkpt lat="44.82472" lon="6.86186">
        <ele>2826.41</ele>
        <time>2026-07-14T09:25:32Z</time>
      </trkpt>
      <trkpt lat="44.82471" lon="6.86194">
        <ele>2828.82</ele>
        <time>2026-07-14T09:25:49Z</time>
      </trkpt>
      <trkpt lat="44.82473" lon="6.86204">
        <ele>2831.22</ele>
        <time>2026-07-14T09:26:05Z</time>
      </trkpt>
      <trkpt lat="44.82473" lon="6.86208">
        <ele>2832.66</ele>
        <time>2026-07-14T09:26:25Z</time>
      </trkpt>
      <trkpt lat="44.82474" lon="6.86222">
        <ele>2836.03</ele>
        <time>2026-07-14T09:26:42Z</time>
      </trkpt>
      <trkpt lat="44.82478" lon="6.8624">
        <ele>2836.03</ele>
        <time>2026-07-14T09:26:59Z</time>
      </trkpt>
      <trkpt lat="44.82482" lon="6.86241">
        <ele>2836.99</ele>
        <time>2026-07-14T09:27:11Z</time>
      </trkpt>
      <trkpt lat="44.8248" lon="6.8624">
        <ele>2836.03</ele>
        <time>2026-07-14T09:27:33Z</time>
      </trkpt>
      <trkpt lat="44.82479" lon="6.8624">
        <ele>2836.51</ele>
        <time>2026-07-14T09:28:16Z</time>
      </trkpt>
      <trkpt lat="44.82479" lon="6.8624">
        <ele>2836.51</ele>
        <time>2026-07-14T09:28:58Z</time>
      </trkpt>
      <trkpt lat="44.82479" lon="6.8624">
        <ele>2836.51</ele>
        <time>2026-07-14T09:29:33Z</time>
      </trkpt>
      <trkpt lat="44.82479" lon="6.8624">
        <ele>2836.99</ele>
        <time>2026-07-14T09:29:59Z</time>
      </trkpt>
      <trkpt lat="44.82479" lon="6.86241">
        <ele>2836.99</ele>
        <time>2026-07-14T09:30:26Z</time>
      </trkpt>
      <trkpt lat="44.8248" lon="6.8624">
        <ele>2836.99</ele>
        <time>2026-07-14T09:31:01Z</time>
      </trkpt>
      <trkpt lat="44.8248" lon="6.86241">
        <ele>2838.43</ele>
        <time>2026-07-14T09:31:10Z</time>
      </trkpt>
      <trkpt lat="44.82481" lon="6.86242">
        <ele>2838.43</ele>
        <time>2026-07-14T09:31:30Z</time>
      </trkpt>
      <trkpt lat="44.82481" lon="6.86242">
        <ele>2838.91</ele>
        <time>2026-07-14T09:32:00Z</time>
      </trkpt>
      <trkpt lat="44.82482" lon="6.86259">
        <ele>2838.91</ele>
        <time>2026-07-14T09:32:17Z</time>
      </trkpt>
      <trkpt lat="44.82482" lon="6.86259">
        <ele>2839.87</ele>
        <time>2026-07-14T09:32:32Z</time>
      </trkpt>
      <trkpt lat="44.82483" lon="6.8626">
        <ele>2839.87</ele>
        <time>2026-07-14T09:32:59Z</time>
      </trkpt>
      <trkpt lat="44.82483" lon="6.86261">
        <ele>2839.87</ele>
        <time>2026-07-14T09:33:25Z</time>
      </trkpt>
      <trkpt lat="44.82485" lon="6.86264">
        <ele>2839.87</ele>
        <time>2026-07-14T09:33:42Z</time>
      </trkpt>
      <trkpt lat="44.82485" lon="6.86269">
        <ele>2839.87</ele>
        <time>2026-07-14T09:33:50Z</time>
      </trkpt>
      <trkpt lat="44.82487" lon="6.8629">
        <ele>2840.35</ele>
        <time>2026-07-14T09:34:07Z</time>
      </trkpt>
      <trkpt lat="44.82485" lon="6.86298">
        <ele>2840.35</ele>
        <time>2026-07-14T09:34:21Z</time>
      </trkpt>
      <trkpt lat="44.82485" lon="6.86297">
        <ele>2840.83</ele>
        <time>2026-07-14T09:34:46Z</time>
      </trkpt>
      <trkpt lat="44.82487" lon="6.86298">
        <ele>2840.83</ele>
        <time>2026-07-14T09:35:11Z</time>
      </trkpt>
      <trkpt lat="44.82488" lon="6.86299">
        <ele>2840.83</ele>
        <time>2026-07-14T09:35:12Z</time>
      </trkpt>
      <trkpt lat="44.82493" lon="6.86308">
        <ele>2838.91</ele>
        <time>2026-07-14T09:35:21Z</time>
      </trkpt>
      <trkpt lat="44.82495" lon="6.86316">
        <ele>2837.95</ele>
        <time>2026-07-14T09:35:34Z</time>
      </trkpt>
      <trkpt lat="44.82496" lon="6.86327">
        <ele>2836.51</ele>
        <time>2026-07-14T09:35:51Z</time>
      </trkpt>
      <trkpt lat="44.82491" lon="6.86326">
        <ele>2836.51</ele>
        <time>2026-07-14T09:36:07Z</time>
      </trkpt>
      <trkpt lat="44.82496" lon="6.86328">
        <ele>2836.51</ele>
        <time>2026-07-14T09:36:40Z</time>
      </trkpt>
      <trkpt lat="44.82498" lon="6.86333">
        <ele>2836.51</ele>
        <time>2026-07-14T09:36:55Z</time>
      </trkpt>
      <trkpt lat="44.82499" lon="6.86333">
        <ele>2836.51</ele>
        <time>2026-07-14T09:37:21Z</time>
      </trkpt>
      <trkpt lat="44.825" lon="6.86336">
        <ele>2836.03</ele>
        <time>2026-07-14T09:37:44Z</time>
      </trkpt>
      <trkpt lat="44.825" lon="6.86341">
        <ele>2835.55</ele>
        <time>2026-07-14T09:38:00Z</time>
      </trkpt>
      <trkpt lat="44.82501" lon="6.8634">
        <ele>2835.06</ele>
        <time>2026-07-14T09:38:23Z</time>
      </trkpt>
      <trkpt lat="44.82501" lon="6.86347">
        <ele>2834.1</ele>
        <time>2026-07-14T09:38:38Z</time>
      </trkpt>
      <trkpt lat="44.82501" lon="6.86354">
        <ele>2832.18</ele>
        <time>2026-07-14T09:38:51Z</time>
      </trkpt>
      <trkpt lat="44.82506" lon="6.8636">
        <ele>2828.82</ele>
        <time>2026-07-14T09:39:05Z</time>
      </trkpt>
      <trkpt lat="44.8251" lon="6.86367">
        <ele>2827.37</ele>
        <time>2026-07-14T09:39:20Z</time>
      </trkpt>
      <trkpt lat="44.82518" lon="6.86377">
        <ele>2825.45</ele>
        <time>2026-07-14T09:39:34Z</time>
      </trkpt>
      <trkpt lat="44.82531" lon="6.86387">
        <ele>2824.97</ele>
        <time>2026-07-14T09:39:50Z</time>
      </trkpt>
      <trkpt lat="44.82534" lon="6.8639">
        <ele>2825.93</ele>
        <time>2026-07-14T09:39:55Z</time>
      </trkpt>
      <trkpt lat="44.82536" lon="6.86388">
        <ele>2826.41</ele>
        <time>2026-07-14T09:40:16Z</time>
      </trkpt>
      <trkpt lat="44.82537" lon="6.86389">
        <ele>2827.37</ele>
        <time>2026-07-14T09:40:48Z</time>
      </trkpt>
      <trkpt lat="44.82542" lon="6.86394">
        <ele>2827.37</ele>
        <time>2026-07-14T09:41:09Z</time>
      </trkpt>
      <trkpt lat="44.82553" lon="6.86409">
        <ele>2828.82</ele>
        <time>2026-07-14T09:41:26Z</time>
      </trkpt>
      <trkpt lat="44.82562" lon="6.86426">
        <ele>2829.78</ele>
        <time>2026-07-14T09:41:43Z</time>
      </trkpt>
      <trkpt lat="44.82571" lon="6.8644">
        <ele>2829.78</ele>
        <time>2026-07-14T09:42:00Z</time>
      </trkpt>
      <trkpt lat="44.82576" lon="6.86445">
        <ele>2827.37</ele>
        <time>2026-07-14T09:42:07Z</time>
      </trkpt>
      <trkpt lat="44.8258" lon="6.8645">
        <ele>2827.37</ele>
        <time>2026-07-14T09:42:14Z</time>
      </trkpt>
      <trkpt lat="44.82591" lon="6.86462">
        <ele>2826.41</ele>
        <time>2026-07-14T09:42:31Z</time>
      </trkpt>
      <trkpt lat="44.826" lon="6.86469">
        <ele>2824.97</ele>
        <time>2026-07-14T09:42:46Z</time>
      </trkpt>
      <trkpt lat="44.82607" lon="6.86481">
        <ele>2823.53</ele>
        <time>2026-07-14T09:42:59Z</time>
      </trkpt>
      <trkpt lat="44.82619" lon="6.8649">
        <ele>2822.57</ele>
        <time>2026-07-14T09:43:15Z</time>
      </trkpt>
      <trkpt lat="44.82633" lon="6.86499">
        <ele>2823.05</ele>
        <time>2026-07-14T09:43:32Z</time>
      </trkpt>
      <trkpt lat="44.82634" lon="6.865">
        <ele>2823.05</ele>
        <time>2026-07-14T09:43:33Z</time>
      </trkpt>
      <trkpt lat="44.82643" lon="6.86516">
        <ele>2823.05</ele>
        <time>2026-07-14T09:43:49Z</time>
      </trkpt>
      <trkpt lat="44.82656" lon="6.86521">
        <ele>2824.01</ele>
        <time>2026-07-14T09:44:04Z</time>
      </trkpt>
      <trkpt lat="44.8267" lon="6.86529">
        <ele>2824.01</ele>
        <time>2026-07-14T09:44:20Z</time>
      </trkpt>
      <trkpt lat="44.82679" lon="6.86543">
        <ele>2823.53</ele>
        <time>2026-07-14T09:44:36Z</time>
      </trkpt>
      <trkpt lat="44.82679" lon="6.86543">
        <ele>2823.53</ele>
        <time>2026-07-14T09:44:37Z</time>
      </trkpt>
      <trkpt lat="44.82687" lon="6.86551">
        <ele>2822.57</ele>
        <time>2026-07-14T09:44:51Z</time>
      </trkpt>
      <trkpt lat="44.82697" lon="6.8655">
        <ele>2821.61</ele>
        <time>2026-07-14T09:45:07Z</time>
      </trkpt>
      <trkpt lat="44.8271" lon="6.86559">
        <ele>2820.65</ele>
        <time>2026-07-14T09:45:23Z</time>
      </trkpt>
      <trkpt lat="44.82715" lon="6.86577">
        <ele>2820.16</ele>
        <time>2026-07-14T09:45:38Z</time>
      </trkpt>
      <trkpt lat="44.8272" lon="6.8658">
        <ele>2822.57</ele>
        <time>2026-07-14T09:45:54Z</time>
      </trkpt>
      <trkpt lat="44.8272" lon="6.86583">
        <ele>2823.53</ele>
        <time>2026-07-14T09:46:12Z</time>
      </trkpt>
      <trkpt lat="44.82724" lon="6.8659">
        <ele>2823.53</ele>
        <time>2026-07-14T09:46:26Z</time>
      </trkpt>
      <trkpt lat="44.82725" lon="6.86591">
        <ele>2823.53</ele>
        <time>2026-07-14T09:46:27Z</time>
      </trkpt>
      <trkpt lat="44.82725" lon="6.86588">
        <ele>2823.53</ele>
        <time>2026-07-14T09:46:41Z</time>
      </trkpt>
      <trkpt lat="44.82727" lon="6.86583">
        <ele>2824.97</ele>
        <time>2026-07-14T09:46:58Z</time>
      </trkpt>
      <trkpt lat="44.82728" lon="6.86573">
        <ele>2826.89</ele>
        <time>2026-07-14T09:47:13Z</time>
      </trkpt>
      <trkpt lat="44.82732" lon="6.86571">
        <ele>2829.78</ele>
        <time>2026-07-14T09:47:30Z</time>
      </trkpt>
      <trkpt lat="44.82733" lon="6.86565">
        <ele>2831.7</ele>
        <time>2026-07-14T09:47:46Z</time>
      </trkpt>
      <trkpt lat="44.82736" lon="6.86565">
        <ele>2833.62</ele>
        <time>2026-07-14T09:48:02Z</time>
      </trkpt>
      <trkpt lat="44.82739" lon="6.86562">
        <ele>2834.58</ele>
        <time>2026-07-14T09:48:19Z</time>
      </trkpt>
      <trkpt lat="44.82744" lon="6.86559">
        <ele>2837.95</ele>
        <time>2026-07-14T09:48:35Z</time>
      </trkpt>
      <trkpt lat="44.82743" lon="6.86559">
        <ele>2837.95</ele>
        <time>2026-07-14T09:48:55Z</time>
      </trkpt>
      <trkpt lat="44.82744" lon="6.86559">
        <ele>2838.43</ele>
        <time>2026-07-14T09:49:12Z</time>
      </trkpt>
      <trkpt lat="44.8275" lon="6.86559">
        <ele>2840.83</ele>
        <time>2026-07-14T09:49:26Z</time>
      </trkpt>
      <trkpt lat="44.82757" lon="6.86561">
        <ele>2843.24</ele>
        <time>2026-07-14T09:49:45Z</time>
      </trkpt>
      <trkpt lat="44.82767" lon="6.86565">
        <ele>2845.64</ele>
        <time>2026-07-14T09:50:02Z</time>
      </trkpt>
      <trkpt lat="44.82774" lon="6.86572">
        <ele>2847.08</ele>
        <time>2026-07-14T09:50:18Z</time>
      </trkpt>
      <trkpt lat="44.82785" lon="6.8658">
        <ele>2848.52</ele>
        <time>2026-07-14T09:50:36Z</time>
      </trkpt>
      <trkpt lat="44.82789" lon="6.86582">
        <ele>2849</ele>
        <time>2026-07-14T09:50:53Z</time>
      </trkpt>
      <trkpt lat="44.82798" lon="6.86584">
        <ele>2849</ele>
        <time>2026-07-14T09:51:07Z</time>
      </trkpt>
      <trkpt lat="44.82807" lon="6.86591">
        <ele>2849.48</ele>
        <time>2026-07-14T09:51:21Z</time>
      </trkpt>
      <trkpt lat="44.82814" lon="6.86596">
        <ele>2850.93</ele>
        <time>2026-07-14T09:51:36Z</time>
      </trkpt>
      <trkpt lat="44.82824" lon="6.86602">
        <ele>2852.85</ele>
        <time>2026-07-14T09:51:52Z</time>
      </trkpt>
      <trkpt lat="44.82832" lon="6.86613">
        <ele>2853.33</ele>
        <time>2026-07-14T09:52:08Z</time>
      </trkpt>
      <trkpt lat="44.82833" lon="6.86618">
        <ele>2851.89</ele>
        <time>2026-07-14T09:52:13Z</time>
      </trkpt>
      <trkpt lat="44.82838" lon="6.86626">
        <ele>2851.89</ele>
        <time>2026-07-14T09:52:28Z</time>
      </trkpt>
      <trkpt lat="44.82843" lon="6.86642">
        <ele>2851.41</ele>
        <time>2026-07-14T09:52:45Z</time>
      </trkpt>
      <trkpt lat="44.82845" lon="6.86648">
        <ele>2849.97</ele>
        <time>2026-07-14T09:53:00Z</time>
      </trkpt>
      <trkpt lat="44.82848" lon="6.86653">
        <ele>2849</ele>
        <time>2026-07-14T09:53:10Z</time>
      </trkpt>
      <trkpt lat="44.82852" lon="6.86658">
        <ele>2848.04</ele>
        <time>2026-07-14T09:53:18Z</time>
      </trkpt>
      <trkpt lat="44.82862" lon="6.86673">
        <ele>2847.08</ele>
        <time>2026-07-14T09:53:36Z</time>
      </trkpt>
      <trkpt lat="44.8287" lon="6.86685">
        <ele>2846.6</ele>
        <time>2026-07-14T09:53:51Z</time>
      </trkpt>
      <trkpt lat="44.82873" lon="6.86688">
        <ele>2846.12</ele>
        <time>2026-07-14T09:53:56Z</time>
      </trkpt>
      <trkpt lat="44.82883" lon="6.86696">
        <ele>2844.68</ele>
        <time>2026-07-14T09:54:10Z</time>
      </trkpt>
      <trkpt lat="44.82891" lon="6.86705">
        <ele>2843.72</ele>
        <time>2026-07-14T09:54:25Z</time>
      </trkpt>
      <trkpt lat="44.82901" lon="6.86718">
        <ele>2843.72</ele>
        <time>2026-07-14T09:54:43Z</time>
      </trkpt>
      <trkpt lat="44.829" lon="6.86718">
        <ele>2843.24</ele>
        <time>2026-07-14T09:55:20Z</time>
      </trkpt>
      <trkpt lat="44.82906" lon="6.86719">
        <ele>2843.24</ele>
        <time>2026-07-14T09:55:45Z</time>
      </trkpt>
      <trkpt lat="44.82917" lon="6.8674">
        <ele>2843.24</ele>
        <time>2026-07-14T09:56:04Z</time>
      </trkpt>
      <trkpt lat="44.82925" lon="6.86757">
        <ele>2842.28</ele>
        <time>2026-07-14T09:56:21Z</time>
      </trkpt>
      <trkpt lat="44.82933" lon="6.86765">
        <ele>2840.83</ele>
        <time>2026-07-14T09:56:35Z</time>
      </trkpt>
      <trkpt lat="44.82936" lon="6.86767">
        <ele>2840.83</ele>
        <time>2026-07-14T09:56:40Z</time>
      </trkpt>
      <trkpt lat="44.82946" lon="6.86781">
        <ele>2840.35</ele>
        <time>2026-07-14T09:56:55Z</time>
      </trkpt>
      <trkpt lat="44.82956" lon="6.86794">
        <ele>2839.39</ele>
        <time>2026-07-14T09:57:11Z</time>
      </trkpt>
      <trkpt lat="44.82958" lon="6.86797">
        <ele>2838.43</ele>
        <time>2026-07-14T09:57:36Z</time>
      </trkpt>
      <trkpt lat="44.82968" lon="6.86806">
        <ele>2836.51</ele>
        <time>2026-07-14T09:57:52Z</time>
      </trkpt>
      <trkpt lat="44.82978" lon="6.86814">
        <ele>2834.1</ele>
        <time>2026-07-14T09:58:07Z</time>
      </trkpt>
      <trkpt lat="44.82991" lon="6.86825">
        <ele>2832.18</ele>
        <time>2026-07-14T09:58:26Z</time>
      </trkpt>
      <trkpt lat="44.82998" lon="6.86835">
        <ele>2830.26</ele>
        <time>2026-07-14T09:58:42Z</time>
      </trkpt>
      <trkpt lat="44.83006" lon="6.86847">
        <ele>2828.34</ele>
        <time>2026-07-14T09:58:57Z</time>
      </trkpt>
      <trkpt lat="44.83016" lon="6.86861">
        <ele>2827.85</ele>
        <time>2026-07-14T09:59:14Z</time>
      </trkpt>
      <trkpt lat="44.83027" lon="6.86871">
        <ele>2829.78</ele>
        <time>2026-07-14T09:59:28Z</time>
      </trkpt>
      <trkpt lat="44.83039" lon="6.86884">
        <ele>2830.74</ele>
        <time>2026-07-14T09:59:47Z</time>
      </trkpt>
      <trkpt lat="44.83041" lon="6.86883">
        <ele>2830.74</ele>
        <time>2026-07-14T10:00:03Z</time>
      </trkpt>
      <trkpt lat="44.8304" lon="6.86883">
        <ele>2830.74</ele>
        <time>2026-07-14T10:00:25Z</time>
      </trkpt>
      <trkpt lat="44.83043" lon="6.86884">
        <ele>2830.74</ele>
        <time>2026-07-14T10:00:59Z</time>
      </trkpt>
      <trkpt lat="44.83044" lon="6.86885">
        <ele>2829.3</ele>
        <time>2026-07-14T10:01:04Z</time>
      </trkpt>
      <trkpt lat="44.83051" lon="6.86889">
        <ele>2827.85</ele>
        <time>2026-07-14T10:01:19Z</time>
      </trkpt>
      <trkpt lat="44.83057" lon="6.86887">
        <ele>2825.93</ele>
        <time>2026-07-14T10:01:32Z</time>
      </trkpt>
      <trkpt lat="44.83065" lon="6.86894">
        <ele>2823.53</ele>
        <time>2026-07-14T10:01:47Z</time>
      </trkpt>
      <trkpt lat="44.83068" lon="6.86894">
        <ele>2821.61</ele>
        <time>2026-07-14T10:02:02Z</time>
      </trkpt>
      <trkpt lat="44.83072" lon="6.86887">
        <ele>2819.2</ele>
        <time>2026-07-14T10:02:18Z</time>
      </trkpt>
      <trkpt lat="44.8307" lon="6.86876">
        <ele>2816.8</ele>
        <time>2026-07-14T10:02:35Z</time>
      </trkpt>
      <trkpt lat="44.83072" lon="6.8687">
        <ele>2814.4</ele>
        <time>2026-07-14T10:02:49Z</time>
      </trkpt>
      <trkpt lat="44.83073" lon="6.86862">
        <ele>2811.51</ele>
        <time>2026-07-14T10:03:05Z</time>
      </trkpt>
      <trkpt lat="44.83074" lon="6.86856">
        <ele>2809.11</ele>
        <time>2026-07-14T10:03:19Z</time>
      </trkpt>
      <trkpt lat="44.83073" lon="6.86844">
        <ele>2805.75</ele>
        <time>2026-07-14T10:03:37Z</time>
      </trkpt>
      <trkpt lat="44.83076" lon="6.86839">
        <ele>2803.34</ele>
        <time>2026-07-14T10:03:50Z</time>
      </trkpt>
      <trkpt lat="44.8307" lon="6.86827">
        <ele>2800.46</ele>
        <time>2026-07-14T10:04:07Z</time>
      </trkpt>
      <trkpt lat="44.83072" lon="6.86821">
        <ele>2798.54</ele>
        <time>2026-07-14T10:04:24Z</time>
      </trkpt>
      <trkpt lat="44.83072" lon="6.86807">
        <ele>2795.65</ele>
        <time>2026-07-14T10:04:39Z</time>
      </trkpt>
      <trkpt lat="44.83074" lon="6.86804">
        <ele>2793.25</ele>
        <time>2026-07-14T10:04:55Z</time>
      </trkpt>
      <trkpt lat="44.83073" lon="6.86801">
        <ele>2791.33</ele>
        <time>2026-07-14T10:05:10Z</time>
      </trkpt>
      <trkpt lat="44.83071" lon="6.86793">
        <ele>2788.92</ele>
        <time>2026-07-14T10:05:23Z</time>
      </trkpt>
      <trkpt lat="44.83073" lon="6.86783">
        <ele>2786.04</ele>
        <time>2026-07-14T10:05:36Z</time>
      </trkpt>
      <trkpt lat="44.83077" lon="6.86776">
        <ele>2782.67</ele>
        <time>2026-07-14T10:05:51Z</time>
      </trkpt>
      <trkpt lat="44.83077" lon="6.86762">
        <ele>2780.27</ele>
        <time>2026-07-14T10:06:07Z</time>
      </trkpt>
      <trkpt lat="44.83075" lon="6.86753">
        <ele>2777.87</ele>
        <time>2026-07-14T10:06:23Z</time>
      </trkpt>
      <trkpt lat="44.83077" lon="6.86744">
        <ele>2774.98</ele>
        <time>2026-07-14T10:06:39Z</time>
      </trkpt>
      <trkpt lat="44.8308" lon="6.86736">
        <ele>2772.1</ele>
        <time>2026-07-14T10:06:54Z</time>
      </trkpt>
      <trkpt lat="44.83087" lon="6.86735">
        <ele>2770.18</ele>
        <time>2026-07-14T10:07:08Z</time>
      </trkpt>
      <trkpt lat="44.83087" lon="6.86723">
        <ele>2767.29</ele>
        <time>2026-07-14T10:07:24Z</time>
      </trkpt>
      <trkpt lat="44.83096" lon="6.86723">
        <ele>2764.41</ele>
        <time>2026-07-14T10:07:41Z</time>
      </trkpt>
      <trkpt lat="44.83102" lon="6.86722">
        <ele>2761.04</ele>
        <time>2026-07-14T10:07:57Z</time>
      </trkpt>
      <trkpt lat="44.83102" lon="6.86711">
        <ele>2758.64</ele>
        <time>2026-07-14T10:08:12Z</time>
      </trkpt>
      <trkpt lat="44.83101" lon="6.86708">
        <ele>2757.68</ele>
        <time>2026-07-14T10:08:27Z</time>
      </trkpt>
      <trkpt lat="44.83104" lon="6.86703">
        <ele>2755.28</ele>
        <time>2026-07-14T10:08:45Z</time>
      </trkpt>
      <trkpt lat="44.83107" lon="6.86694">
        <ele>2753.35</ele>
        <time>2026-07-14T10:09:01Z</time>
      </trkpt>
      <trkpt lat="44.83114" lon="6.86699">
        <ele>2749.99</ele>
        <time>2026-07-14T10:09:16Z</time>
      </trkpt>
      <trkpt lat="44.83119" lon="6.86695">
        <ele>2747.1</ele>
        <time>2026-07-14T10:09:31Z</time>
      </trkpt>
      <trkpt lat="44.83123" lon="6.86691">
        <ele>2745.18</ele>
        <time>2026-07-14T10:09:45Z</time>
      </trkpt>
      <trkpt lat="44.83128" lon="6.86691">
        <ele>2742.78</ele>
        <time>2026-07-14T10:10:01Z</time>
      </trkpt>
      <trkpt lat="44.83134" lon="6.86687">
        <ele>2740.38</ele>
        <time>2026-07-14T10:10:19Z</time>
      </trkpt>
      <trkpt lat="44.83139" lon="6.86683">
        <ele>2737.49</ele>
        <time>2026-07-14T10:10:34Z</time>
      </trkpt>
      <trkpt lat="44.83142" lon="6.86674">
        <ele>2735.57</ele>
        <time>2026-07-14T10:10:48Z</time>
      </trkpt>
      <trkpt lat="44.83143" lon="6.8667">
        <ele>2733.17</ele>
        <time>2026-07-14T10:11:02Z</time>
      </trkpt>
      <trkpt lat="44.83148" lon="6.8667">
        <ele>2731.72</ele>
        <time>2026-07-14T10:11:16Z</time>
      </trkpt>
      <trkpt lat="44.83154" lon="6.86673">
        <ele>2730.28</ele>
        <time>2026-07-14T10:11:32Z</time>
      </trkpt>
      <trkpt lat="44.8316" lon="6.86666">
        <ele>2727.4</ele>
        <time>2026-07-14T10:11:48Z</time>
      </trkpt>
      <trkpt lat="44.83165" lon="6.86665">
        <ele>2724.51</ele>
        <time>2026-07-14T10:12:05Z</time>
      </trkpt>
      <trkpt lat="44.83164" lon="6.86655">
        <ele>2721.63</ele>
        <time>2026-07-14T10:12:21Z</time>
      </trkpt>
      <trkpt lat="44.83163" lon="6.86642">
        <ele>2719.71</ele>
        <time>2026-07-14T10:12:36Z</time>
      </trkpt>
      <trkpt lat="44.83169" lon="6.86642">
        <ele>2716.82</ele>
        <time>2026-07-14T10:12:50Z</time>
      </trkpt>
      <trkpt lat="44.8317" lon="6.86628">
        <ele>2713.94</ele>
        <time>2026-07-14T10:13:06Z</time>
      </trkpt>
      <trkpt lat="44.83173" lon="6.86625">
        <ele>2712.5</ele>
        <time>2026-07-14T10:13:22Z</time>
      </trkpt>
      <trkpt lat="44.83177" lon="6.86627">
        <ele>2710.09</ele>
        <time>2026-07-14T10:13:37Z</time>
      </trkpt>
      <trkpt lat="44.83176" lon="6.86619">
        <ele>2708.65</ele>
        <time>2026-07-14T10:13:52Z</time>
      </trkpt>
      <trkpt lat="44.83176" lon="6.86616">
        <ele>2707.21</ele>
        <time>2026-07-14T10:14:14Z</time>
      </trkpt>
      <trkpt lat="44.8318" lon="6.86611">
        <ele>2704.81</ele>
        <time>2026-07-14T10:14:28Z</time>
      </trkpt>
      <trkpt lat="44.83181" lon="6.86604">
        <ele>2702.88</ele>
        <time>2026-07-14T10:14:41Z</time>
      </trkpt>
      <trkpt lat="44.83185" lon="6.86602">
        <ele>2700.48</ele>
        <time>2026-07-14T10:14:56Z</time>
      </trkpt>
      <trkpt lat="44.83191" lon="6.86594">
        <ele>2698.08</ele>
        <time>2026-07-14T10:15:12Z</time>
      </trkpt>
      <trkpt lat="44.83197" lon="6.86588">
        <ele>2695.19</ele>
        <time>2026-07-14T10:15:27Z</time>
      </trkpt>
      <trkpt lat="44.83195" lon="6.86577">
        <ele>2692.31</ele>
        <time>2026-07-14T10:15:42Z</time>
      </trkpt>
      <trkpt lat="44.83201" lon="6.86574">
        <ele>2690.87</ele>
        <time>2026-07-14T10:15:55Z</time>
      </trkpt>
      <trkpt lat="44.83207" lon="6.86566">
        <ele>2687.98</ele>
        <time>2026-07-14T10:16:11Z</time>
      </trkpt>
      <trkpt lat="44.83212" lon="6.86561">
        <ele>2686.06</ele>
        <time>2026-07-14T10:16:25Z</time>
      </trkpt>
      <trkpt lat="44.83216" lon="6.86553">
        <ele>2683.66</ele>
        <time>2026-07-14T10:16:39Z</time>
      </trkpt>
      <trkpt lat="44.83227" lon="6.86546">
        <ele>2680.29</ele>
        <time>2026-07-14T10:16:56Z</time>
      </trkpt>
      <trkpt lat="44.83237" lon="6.8654">
        <ele>2677.89</ele>
        <time>2026-07-14T10:17:11Z</time>
      </trkpt>
      <trkpt lat="44.83247" lon="6.86536">
        <ele>2675.01</ele>
        <time>2026-07-14T10:17:27Z</time>
      </trkpt>
      <trkpt lat="44.83256" lon="6.86529">
        <ele>2674.04</ele>
        <time>2026-07-14T10:17:43Z</time>
      </trkpt>
      <trkpt lat="44.83258" lon="6.86529">
        <ele>2673.56</ele>
        <time>2026-07-14T10:18:08Z</time>
      </trkpt>
      <trkpt lat="44.83264" lon="6.86504">
        <ele>2671.64</ele>
        <time>2026-07-14T10:18:26Z</time>
      </trkpt>
      <trkpt lat="44.83257" lon="6.86484">
        <ele>2668.28</ele>
        <time>2026-07-14T10:18:42Z</time>
      </trkpt>
      <trkpt lat="44.83259" lon="6.86473">
        <ele>2664.91</ele>
        <time>2026-07-14T10:18:54Z</time>
      </trkpt>
      <trkpt lat="44.83263" lon="6.86459">
        <ele>2661.55</ele>
        <time>2026-07-14T10:19:09Z</time>
      </trkpt>
      <trkpt lat="44.83265" lon="6.86442">
        <ele>2658.66</ele>
        <time>2026-07-14T10:19:25Z</time>
      </trkpt>
      <trkpt lat="44.83267" lon="6.86429">
        <ele>2655.3</ele>
        <time>2026-07-14T10:19:39Z</time>
      </trkpt>
      <trkpt lat="44.83271" lon="6.86417">
        <ele>2651.93</ele>
        <time>2026-07-14T10:19:52Z</time>
      </trkpt>
      <trkpt lat="44.83267" lon="6.86404">
        <ele>2648.57</ele>
        <time>2026-07-14T10:20:05Z</time>
      </trkpt>
      <trkpt lat="44.83265" lon="6.86398">
        <ele>2647.61</ele>
        <time>2026-07-14T10:20:11Z</time>
      </trkpt>
      <trkpt lat="44.83273" lon="6.86384">
        <ele>2644.24</ele>
        <time>2026-07-14T10:20:27Z</time>
      </trkpt>
      <trkpt lat="44.83272" lon="6.86373">
        <ele>2640.88</ele>
        <time>2026-07-14T10:20:39Z</time>
      </trkpt>
      <trkpt lat="44.83276" lon="6.86357">
        <ele>2637.51</ele>
        <time>2026-07-14T10:20:54Z</time>
      </trkpt>
      <trkpt lat="44.83274" lon="6.86356">
        <ele>2637.51</ele>
        <time>2026-07-14T10:20:56Z</time>
      </trkpt>
      <trkpt lat="44.83261" lon="6.86347">
        <ele>2634.15</ele>
        <time>2026-07-14T10:21:13Z</time>
      </trkpt>
      <trkpt lat="44.8326" lon="6.86343">
        <ele>2633.67</ele>
        <time>2026-07-14T10:21:30Z</time>
      </trkpt>
      <trkpt lat="44.83255" lon="6.86334">
        <ele>2632.23</ele>
        <time>2026-07-14T10:21:47Z</time>
      </trkpt>
      <trkpt lat="44.83254" lon="6.8632">
        <ele>2629.82</ele>
        <time>2026-07-14T10:22:03Z</time>
      </trkpt>
      <trkpt lat="44.83252" lon="6.86308">
        <ele>2627.42</ele>
        <time>2026-07-14T10:22:15Z</time>
      </trkpt>
      <trkpt lat="44.83259" lon="6.86299">
        <ele>2624.06</ele>
        <time>2026-07-14T10:22:31Z</time>
      </trkpt>
      <trkpt lat="44.83274" lon="6.86303">
        <ele>2621.17</ele>
        <time>2026-07-14T10:22:48Z</time>
      </trkpt>
      <trkpt lat="44.83283" lon="6.86306">
        <ele>2619.73</ele>
        <time>2026-07-14T10:23:03Z</time>
      </trkpt>
      <trkpt lat="44.83289" lon="6.86304">
        <ele>2618.77</ele>
        <time>2026-07-14T10:23:18Z</time>
      </trkpt>
      <trkpt lat="44.83293" lon="6.86302">
        <ele>2617.33</ele>
        <time>2026-07-14T10:23:34Z</time>
      </trkpt>
      <trkpt lat="44.833" lon="6.86302">
        <ele>2615.4</ele>
        <time>2026-07-14T10:23:49Z</time>
      </trkpt>
      <trkpt lat="44.83308" lon="6.86298">
        <ele>2613</ele>
        <time>2026-07-14T10:24:03Z</time>
      </trkpt>
      <trkpt lat="44.83318" lon="6.86296">
        <ele>2611.08</ele>
        <time>2026-07-14T10:24:14Z</time>
      </trkpt>
      <trkpt lat="44.83326" lon="6.86286">
        <ele>2609.16</ele>
        <time>2026-07-14T10:24:26Z</time>
      </trkpt>
      <trkpt lat="44.83333" lon="6.8628">
        <ele>2607.71</ele>
        <time>2026-07-14T10:24:35Z</time>
      </trkpt>
      <trkpt lat="44.83338" lon="6.86271">
        <ele>2606.27</ele>
        <time>2026-07-14T10:24:43Z</time>
      </trkpt>
      <trkpt lat="44.83347" lon="6.86252">
        <ele>2603.87</ele>
        <time>2026-07-14T10:25:00Z</time>
      </trkpt>
      <trkpt lat="44.83347" lon="6.86229">
        <ele>2601.46</ele>
        <time>2026-07-14T10:25:18Z</time>
      </trkpt>
      <trkpt lat="44.83352" lon="6.86209">
        <ele>2599.06</ele>
        <time>2026-07-14T10:25:34Z</time>
      </trkpt>
      <trkpt lat="44.83349" lon="6.86198">
        <ele>2597.14</ele>
        <time>2026-07-14T10:25:44Z</time>
      </trkpt>
      <trkpt lat="44.83348" lon="6.86174">
        <ele>2593.77</ele>
        <time>2026-07-14T10:26:01Z</time>
      </trkpt>
      <trkpt lat="44.83341" lon="6.86156">
        <ele>2590.89</ele>
        <time>2026-07-14T10:26:15Z</time>
      </trkpt>
      <trkpt lat="44.83335" lon="6.86145">
        <ele>2587.53</ele>
        <time>2026-07-14T10:26:28Z</time>
      </trkpt>
      <trkpt lat="44.83336" lon="6.8613">
        <ele>2585.12</ele>
        <time>2026-07-14T10:26:43Z</time>
      </trkpt>
      <trkpt lat="44.83339" lon="6.86118">
        <ele>2581.76</ele>
        <time>2026-07-14T10:26:56Z</time>
      </trkpt>
      <trkpt lat="44.8334" lon="6.86111">
        <ele>2579.84</ele>
        <time>2026-07-14T10:27:05Z</time>
      </trkpt>
      <trkpt lat="44.83349" lon="6.86099">
        <ele>2576.95</ele>
        <time>2026-07-14T10:27:18Z</time>
      </trkpt>
      <trkpt lat="44.83348" lon="6.86089">
        <ele>2575.03</ele>
        <time>2026-07-14T10:27:30Z</time>
      </trkpt>
      <trkpt lat="44.83337" lon="6.86081">
        <ele>2571.66</ele>
        <time>2026-07-14T10:27:42Z</time>
      </trkpt>
      <trkpt lat="44.83337" lon="6.86075">
        <ele>2569.74</ele>
        <time>2026-07-14T10:27:50Z</time>
      </trkpt>
      <trkpt lat="44.83345" lon="6.86064">
        <ele>2566.38</ele>
        <time>2026-07-14T10:28:03Z</time>
      </trkpt>
      <trkpt lat="44.83346" lon="6.86053">
        <ele>2563.01</ele>
        <time>2026-07-14T10:28:17Z</time>
      </trkpt>
      <trkpt lat="44.83347" lon="6.86048">
        <ele>2562.05</ele>
        <time>2026-07-14T10:28:22Z</time>
      </trkpt>
      <trkpt lat="44.83347" lon="6.86032">
        <ele>2558.21</ele>
        <time>2026-07-14T10:28:37Z</time>
      </trkpt>
      <trkpt lat="44.83351" lon="6.8602">
        <ele>2555.32</ele>
        <time>2026-07-14T10:28:50Z</time>
      </trkpt>
      <trkpt lat="44.83359" lon="6.86015">
        <ele>2552.92</ele>
        <time>2026-07-14T10:29:03Z</time>
      </trkpt>
      <trkpt lat="44.83365" lon="6.86004">
        <ele>2550.03</ele>
        <time>2026-07-14T10:29:14Z</time>
      </trkpt>
      <trkpt lat="44.83375" lon="6.85995">
        <ele>2547.15</ele>
        <time>2026-07-14T10:29:25Z</time>
      </trkpt>
      <trkpt lat="44.8338" lon="6.85981">
        <ele>2543.79</ele>
        <time>2026-07-14T10:29:39Z</time>
      </trkpt>
      <trkpt lat="44.83387" lon="6.85967">
        <ele>2540.42</ele>
        <time>2026-07-14T10:29:54Z</time>
      </trkpt>
      <trkpt lat="44.83389" lon="6.85951">
        <ele>2537.06</ele>
        <time>2026-07-14T10:30:09Z</time>
      </trkpt>
      <trkpt lat="44.834" lon="6.85933">
        <ele>2534.65</ele>
        <time>2026-07-14T10:30:26Z</time>
      </trkpt>
      <trkpt lat="44.834" lon="6.85922">
        <ele>2531.77</ele>
        <time>2026-07-14T10:30:41Z</time>
      </trkpt>
      <trkpt lat="44.83405" lon="6.85904">
        <ele>2529.85</ele>
        <time>2026-07-14T10:30:56Z</time>
      </trkpt>
      <trkpt lat="44.83407" lon="6.85882">
        <ele>2526.96</ele>
        <time>2026-07-14T10:31:14Z</time>
      </trkpt>
      <trkpt lat="44.83407" lon="6.8588">
        <ele>2526.96</ele>
        <time>2026-07-14T10:31:15Z</time>
      </trkpt>
      <trkpt lat="44.83408" lon="6.85876">
        <ele>2526</ele>
        <time>2026-07-14T10:31:29Z</time>
      </trkpt>
      <trkpt lat="44.83408" lon="6.85867">
        <ele>2525.04</ele>
        <time>2026-07-14T10:31:48Z</time>
      </trkpt>
      <trkpt lat="44.83411" lon="6.85847">
        <ele>2523.12</ele>
        <time>2026-07-14T10:32:01Z</time>
      </trkpt>
      <trkpt lat="44.83409" lon="6.85839">
        <ele>2522.16</ele>
        <time>2026-07-14T10:32:07Z</time>
      </trkpt>
      <trkpt lat="44.83413" lon="6.85818">
        <ele>2519.75</ele>
        <time>2026-07-14T10:32:22Z</time>
      </trkpt>
      <trkpt lat="44.83416" lon="6.8579">
        <ele>2516.39</ele>
        <time>2026-07-14T10:32:41Z</time>
      </trkpt>
      <trkpt lat="44.83429" lon="6.85765">
        <ele>2514.95</ele>
        <time>2026-07-14T10:33:00Z</time>
      </trkpt>
      <trkpt lat="44.83441" lon="6.85749">
        <ele>2514.47</ele>
        <time>2026-07-14T10:33:16Z</time>
      </trkpt>
      <trkpt lat="44.83443" lon="6.85728">
        <ele>2513.98</ele>
        <time>2026-07-14T10:33:35Z</time>
      </trkpt>
      <trkpt lat="44.83444" lon="6.85707">
        <ele>2513.02</ele>
        <time>2026-07-14T10:33:51Z</time>
      </trkpt>
      <trkpt lat="44.83452" lon="6.85676">
        <ele>2511.58</ele>
        <time>2026-07-14T10:34:12Z</time>
      </trkpt>
      <trkpt lat="44.83461" lon="6.85655">
        <ele>2509.66</ele>
        <time>2026-07-14T10:34:29Z</time>
      </trkpt>
      <trkpt lat="44.83467" lon="6.85641">
        <ele>2508.7</ele>
        <time>2026-07-14T10:34:47Z</time>
      </trkpt>
      <trkpt lat="44.83468" lon="6.85635">
        <ele>2508.7</ele>
        <time>2026-07-14T10:34:58Z</time>
      </trkpt>
      <trkpt lat="44.83468" lon="6.85632">
        <ele>2508.7</ele>
        <time>2026-07-14T10:35:00Z</time>
      </trkpt>
      <trkpt lat="44.83485" lon="6.85619">
        <ele>2508.22</ele>
        <time>2026-07-14T10:35:19Z</time>
      </trkpt>
      <trkpt lat="44.83488" lon="6.85618">
        <ele>2508.22</ele>
        <time>2026-07-14T10:35:22Z</time>
      </trkpt>
      <trkpt lat="44.83503" lon="6.85609">
        <ele>2507.26</ele>
        <time>2026-07-14T10:35:40Z</time>
      </trkpt>
      <trkpt lat="44.83514" lon="6.85598">
        <ele>2506.29</ele>
        <time>2026-07-14T10:35:55Z</time>
      </trkpt>
      <trkpt lat="44.83524" lon="6.85582">
        <ele>2505.33</ele>
        <time>2026-07-14T10:36:11Z</time>
      </trkpt>
      <trkpt lat="44.83527" lon="6.85568">
        <ele>2504.37</ele>
        <time>2026-07-14T10:36:26Z</time>
      </trkpt>
      <trkpt lat="44.83533" lon="6.85553">
        <ele>2503.89</ele>
        <time>2026-07-14T10:36:40Z</time>
      </trkpt>
      <trkpt lat="44.83535" lon="6.85543">
        <ele>2505.33</ele>
        <time>2026-07-14T10:36:52Z</time>
      </trkpt>
      <trkpt lat="44.83536" lon="6.8554">
        <ele>2504.37</ele>
        <time>2026-07-14T10:36:56Z</time>
      </trkpt>
      <trkpt lat="44.83537" lon="6.85529">
        <ele>2503.41</ele>
        <time>2026-07-14T10:37:08Z</time>
      </trkpt>
      <trkpt lat="44.83543" lon="6.85514">
        <ele>2502.45</ele>
        <time>2026-07-14T10:37:24Z</time>
      </trkpt>
      <trkpt lat="44.83546" lon="6.85499">
        <ele>2500.53</ele>
        <time>2026-07-14T10:37:38Z</time>
      </trkpt>
      <trkpt lat="44.83548" lon="6.8548">
        <ele>2498.6</ele>
        <time>2026-07-14T10:37:53Z</time>
      </trkpt>
      <trkpt lat="44.83552" lon="6.85464">
        <ele>2497.64</ele>
        <time>2026-07-14T10:38:09Z</time>
      </trkpt>
      <trkpt lat="44.83556" lon="6.85452">
        <ele>2496.2</ele>
        <time>2026-07-14T10:38:23Z</time>
      </trkpt>
      <trkpt lat="44.83559" lon="6.85444">
        <ele>2495.72</ele>
        <time>2026-07-14T10:38:36Z</time>
      </trkpt>
      <trkpt lat="44.83561" lon="6.85432">
        <ele>2493.8</ele>
        <time>2026-07-14T10:38:54Z</time>
      </trkpt>
      <trkpt lat="44.83565" lon="6.85414">
        <ele>2492.84</ele>
        <time>2026-07-14T10:39:09Z</time>
      </trkpt>
      <trkpt lat="44.83566" lon="6.85412">
        <ele>2492.84</ele>
        <time>2026-07-14T10:39:10Z</time>
      </trkpt>
      <trkpt lat="44.83568" lon="6.85392">
        <ele>2491.39</ele>
        <time>2026-07-14T10:39:28Z</time>
      </trkpt>
      <trkpt lat="44.83573" lon="6.85386">
        <ele>2490.43</ele>
        <time>2026-07-14T10:39:39Z</time>
      </trkpt>
      <trkpt lat="44.83579" lon="6.85377">
        <ele>2488.99</ele>
        <time>2026-07-14T10:39:53Z</time>
      </trkpt>
      <trkpt lat="44.83584" lon="6.85363">
        <ele>2488.03</ele>
        <time>2026-07-14T10:40:07Z</time>
      </trkpt>
      <trkpt lat="44.83588" lon="6.85354">
        <ele>2486.11</ele>
        <time>2026-07-14T10:40:21Z</time>
      </trkpt>
      <trkpt lat="44.83594" lon="6.85348">
        <ele>2484.66</ele>
        <time>2026-07-14T10:40:37Z</time>
      </trkpt>
      <trkpt lat="44.83595" lon="6.8534">
        <ele>2483.22</ele>
        <time>2026-07-14T10:40:51Z</time>
      </trkpt>
      <trkpt lat="44.83595" lon="6.85325">
        <ele>2481.78</ele>
        <time>2026-07-14T10:41:05Z</time>
      </trkpt>
      <trkpt lat="44.83598" lon="6.85319">
        <ele>2480.82</ele>
        <time>2026-07-14T10:41:20Z</time>
      </trkpt>
      <trkpt lat="44.83599" lon="6.85318">
        <ele>2480.82</ele>
        <time>2026-07-14T10:41:36Z</time>
      </trkpt>
      <trkpt lat="44.83592" lon="6.85321">
        <ele>2480.82</ele>
        <time>2026-07-14T10:41:55Z</time>
      </trkpt>
      <trkpt lat="44.83594" lon="6.85333">
        <ele>2480.82</ele>
        <time>2026-07-14T10:42:08Z</time>
      </trkpt>
      <trkpt lat="44.83598" lon="6.85337">
        <ele>2479.86</ele>
        <time>2026-07-14T10:42:23Z</time>
      </trkpt>
      <trkpt lat="44.836" lon="6.85333">
        <ele>2478.9</ele>
        <time>2026-07-14T10:42:37Z</time>
      </trkpt>
      <trkpt lat="44.83598" lon="6.85332">
        <ele>2478.9</ele>
        <time>2026-07-14T10:42:57Z</time>
      </trkpt>
      <trkpt lat="44.83599" lon="6.85331">
        <ele>2477.94</ele>
        <time>2026-07-14T10:43:04Z</time>
      </trkpt>
      <trkpt lat="44.83601" lon="6.85331">
        <ele>2477.94</ele>
        <time>2026-07-14T10:43:23Z</time>
      </trkpt>
      <trkpt lat="44.83601" lon="6.85328">
        <ele>2477.94</ele>
        <time>2026-07-14T10:43:40Z</time>
      </trkpt>
      <trkpt lat="44.83601" lon="6.85323">
        <ele>2477.45</ele>
        <time>2026-07-14T10:43:53Z</time>
      </trkpt>
      <trkpt lat="44.83599" lon="6.85323">
        <ele>2477.45</ele>
        <time>2026-07-14T10:44:18Z</time>
      </trkpt>
      <trkpt lat="44.83601" lon="6.85323">
        <ele>2476.49</ele>
        <time>2026-07-14T10:44:38Z</time>
      </trkpt>
      <trkpt lat="44.836" lon="6.85324">
        <ele>2476.01</ele>
        <time>2026-07-14T10:45:09Z</time>
      </trkpt>
      <trkpt lat="44.83604" lon="6.85325">
        <ele>2475.53</ele>
        <time>2026-07-14T10:45:42Z</time>
      </trkpt>
      <trkpt lat="44.83601" lon="6.85323">
        <ele>2475.05</ele>
        <time>2026-07-14T10:46:15Z</time>
      </trkpt>
      <trkpt lat="44.836" lon="6.85323">
        <ele>2475.05</ele>
        <time>2026-07-14T10:46:44Z</time>
      </trkpt>
      <trkpt lat="44.83599" lon="6.85324">
        <ele>2474.57</ele>
        <time>2026-07-14T10:47:12Z</time>
      </trkpt>
      <trkpt lat="44.83599" lon="6.85322">
        <ele>2475.53</ele>
        <time>2026-07-14T10:47:45Z</time>
      </trkpt>
      <trkpt lat="44.836" lon="6.85323">
        <ele>2476.01</ele>
        <time>2026-07-14T10:48:15Z</time>
      </trkpt>
      <trkpt lat="44.836" lon="6.85324">
        <ele>2476.01</ele>
        <time>2026-07-14T10:48:40Z</time>
      </trkpt>
      <trkpt lat="44.83598" lon="6.85323">
        <ele>2476.01</ele>
        <time>2026-07-14T10:49:10Z</time>
      </trkpt>
      <trkpt lat="44.836" lon="6.85324">
        <ele>2475.53</ele>
        <time>2026-07-14T10:49:38Z</time>
      </trkpt>
      <trkpt lat="44.83599" lon="6.85325">
        <ele>2475.53</ele>
        <time>2026-07-14T10:49:58Z</time>
      </trkpt>
      <trkpt lat="44.83599" lon="6.85324">
        <ele>2475.53</ele>
        <time>2026-07-14T10:50:29Z</time>
      </trkpt>
      <trkpt lat="44.83599" lon="6.85323">
        <ele>2475.53</ele>
        <time>2026-07-14T10:50:57Z</time>
      </trkpt>
      <trkpt lat="44.83598" lon="6.85323">
        <ele>2475.53</ele>
        <time>2026-07-14T10:51:30Z</time>
      </trkpt>
      <trkpt lat="44.83599" lon="6.85323">
        <ele>2475.05</ele>
        <time>2026-07-14T10:51:55Z</time>
      </trkpt>
      <trkpt lat="44.83599" lon="6.85324">
        <ele>2475.05</ele>
        <time>2026-07-14T10:52:17Z</time>
      </trkpt>
      <trkpt lat="44.83598" lon="6.85324">
        <ele>2475.05</ele>
        <time>2026-07-14T10:52:39Z</time>
      </trkpt>
      <trkpt lat="44.83599" lon="6.85324">
        <ele>2475.05</ele>
        <time>2026-07-14T10:53:12Z</time>
      </trkpt>
      <trkpt lat="44.83597" lon="6.85324">
        <ele>2475.05</ele>
        <time>2026-07-14T10:53:44Z</time>
      </trkpt>
      <trkpt lat="44.83599" lon="6.85324">
        <ele>2474.57</ele>
        <time>2026-07-14T10:54:09Z</time>
      </trkpt>
      <trkpt lat="44.83598" lon="6.85323">
        <ele>2474.57</ele>
        <time>2026-07-14T10:54:38Z</time>
      </trkpt>
      <trkpt lat="44.83597" lon="6.85323">
        <ele>2474.57</ele>
        <time>2026-07-14T10:55:01Z</time>
      </trkpt>
      <trkpt lat="44.83597" lon="6.85323">
        <ele>2473.13</ele>
        <time>2026-07-14T10:55:10Z</time>
      </trkpt>
      <trkpt lat="44.83599" lon="6.85321">
        <ele>2475.05</ele>
        <time>2026-07-14T10:55:25Z</time>
      </trkpt>
      <trkpt lat="44.83598" lon="6.85321">
        <ele>2473.61</ele>
        <time>2026-07-14T10:55:43Z</time>
      </trkpt>
      <trkpt lat="44.83597" lon="6.85324">
        <ele>2475.05</ele>
        <time>2026-07-14T10:55:57Z</time>
      </trkpt>
      <trkpt lat="44.83599" lon="6.85318">
        <ele>2475.05</ele>
        <time>2026-07-14T10:56:10Z</time>
      </trkpt>
      <trkpt lat="44.83595" lon="6.85305">
        <ele>2476.97</ele>
        <time>2026-07-14T10:56:25Z</time>
      </trkpt>
      <trkpt lat="44.83595" lon="6.85301">
        <ele>2475.53</ele>
        <time>2026-07-14T10:56:30Z</time>
      </trkpt>
      <trkpt lat="44.83595" lon="6.85283">
        <ele>2474.09</ele>
        <time>2026-07-14T10:56:48Z</time>
      </trkpt>
      <trkpt lat="44.83601" lon="6.85277">
        <ele>2471.21</ele>
        <time>2026-07-14T10:57:03Z</time>
      </trkpt>
      <trkpt lat="44.83602" lon="6.85274">
        <ele>2469.76</ele>
        <time>2026-07-14T10:57:15Z</time>
      </trkpt>
      <trkpt lat="44.83606" lon="6.8527">
        <ele>2468.32</ele>
        <time>2026-07-14T10:57:29Z</time>
      </trkpt>
      <trkpt lat="44.83606" lon="6.85266">
        <ele>2467.36</ele>
        <time>2026-07-14T10:57:33Z</time>
      </trkpt>
      <trkpt lat="44.83605" lon="6.85251">
        <ele>2465.92</ele>
        <time>2026-07-14T10:57:48Z</time>
      </trkpt>
      <trkpt lat="44.83606" lon="6.85246">
        <ele>2464.96</ele>
        <time>2026-07-14T10:57:53Z</time>
      </trkpt>
      <trkpt lat="44.83607" lon="6.85228">
        <ele>2462.55</ele>
        <time>2026-07-14T10:58:08Z</time>
      </trkpt>
      <trkpt lat="44.83601" lon="6.8521">
        <ele>2461.59</ele>
        <time>2026-07-14T10:58:25Z</time>
      </trkpt>
      <trkpt lat="44.83604" lon="6.85203">
        <ele>2461.11</ele>
        <time>2026-07-14T10:58:33Z</time>
      </trkpt>
      <trkpt lat="44.83612" lon="6.85186">
        <ele>2458.23</ele>
        <time>2026-07-14T10:58:51Z</time>
      </trkpt>
      <trkpt lat="44.83612" lon="6.85176">
        <ele>2457.75</ele>
        <time>2026-07-14T10:58:58Z</time>
      </trkpt>
      <trkpt lat="44.83612" lon="6.85168">
        <ele>2457.27</ele>
        <time>2026-07-14T10:59:04Z</time>
      </trkpt>
      <trkpt lat="44.83619" lon="6.85155">
        <ele>2454.86</ele>
        <time>2026-07-14T10:59:18Z</time>
      </trkpt>
      <trkpt lat="44.83618" lon="6.85129">
        <ele>2453.9</ele>
        <time>2026-07-14T10:59:35Z</time>
      </trkpt>
      <trkpt lat="44.83619" lon="6.85114">
        <ele>2451.5</ele>
        <time>2026-07-14T10:59:48Z</time>
      </trkpt>
      <trkpt lat="44.83613" lon="6.85091">
        <ele>2449.58</ele>
        <time>2026-07-14T11:00:06Z</time>
      </trkpt>
      <trkpt lat="44.83621" lon="6.85079">
        <ele>2447.17</ele>
        <time>2026-07-14T11:00:20Z</time>
      </trkpt>
      <trkpt lat="44.83623" lon="6.85073">
        <ele>2446.21</ele>
        <time>2026-07-14T11:00:26Z</time>
      </trkpt>
      <trkpt lat="44.83616" lon="6.85057">
        <ele>2443.33</ele>
        <time>2026-07-14T11:00:43Z</time>
      </trkpt>
      <trkpt lat="44.83615" lon="6.85044">
        <ele>2440.92</ele>
        <time>2026-07-14T11:00:58Z</time>
      </trkpt>
      <trkpt lat="44.83612" lon="6.85035">
        <ele>2439</ele>
        <time>2026-07-14T11:01:10Z</time>
      </trkpt>
      <trkpt lat="44.83609" lon="6.85024">
        <ele>2437.56</ele>
        <time>2026-07-14T11:01:21Z</time>
      </trkpt>
      <trkpt lat="44.83608" lon="6.85017">
        <ele>2436.6</ele>
        <time>2026-07-14T11:01:29Z</time>
      </trkpt>
      <trkpt lat="44.83607" lon="6.84985">
        <ele>2434.68</ele>
        <time>2026-07-14T11:01:51Z</time>
      </trkpt>
      <trkpt lat="44.83609" lon="6.84971">
        <ele>2434.2</ele>
        <time>2026-07-14T11:02:04Z</time>
      </trkpt>
      <trkpt lat="44.83623" lon="6.84953">
        <ele>2432.75</ele>
        <time>2026-07-14T11:02:22Z</time>
      </trkpt>
      <trkpt lat="44.8363" lon="6.84929">
        <ele>2431.31</ele>
        <time>2026-07-14T11:02:40Z</time>
      </trkpt>
      <trkpt lat="44.8363" lon="6.84927">
        <ele>2431.31</ele>
        <time>2026-07-14T11:02:42Z</time>
      </trkpt>
      <trkpt lat="44.83637" lon="6.84907">
        <ele>2429.39</ele>
        <time>2026-07-14T11:03:00Z</time>
      </trkpt>
      <trkpt lat="44.83648" lon="6.84891">
        <ele>2426.99</ele>
        <time>2026-07-14T11:03:17Z</time>
      </trkpt>
      <trkpt lat="44.83657" lon="6.84874">
        <ele>2424.58</ele>
        <time>2026-07-14T11:03:33Z</time>
      </trkpt>
      <trkpt lat="44.83664" lon="6.84847">
        <ele>2422.18</ele>
        <time>2026-07-14T11:03:51Z</time>
      </trkpt>
      <trkpt lat="44.83667" lon="6.84842">
        <ele>2422.18</ele>
        <time>2026-07-14T11:03:55Z</time>
      </trkpt>
      <trkpt lat="44.83673" lon="6.84828">
        <ele>2421.22</ele>
        <time>2026-07-14T11:04:06Z</time>
      </trkpt>
      <trkpt lat="44.83679" lon="6.84799">
        <ele>2418.81</ele>
        <time>2026-07-14T11:04:27Z</time>
      </trkpt>
      <trkpt lat="44.83686" lon="6.84781">
        <ele>2417.37</ele>
        <time>2026-07-14T11:04:40Z</time>
      </trkpt>
      <trkpt lat="44.8369" lon="6.84772">
        <ele>2416.41</ele>
        <time>2026-07-14T11:04:47Z</time>
      </trkpt>
      <trkpt lat="44.83699" lon="6.84758">
        <ele>2414.97</ele>
        <time>2026-07-14T11:05:03Z</time>
      </trkpt>
      <trkpt lat="44.83703" lon="6.84747">
        <ele>2414.01</ele>
        <time>2026-07-14T11:05:13Z</time>
      </trkpt>
      <trkpt lat="44.83714" lon="6.84735">
        <ele>2412.09</ele>
        <time>2026-07-14T11:05:28Z</time>
      </trkpt>
      <trkpt lat="44.83722" lon="6.84717">
        <ele>2409.68</ele>
        <time>2026-07-14T11:05:42Z</time>
      </trkpt>
      <trkpt lat="44.83727" lon="6.84698">
        <ele>2408.24</ele>
        <time>2026-07-14T11:05:59Z</time>
      </trkpt>
      <trkpt lat="44.83732" lon="6.84685">
        <ele>2406.8</ele>
        <time>2026-07-14T11:06:10Z</time>
      </trkpt>
      <trkpt lat="44.8374" lon="6.84677">
        <ele>2405.84</ele>
        <time>2026-07-14T11:06:19Z</time>
      </trkpt>
      <trkpt lat="44.83745" lon="6.84661">
        <ele>2404.39</ele>
        <time>2026-07-14T11:06:34Z</time>
      </trkpt>
      <trkpt lat="44.83747" lon="6.84656">
        <ele>2404.39</ele>
        <time>2026-07-14T11:06:39Z</time>
      </trkpt>
      <trkpt lat="44.83752" lon="6.84653">
        <ele>2403.43</ele>
        <time>2026-07-14T11:06:44Z</time>
      </trkpt>
      <trkpt lat="44.83762" lon="6.84649">
        <ele>2401.99</ele>
        <time>2026-07-14T11:06:59Z</time>
      </trkpt>
      <trkpt lat="44.83763" lon="6.84649">
        <ele>2401.51</ele>
        <time>2026-07-14T11:07:00Z</time>
      </trkpt>
      <trkpt lat="44.83771" lon="6.84642">
        <ele>2400.07</ele>
        <time>2026-07-14T11:07:09Z</time>
      </trkpt>
      <trkpt lat="44.83773" lon="6.84639">
        <ele>2400.07</ele>
        <time>2026-07-14T11:07:11Z</time>
      </trkpt>
      <trkpt lat="44.83783" lon="6.84629">
        <ele>2398.63</ele>
        <time>2026-07-14T11:07:22Z</time>
      </trkpt>
      <trkpt lat="44.83789" lon="6.84608">
        <ele>2396.7</ele>
        <time>2026-07-14T11:07:38Z</time>
      </trkpt>
      <trkpt lat="44.83791" lon="6.84604">
        <ele>2396.22</ele>
        <time>2026-07-14T11:07:41Z</time>
      </trkpt>
      <trkpt lat="44.83801" lon="6.84592">
        <ele>2394.78</ele>
        <time>2026-07-14T11:07:54Z</time>
      </trkpt>
      <trkpt lat="44.83807" lon="6.84586">
        <ele>2393.34</ele>
        <time>2026-07-14T11:08:02Z</time>
      </trkpt>
      <trkpt lat="44.83811" lon="6.84583">
        <ele>2392.38</ele>
        <time>2026-07-14T11:08:07Z</time>
      </trkpt>
      <trkpt lat="44.83822" lon="6.84565">
        <ele>2390.46</ele>
        <time>2026-07-14T11:08:23Z</time>
      </trkpt>
      <trkpt lat="44.83823" lon="6.84564">
        <ele>2389.97</ele>
        <time>2026-07-14T11:08:24Z</time>
      </trkpt>
      <trkpt lat="44.8383" lon="6.84555">
        <ele>2389.49</ele>
        <time>2026-07-14T11:08:32Z</time>
      </trkpt>
      <trkpt lat="44.83843" lon="6.84543">
        <ele>2386.13</ele>
        <time>2026-07-14T11:08:45Z</time>
      </trkpt>
      <trkpt lat="44.83852" lon="6.8452">
        <ele>2383.73</ele>
        <time>2026-07-14T11:09:03Z</time>
      </trkpt>
      <trkpt lat="44.83862" lon="6.84512">
        <ele>2381.8</ele>
        <time>2026-07-14T11:09:15Z</time>
      </trkpt>
      <trkpt lat="44.83868" lon="6.84502">
        <ele>2380.84</ele>
        <time>2026-07-14T11:09:23Z</time>
      </trkpt>
      <trkpt lat="44.83871" lon="6.84498">
        <ele>2380.36</ele>
        <time>2026-07-14T11:09:27Z</time>
      </trkpt>
      <trkpt lat="44.83885" lon="6.84483">
        <ele>2377.48</ele>
        <time>2026-07-14T11:09:42Z</time>
      </trkpt>
      <trkpt lat="44.839" lon="6.84467">
        <ele>2375.07</ele>
        <time>2026-07-14T11:09:58Z</time>
      </trkpt>
      <trkpt lat="44.83913" lon="6.84443">
        <ele>2373.63</ele>
        <time>2026-07-14T11:10:17Z</time>
      </trkpt>
      <trkpt lat="44.83915" lon="6.8444">
        <ele>2373.15</ele>
        <time>2026-07-14T11:10:20Z</time>
      </trkpt>
      <trkpt lat="44.8393" lon="6.84427">
        <ele>2371.23</ele>
        <time>2026-07-14T11:10:39Z</time>
      </trkpt>
      <trkpt lat="44.83937" lon="6.84415">
        <ele>2369.79</ele>
        <time>2026-07-14T11:10:50Z</time>
      </trkpt>
      <trkpt lat="44.83942" lon="6.84404">
        <ele>2369.31</ele>
        <time>2026-07-14T11:10:58Z</time>
      </trkpt>
      <trkpt lat="44.83944" lon="6.84377">
        <ele>2367.86</ele>
        <time>2026-07-14T11:11:16Z</time>
      </trkpt>
      <trkpt lat="44.83954" lon="6.84353">
        <ele>2366.9</ele>
        <time>2026-07-14T11:11:35Z</time>
      </trkpt>
      <trkpt lat="44.83957" lon="6.84346">
        <ele>2365.46</ele>
        <time>2026-07-14T11:11:40Z</time>
      </trkpt>
      <trkpt lat="44.83957" lon="6.84333">
        <ele>2364.98</ele>
        <time>2026-07-14T11:11:48Z</time>
      </trkpt>
      <trkpt lat="44.83958" lon="6.84304">
        <ele>2363.54</ele>
        <time>2026-07-14T11:12:06Z</time>
      </trkpt>
      <trkpt lat="44.83959" lon="6.84291">
        <ele>2362.58</ele>
        <time>2026-07-14T11:12:14Z</time>
      </trkpt>
      <trkpt lat="44.8396" lon="6.8428">
        <ele>2361.62</ele>
        <time>2026-07-14T11:12:21Z</time>
      </trkpt>
      <trkpt lat="44.83963" lon="6.84259">
        <ele>2359.69</ele>
        <time>2026-07-14T11:12:38Z</time>
      </trkpt>
      <trkpt lat="44.83969" lon="6.84242">
        <ele>2357.77</ele>
        <time>2026-07-14T11:12:52Z</time>
      </trkpt>
      <trkpt lat="44.83972" lon="6.84237">
        <ele>2357.29</ele>
        <time>2026-07-14T11:12:57Z</time>
      </trkpt>
      <trkpt lat="44.83974" lon="6.84213">
        <ele>2354.89</ele>
        <time>2026-07-14T11:13:15Z</time>
      </trkpt>
      <trkpt lat="44.83974" lon="6.84195">
        <ele>2354.41</ele>
        <time>2026-07-14T11:13:29Z</time>
      </trkpt>
      <trkpt lat="44.83975" lon="6.84184">
        <ele>2353.93</ele>
        <time>2026-07-14T11:13:37Z</time>
      </trkpt>
      <trkpt lat="44.83978" lon="6.84165">
        <ele>2352.48</ele>
        <time>2026-07-14T11:13:53Z</time>
      </trkpt>
      <trkpt lat="44.83972" lon="6.84147">
        <ele>2350.56</ele>
        <time>2026-07-14T11:14:06Z</time>
      </trkpt>
      <trkpt lat="44.83973" lon="6.84144">
        <ele>2350.08</ele>
        <time>2026-07-14T11:14:08Z</time>
      </trkpt>
      <trkpt lat="44.83979" lon="6.84131">
        <ele>2349.6</ele>
        <time>2026-07-14T11:14:19Z</time>
      </trkpt>
      <trkpt lat="44.83983" lon="6.84117">
        <ele>2348.16</ele>
        <time>2026-07-14T11:14:29Z</time>
      </trkpt>
      <trkpt lat="44.83992" lon="6.84098">
        <ele>2346.72</ele>
        <time>2026-07-14T11:14:44Z</time>
      </trkpt>
      <trkpt lat="44.84003" lon="6.8408">
        <ele>2344.79</ele>
        <time>2026-07-14T11:15:00Z</time>
      </trkpt>
      <trkpt lat="44.84008" lon="6.84058">
        <ele>2343.35</ele>
        <time>2026-07-14T11:15:17Z</time>
      </trkpt>
      <trkpt lat="44.84008" lon="6.84056">
        <ele>2343.35</ele>
        <time>2026-07-14T11:15:19Z</time>
      </trkpt>
      <trkpt lat="44.84018" lon="6.84036">
        <ele>2341.91</ele>
        <time>2026-07-14T11:15:33Z</time>
      </trkpt>
      <trkpt lat="44.84026" lon="6.84018">
        <ele>2340.47</ele>
        <time>2026-07-14T11:15:45Z</time>
      </trkpt>
      <trkpt lat="44.84029" lon="6.83992">
        <ele>2338.54</ele>
        <time>2026-07-14T11:16:02Z</time>
      </trkpt>
      <trkpt lat="44.84037" lon="6.83968">
        <ele>2336.62</ele>
        <time>2026-07-14T11:16:19Z</time>
      </trkpt>
      <trkpt lat="44.84043" lon="6.83956">
        <ele>2336.14</ele>
        <time>2026-07-14T11:16:29Z</time>
      </trkpt>
      <trkpt lat="44.8405" lon="6.83939">
        <ele>2334.22</ele>
        <time>2026-07-14T11:16:43Z</time>
      </trkpt>
      <trkpt lat="44.8406" lon="6.83913">
        <ele>2333.26</ele>
        <time>2026-07-14T11:17:01Z</time>
      </trkpt>
      <trkpt lat="44.84074" lon="6.83891">
        <ele>2332.3</ele>
        <time>2026-07-14T11:17:19Z</time>
      </trkpt>
      <trkpt lat="44.84084" lon="6.8388">
        <ele>2330.85</ele>
        <time>2026-07-14T11:17:30Z</time>
      </trkpt>
      <trkpt lat="44.84091" lon="6.83869">
        <ele>2329.41</ele>
        <time>2026-07-14T11:17:41Z</time>
      </trkpt>
      <trkpt lat="44.84102" lon="6.83841">
        <ele>2327.97</ele>
        <time>2026-07-14T11:18:01Z</time>
      </trkpt>
      <trkpt lat="44.84106" lon="6.83826">
        <ele>2326.53</ele>
        <time>2026-07-14T11:18:12Z</time>
      </trkpt>
      <trkpt lat="44.84106" lon="6.83823">
        <ele>2325.57</ele>
        <time>2026-07-14T11:18:14Z</time>
      </trkpt>
      <trkpt lat="44.8411" lon="6.83808">
        <ele>2325.09</ele>
        <time>2026-07-14T11:18:24Z</time>
      </trkpt>
      <trkpt lat="44.84111" lon="6.83802">
        <ele>2324.61</ele>
        <time>2026-07-14T11:18:28Z</time>
      </trkpt>
      <trkpt lat="44.84116" lon="6.83774">
        <ele>2324.12</ele>
        <time>2026-07-14T11:18:47Z</time>
      </trkpt>
      <trkpt lat="44.84119" lon="6.83752">
        <ele>2322.2</ele>
        <time>2026-07-14T11:19:02Z</time>
      </trkpt>
      <trkpt lat="44.84119" lon="6.83741">
        <ele>2321.24</ele>
        <time>2026-07-14T11:19:09Z</time>
      </trkpt>
      <trkpt lat="44.84123" lon="6.83733">
        <ele>2320.76</ele>
        <time>2026-07-14T11:19:27Z</time>
      </trkpt>
      <trkpt lat="44.84122" lon="6.8373">
        <ele>2320.76</ele>
        <time>2026-07-14T11:19:45Z</time>
      </trkpt>
      <trkpt lat="44.84124" lon="6.83721">
        <ele>2320.28</ele>
        <time>2026-07-14T11:20:14Z</time>
      </trkpt>
      <trkpt lat="44.8413" lon="6.83702">
        <ele>2319.32</ele>
        <time>2026-07-14T11:20:32Z</time>
      </trkpt>
      <trkpt lat="44.84133" lon="6.8369">
        <ele>2317.4</ele>
        <time>2026-07-14T11:20:46Z</time>
      </trkpt>
      <trkpt lat="44.84132" lon="6.83678">
        <ele>2315.95</ele>
        <time>2026-07-14T11:20:58Z</time>
      </trkpt>
      <trkpt lat="44.84131" lon="6.83671">
        <ele>2315.95</ele>
        <time>2026-07-14T11:21:12Z</time>
      </trkpt>
      <trkpt lat="44.84133" lon="6.83664">
        <ele>2314.99</ele>
        <time>2026-07-14T11:21:27Z</time>
      </trkpt>
      <trkpt lat="44.84135" lon="6.83647">
        <ele>2312.11</ele>
        <time>2026-07-14T11:21:46Z</time>
      </trkpt>
      <trkpt lat="44.84131" lon="6.83627">
        <ele>2310.19</ele>
        <time>2026-07-14T11:22:03Z</time>
      </trkpt>
      <trkpt lat="44.84128" lon="6.83612">
        <ele>2308.74</ele>
        <time>2026-07-14T11:22:19Z</time>
      </trkpt>
      <trkpt lat="44.84126" lon="6.83609">
        <ele>2307.78</ele>
        <time>2026-07-14T11:22:21Z</time>
      </trkpt>
      <trkpt lat="44.84129" lon="6.83595">
        <ele>2306.82</ele>
        <time>2026-07-14T11:22:35Z</time>
      </trkpt>
      <trkpt lat="44.84132" lon="6.83584">
        <ele>2306.34</ele>
        <time>2026-07-14T11:22:44Z</time>
      </trkpt>
      <trkpt lat="44.84131" lon="6.83576">
        <ele>2305.86</ele>
        <time>2026-07-14T11:22:49Z</time>
      </trkpt>
      <trkpt lat="44.84133" lon="6.83549">
        <ele>2303.94</ele>
        <time>2026-07-14T11:23:07Z</time>
      </trkpt>
      <trkpt lat="44.84133" lon="6.83548">
        <ele>2303.94</ele>
        <time>2026-07-14T11:23:08Z</time>
      </trkpt>
      <trkpt lat="44.84133" lon="6.83533">
        <ele>2302.49</ele>
        <time>2026-07-14T11:23:18Z</time>
      </trkpt>
      <trkpt lat="44.84128" lon="6.83509">
        <ele>2300.09</ele>
        <time>2026-07-14T11:23:35Z</time>
      </trkpt>
      <trkpt lat="44.84121" lon="6.83485">
        <ele>2299.13</ele>
        <time>2026-07-14T11:23:51Z</time>
      </trkpt>
      <trkpt lat="44.84118" lon="6.8348">
        <ele>2298.17</ele>
        <time>2026-07-14T11:24:08Z</time>
      </trkpt>
      <trkpt lat="44.84116" lon="6.83465">
        <ele>2298.17</ele>
        <time>2026-07-14T11:24:30Z</time>
      </trkpt>
      <trkpt lat="44.84115" lon="6.83457">
        <ele>2298.17</ele>
        <time>2026-07-14T11:24:35Z</time>
      </trkpt>
      <trkpt lat="44.84115" lon="6.83451">
        <ele>2297.69</ele>
        <time>2026-07-14T11:24:39Z</time>
      </trkpt>
      <trkpt lat="44.84112" lon="6.83432">
        <ele>2297.21</ele>
        <time>2026-07-14T11:24:52Z</time>
      </trkpt>
      <trkpt lat="44.84111" lon="6.83423">
        <ele>2297.21</ele>
        <time>2026-07-14T11:24:58Z</time>
      </trkpt>
      <trkpt lat="44.8411" lon="6.83416">
        <ele>2296.25</ele>
        <time>2026-07-14T11:25:02Z</time>
      </trkpt>
      <trkpt lat="44.84111" lon="6.83409">
        <ele>2296.25</ele>
        <time>2026-07-14T11:25:06Z</time>
      </trkpt>
      <trkpt lat="44.84108" lon="6.83391">
        <ele>2296.25</ele>
        <time>2026-07-14T11:25:22Z</time>
      </trkpt>
      <trkpt lat="44.84107" lon="6.8338">
        <ele>2295.77</ele>
        <time>2026-07-14T11:25:29Z</time>
      </trkpt>
      <trkpt lat="44.84108" lon="6.83352">
        <ele>2294.8</ele>
        <time>2026-07-14T11:25:48Z</time>
      </trkpt>
      <trkpt lat="44.84109" lon="6.83325">
        <ele>2292.88</ele>
        <time>2026-07-14T11:26:04Z</time>
      </trkpt>
      <trkpt lat="44.84113" lon="6.83299">
        <ele>2292.88</ele>
        <time>2026-07-14T11:26:20Z</time>
      </trkpt>
      <trkpt lat="44.84123" lon="6.83283">
        <ele>2290.96</ele>
        <time>2026-07-14T11:26:36Z</time>
      </trkpt>
      <trkpt lat="44.84135" lon="6.83256">
        <ele>2290.48</ele>
        <time>2026-07-14T11:26:55Z</time>
      </trkpt>
      <trkpt lat="44.84138" lon="6.83221">
        <ele>2290</ele>
        <time>2026-07-14T11:27:17Z</time>
      </trkpt>
      <trkpt lat="44.84138" lon="6.83213">
        <ele>2290</ele>
        <time>2026-07-14T11:27:23Z</time>
      </trkpt>
      <trkpt lat="44.84149" lon="6.83187">
        <ele>2288.08</ele>
        <time>2026-07-14T11:27:44Z</time>
      </trkpt>
      <trkpt lat="44.84147" lon="6.83167">
        <ele>2287.59</ele>
        <time>2026-07-14T11:27:59Z</time>
      </trkpt>
      <trkpt lat="44.84148" lon="6.8316">
        <ele>2287.59</ele>
        <time>2026-07-14T11:28:04Z</time>
      </trkpt>
      <trkpt lat="44.84152" lon="6.83142">
        <ele>2286.15</ele>
        <time>2026-07-14T11:28:18Z</time>
      </trkpt>
      <trkpt lat="44.84153" lon="6.83134">
        <ele>2285.67</ele>
        <time>2026-07-14T11:28:24Z</time>
      </trkpt>
      <trkpt lat="44.84154" lon="6.8312">
        <ele>2283.75</ele>
        <time>2026-07-14T11:28:36Z</time>
      </trkpt>
      <trkpt lat="44.84153" lon="6.8311">
        <ele>2282.79</ele>
        <time>2026-07-14T11:28:44Z</time>
      </trkpt>
      <trkpt lat="44.84153" lon="6.83103">
        <ele>2282.79</ele>
        <time>2026-07-14T11:28:49Z</time>
      </trkpt>
      <trkpt lat="44.84156" lon="6.83089">
        <ele>2279.9</ele>
        <time>2026-07-14T11:29:01Z</time>
      </trkpt>
      <trkpt lat="44.84161" lon="6.83063">
        <ele>2278.46</ele>
        <time>2026-07-14T11:29:18Z</time>
      </trkpt>
      <trkpt lat="44.84162" lon="6.83038">
        <ele>2276.54</ele>
        <time>2026-07-14T11:29:34Z</time>
      </trkpt>
      <trkpt lat="44.84163" lon="6.83029">
        <ele>2276.06</ele>
        <time>2026-07-14T11:29:41Z</time>
      </trkpt>
      <trkpt lat="44.84163" lon="6.83008">
        <ele>2274.14</ele>
        <time>2026-07-14T11:29:56Z</time>
      </trkpt>
      <trkpt lat="44.84167" lon="6.82985">
        <ele>2272.21</ele>
        <time>2026-07-14T11:30:11Z</time>
      </trkpt>
      <trkpt lat="44.84165" lon="6.82972">
        <ele>2271.25</ele>
        <time>2026-07-14T11:30:20Z</time>
      </trkpt>
      <trkpt lat="44.84161" lon="6.82947">
        <ele>2269.81</ele>
        <time>2026-07-14T11:30:37Z</time>
      </trkpt>
      <trkpt lat="44.84162" lon="6.82942">
        <ele>2269.81</ele>
        <time>2026-07-14T11:30:40Z</time>
      </trkpt>
      <trkpt lat="44.84161" lon="6.82937">
        <ele>2269.81</ele>
        <time>2026-07-14T11:30:44Z</time>
      </trkpt>
      <trkpt lat="44.84162" lon="6.82931">
        <ele>2269.33</ele>
        <time>2026-07-14T11:30:48Z</time>
      </trkpt>
      <trkpt lat="44.84164" lon="6.82914">
        <ele>2268.85</ele>
        <time>2026-07-14T11:30:59Z</time>
      </trkpt>
      <trkpt lat="44.84168" lon="6.82911">
        <ele>2268.37</ele>
        <time>2026-07-14T11:31:03Z</time>
      </trkpt>
      <trkpt lat="44.84183" lon="6.82895">
        <ele>2265.96</ele>
        <time>2026-07-14T11:31:19Z</time>
      </trkpt>
      <trkpt lat="44.84183" lon="6.8289">
        <ele>2265.48</ele>
        <time>2026-07-14T11:31:23Z</time>
      </trkpt>
      <trkpt lat="44.8419" lon="6.82868">
        <ele>2262.6</ele>
        <time>2026-07-14T11:31:39Z</time>
      </trkpt>
      <trkpt lat="44.84196" lon="6.82843">
        <ele>2260.68</ele>
        <time>2026-07-14T11:31:55Z</time>
      </trkpt>
      <trkpt lat="44.84196" lon="6.82828">
        <ele>2259.72</ele>
        <time>2026-07-14T11:32:04Z</time>
      </trkpt>
      <trkpt lat="44.842" lon="6.8281">
        <ele>2258.27</ele>
        <time>2026-07-14T11:32:19Z</time>
      </trkpt>
      <trkpt lat="44.84209" lon="6.8279">
        <ele>2255.87</ele>
        <time>2026-07-14T11:32:35Z</time>
      </trkpt>
      <trkpt lat="44.84213" lon="6.82757">
        <ele>2253.47</ele>
        <time>2026-07-14T11:32:54Z</time>
      </trkpt>
      <trkpt lat="44.84218" lon="6.82735">
        <ele>2252.03</ele>
        <time>2026-07-14T11:33:09Z</time>
      </trkpt>
      <trkpt lat="44.8422" lon="6.82706">
        <ele>2248.66</ele>
        <time>2026-07-14T11:33:28Z</time>
      </trkpt>
      <trkpt lat="44.84224" lon="6.82678">
        <ele>2246.74</ele>
        <time>2026-07-14T11:33:46Z</time>
      </trkpt>
      <trkpt lat="44.84223" lon="6.8266">
        <ele>2244.33</ele>
        <time>2026-07-14T11:34:04Z</time>
      </trkpt>
      <trkpt lat="44.84217" lon="6.82646">
        <ele>2240.97</ele>
        <time>2026-07-14T11:34:19Z</time>
      </trkpt>
      <trkpt lat="44.8421" lon="6.82621">
        <ele>2238.09</ele>
        <time>2026-07-14T11:34:38Z</time>
      </trkpt>
      <trkpt lat="44.84208" lon="6.82612">
        <ele>2238.09</ele>
        <time>2026-07-14T11:34:47Z</time>
      </trkpt>
      <trkpt lat="44.84208" lon="6.82604">
        <ele>2237.13</ele>
        <time>2026-07-14T11:34:54Z</time>
      </trkpt>
      <trkpt lat="44.84209" lon="6.8259">
        <ele>2234.72</ele>
        <time>2026-07-14T11:35:11Z</time>
      </trkpt>
      <trkpt lat="44.84209" lon="6.82568">
        <ele>2232.8</ele>
        <time>2026-07-14T11:35:30Z</time>
      </trkpt>
      <trkpt lat="44.8421" lon="6.82544">
        <ele>2229.92</ele>
        <time>2026-07-14T11:35:48Z</time>
      </trkpt>
      <trkpt lat="44.8421" lon="6.82532">
        <ele>2227.99</ele>
        <time>2026-07-14T11:36:06Z</time>
      </trkpt>
      <trkpt lat="44.84206" lon="6.8252">
        <ele>2224.63</ele>
        <time>2026-07-14T11:36:21Z</time>
      </trkpt>
      <trkpt lat="44.84203" lon="6.82503">
        <ele>2223.19</ele>
        <time>2026-07-14T11:36:39Z</time>
      </trkpt>
      <trkpt lat="44.84202" lon="6.82493">
        <ele>2221.74</ele>
        <time>2026-07-14T11:36:55Z</time>
      </trkpt>
      <trkpt lat="44.84199" lon="6.82478">
        <ele>2218.86</ele>
        <time>2026-07-14T11:37:12Z</time>
      </trkpt>
      <trkpt lat="44.84196" lon="6.82472">
        <ele>2217.9</ele>
        <time>2026-07-14T11:37:26Z</time>
      </trkpt>
      <trkpt lat="44.84195" lon="6.82465">
        <ele>2215.5</ele>
        <time>2026-07-14T11:37:39Z</time>
      </trkpt>
      <trkpt lat="44.84193" lon="6.82455">
        <ele>2213.09</ele>
        <time>2026-07-14T11:37:55Z</time>
      </trkpt>
      <trkpt lat="44.84188" lon="6.82442">
        <ele>2210.21</ele>
        <time>2026-07-14T11:38:12Z</time>
      </trkpt>
      <trkpt lat="44.84197" lon="6.82434">
        <ele>2207.32</ele>
        <time>2026-07-14T11:38:29Z</time>
      </trkpt>
      <trkpt lat="44.84198" lon="6.82421">
        <ele>2204.44</ele>
        <time>2026-07-14T11:38:45Z</time>
      </trkpt>
      <trkpt lat="44.84193" lon="6.82407">
        <ele>2202.04</ele>
        <time>2026-07-14T11:39:00Z</time>
      </trkpt>
      <trkpt lat="44.84193" lon="6.82395">
        <ele>2199.63</ele>
        <time>2026-07-14T11:39:15Z</time>
      </trkpt>
      <trkpt lat="44.84194" lon="6.82381">
        <ele>2196.27</ele>
        <time>2026-07-14T11:39:32Z</time>
      </trkpt>
      <trkpt lat="44.84201" lon="6.82368">
        <ele>2193.87</ele>
        <time>2026-07-14T11:39:50Z</time>
      </trkpt>
      <trkpt lat="44.84201" lon="6.82357">
        <ele>2190.98</ele>
        <time>2026-07-14T11:40:06Z</time>
      </trkpt>
      <trkpt lat="44.84204" lon="6.82344">
        <ele>2188.58</ele>
        <time>2026-07-14T11:40:23Z</time>
      </trkpt>
      <trkpt lat="44.84202" lon="6.82328">
        <ele>2185.21</ele>
        <time>2026-07-14T11:40:38Z</time>
      </trkpt>
      <trkpt lat="44.84202" lon="6.82319">
        <ele>2183.77</ele>
        <time>2026-07-14T11:40:56Z</time>
      </trkpt>
      <trkpt lat="44.84204" lon="6.82312">
        <ele>2182.33</ele>
        <time>2026-07-14T11:41:23Z</time>
      </trkpt>
      <trkpt lat="44.84204" lon="6.82301">
        <ele>2179.93</ele>
        <time>2026-07-14T11:41:36Z</time>
      </trkpt>
      <trkpt lat="44.84197" lon="6.82285">
        <ele>2178</ele>
        <time>2026-07-14T11:41:51Z</time>
      </trkpt>
      <trkpt lat="44.84191" lon="6.82275">
        <ele>2176.08</ele>
        <time>2026-07-14T11:42:05Z</time>
      </trkpt>
      <trkpt lat="44.84189" lon="6.82268">
        <ele>2174.16</ele>
        <time>2026-07-14T11:42:20Z</time>
      </trkpt>
      <trkpt lat="44.84194" lon="6.82262">
        <ele>2171.76</ele>
        <time>2026-07-14T11:42:35Z</time>
      </trkpt>
      <trkpt lat="44.84193" lon="6.82254">
        <ele>2169.35</ele>
        <time>2026-07-14T11:42:49Z</time>
      </trkpt>
      <trkpt lat="44.8419" lon="6.82252">
        <ele>2168.87</ele>
        <time>2026-07-14T11:43:04Z</time>
      </trkpt>
      <trkpt lat="44.8419" lon="6.82244">
        <ele>2166.95</ele>
        <time>2026-07-14T11:43:21Z</time>
      </trkpt>
      <trkpt lat="44.84187" lon="6.8224">
        <ele>2165.99</ele>
        <time>2026-07-14T11:43:39Z</time>
      </trkpt>
      <trkpt lat="44.84188" lon="6.82238">
        <ele>2165.99</ele>
        <time>2026-07-14T11:44:04Z</time>
      </trkpt>
      <trkpt lat="44.84187" lon="6.82232">
        <ele>2163.58</ele>
        <time>2026-07-14T11:44:16Z</time>
      </trkpt>
      <trkpt lat="44.84187" lon="6.82224">
        <ele>2161.66</ele>
        <time>2026-07-14T11:44:34Z</time>
      </trkpt>
      <trkpt lat="44.84186" lon="6.82216">
        <ele>2159.26</ele>
        <time>2026-07-14T11:44:51Z</time>
      </trkpt>
      <trkpt lat="44.84186" lon="6.82207">
        <ele>2156.86</ele>
        <time>2026-07-14T11:45:07Z</time>
      </trkpt>
      <trkpt lat="44.84185" lon="6.82199">
        <ele>2154.45</ele>
        <time>2026-07-14T11:45:21Z</time>
      </trkpt>
      <trkpt lat="44.84187" lon="6.82185">
        <ele>2152.05</ele>
        <time>2026-07-14T11:45:37Z</time>
      </trkpt>
      <trkpt lat="44.8419" lon="6.82163">
        <ele>2149.16</ele>
        <time>2026-07-14T11:45:55Z</time>
      </trkpt>
      <trkpt lat="44.84193" lon="6.82155">
        <ele>2147.24</ele>
        <time>2026-07-14T11:46:13Z</time>
      </trkpt>
      <trkpt lat="44.84195" lon="6.8215">
        <ele>2144.84</ele>
        <time>2026-07-14T11:46:31Z</time>
      </trkpt>
      <trkpt lat="44.84195" lon="6.8214">
        <ele>2141.95</ele>
        <time>2026-07-14T11:46:47Z</time>
      </trkpt>
      <trkpt lat="44.842" lon="6.82132">
        <ele>2139.55</ele>
        <time>2026-07-14T11:47:01Z</time>
      </trkpt>
      <trkpt lat="44.84204" lon="6.82128">
        <ele>2137.15</ele>
        <time>2026-07-14T11:47:15Z</time>
      </trkpt>
      <trkpt lat="44.84204" lon="6.82122">
        <ele>2135.23</ele>
        <time>2026-07-14T11:47:29Z</time>
      </trkpt>
      <trkpt lat="44.84206" lon="6.82106">
        <ele>2132.82</ele>
        <time>2026-07-14T11:47:44Z</time>
      </trkpt>
      <trkpt lat="44.84205" lon="6.82088">
        <ele>2131.86</ele>
        <time>2026-07-14T11:48:00Z</time>
      </trkpt>
      <trkpt lat="44.84207" lon="6.82085">
        <ele>2133.3</ele>
        <time>2026-07-14T11:48:04Z</time>
      </trkpt>
      <trkpt lat="44.84213" lon="6.82073">
        <ele>2131.86</ele>
        <time>2026-07-14T11:48:18Z</time>
      </trkpt>
      <trkpt lat="44.84216" lon="6.8206">
        <ele>2129.46</ele>
        <time>2026-07-14T11:48:33Z</time>
      </trkpt>
      <trkpt lat="44.84226" lon="6.82047">
        <ele>2127.05</ele>
        <time>2026-07-14T11:48:50Z</time>
      </trkpt>
      <trkpt lat="44.84225" lon="6.82033">
        <ele>2124.17</ele>
        <time>2026-07-14T11:49:07Z</time>
      </trkpt>
      <trkpt lat="44.84225" lon="6.82024">
        <ele>2122.73</ele>
        <time>2026-07-14T11:49:18Z</time>
      </trkpt>
      <trkpt lat="44.84226" lon="6.82014">
        <ele>2121.77</ele>
        <time>2026-07-14T11:49:35Z</time>
      </trkpt>
      <trkpt lat="44.84233" lon="6.82004">
        <ele>2118.4</ele>
        <time>2026-07-14T11:49:53Z</time>
      </trkpt>
      <trkpt lat="44.84236" lon="6.81991">
        <ele>2115.52</ele>
        <time>2026-07-14T11:50:10Z</time>
      </trkpt>
      <trkpt lat="44.84241" lon="6.8198">
        <ele>2112.63</ele>
        <time>2026-07-14T11:50:26Z</time>
      </trkpt>
      <trkpt lat="44.84245" lon="6.81968">
        <ele>2109.75</ele>
        <time>2026-07-14T11:50:42Z</time>
      </trkpt>
      <trkpt lat="44.84245" lon="6.81955">
        <ele>2107.35</ele>
        <time>2026-07-14T11:50:57Z</time>
      </trkpt>
      <trkpt lat="44.84253" lon="6.8195">
        <ele>2105.42</ele>
        <time>2026-07-14T11:51:13Z</time>
      </trkpt>
      <trkpt lat="44.84255" lon="6.81941">
        <ele>2102.54</ele>
        <time>2026-07-14T11:51:29Z</time>
      </trkpt>
      <trkpt lat="44.84262" lon="6.81935">
        <ele>2100.62</ele>
        <time>2026-07-14T11:51:43Z</time>
      </trkpt>
      <trkpt lat="44.84266" lon="6.81925">
        <ele>2097.73</ele>
        <time>2026-07-14T11:51:59Z</time>
      </trkpt>
      <trkpt lat="44.8427" lon="6.81923">
        <ele>2096.29</ele>
        <time>2026-07-14T11:52:14Z</time>
      </trkpt>
      <trkpt lat="44.84274" lon="6.81925">
        <ele>2094.37</ele>
        <time>2026-07-14T11:52:28Z</time>
      </trkpt>
      <trkpt lat="44.84277" lon="6.81914">
        <ele>2091.49</ele>
        <time>2026-07-14T11:52:43Z</time>
      </trkpt>
      <trkpt lat="44.84281" lon="6.8191">
        <ele>2089.08</ele>
        <time>2026-07-14T11:52:59Z</time>
      </trkpt>
      <trkpt lat="44.84285" lon="6.81902">
        <ele>2086.68</ele>
        <time>2026-07-14T11:53:15Z</time>
      </trkpt>
      <trkpt lat="44.84287" lon="6.81889">
        <ele>2085.24</ele>
        <time>2026-07-14T11:53:29Z</time>
      </trkpt>
      <trkpt lat="44.84288" lon="6.81875">
        <ele>2084.28</ele>
        <time>2026-07-14T11:53:44Z</time>
      </trkpt>
      <trkpt lat="44.84287" lon="6.81863">
        <ele>2084.28</ele>
        <time>2026-07-14T11:53:56Z</time>
      </trkpt>
      <trkpt lat="44.84286" lon="6.81834">
        <ele>2082.35</ele>
        <time>2026-07-14T11:54:18Z</time>
      </trkpt>
      <trkpt lat="44.84285" lon="6.81813">
        <ele>2081.39</ele>
        <time>2026-07-14T11:54:34Z</time>
      </trkpt>
      <trkpt lat="44.84287" lon="6.8179">
        <ele>2080.43</ele>
        <time>2026-07-14T11:54:52Z</time>
      </trkpt>
      <trkpt lat="44.84289" lon="6.81763">
        <ele>2078.51</ele>
        <time>2026-07-14T11:55:11Z</time>
      </trkpt>
      <trkpt lat="44.8429" lon="6.81757">
        <ele>2078.03</ele>
        <time>2026-07-14T11:55:15Z</time>
      </trkpt>
      <trkpt lat="44.84294" lon="6.81728">
        <ele>2076.1</ele>
        <time>2026-07-14T11:55:35Z</time>
      </trkpt>
      <trkpt lat="44.843" lon="6.81713">
        <ele>2075.62</ele>
        <time>2026-07-14T11:55:48Z</time>
      </trkpt>
      <trkpt lat="44.84323" lon="6.81712">
        <ele>2075.62</ele>
        <time>2026-07-14T11:56:10Z</time>
      </trkpt>
      <trkpt lat="44.84346" lon="6.81705">
        <ele>2073.7</ele>
        <time>2026-07-14T11:56:31Z</time>
      </trkpt>
      <trkpt lat="44.84369" lon="6.81708">
        <ele>2072.74</ele>
        <time>2026-07-14T11:56:53Z</time>
      </trkpt>
      <trkpt lat="44.84388" lon="6.81715">
        <ele>2072.26</ele>
        <time>2026-07-14T11:57:12Z</time>
      </trkpt>
      <trkpt lat="44.84389" lon="6.81716">
        <ele>2071.78</ele>
        <time>2026-07-14T11:57:36Z</time>
      </trkpt>
      <trkpt lat="44.84391" lon="6.81714">
        <ele>2071.78</ele>
        <time>2026-07-14T11:57:39Z</time>
      </trkpt>
      <trkpt lat="44.84393" lon="6.81712">
        <ele>2071.3</ele>
        <time>2026-07-14T11:57:41Z</time>
      </trkpt>
      <trkpt lat="44.84402" lon="6.81681">
        <ele>2070.34</ele>
        <time>2026-07-14T11:58:01Z</time>
      </trkpt>
      <trkpt lat="44.8441" lon="6.81653">
        <ele>2069.86</ele>
        <time>2026-07-14T11:58:20Z</time>
      </trkpt>
      <trkpt lat="44.84415" lon="6.81625">
        <ele>2067.93</ele>
        <time>2026-07-14T11:58:39Z</time>
      </trkpt>
      <trkpt lat="44.84436" lon="6.81605">
        <ele>2066.97</ele>
        <time>2026-07-14T11:59:03Z</time>
      </trkpt>
      <trkpt lat="44.84454" lon="6.81602">
        <ele>2066.01</ele>
        <time>2026-07-14T11:59:22Z</time>
      </trkpt>
      <trkpt lat="44.8446" lon="6.8159">
        <ele>2065.53</ele>
        <time>2026-07-14T11:59:38Z</time>
      </trkpt>
      <trkpt lat="44.84463" lon="6.81587">
        <ele>2065.53</ele>
        <time>2026-07-14T11:59:53Z</time>
      </trkpt>
      <trkpt lat="44.84464" lon="6.8158">
        <ele>2065.05</ele>
        <time>2026-07-14T12:00:06Z</time>
      </trkpt>
      <trkpt lat="44.84464" lon="6.81577">
        <ele>2065.05</ele>
        <time>2026-07-14T12:00:25Z</time>
      </trkpt>
      <trkpt lat="44.84462" lon="6.81578">
        <ele>2065.05</ele>
        <time>2026-07-14T12:00:44Z</time>
      </trkpt>
    </trkseg>
  </trk>
</gpx>